Date StartTime U_cm/s V_cm/s W_cm/s Ustd_cm/s Vstd_cm/s Wstd_cm/s Uvar_(cm/s)^2 Vvar_(cm/s)^2 Wvar_(cm/s)^2 KE_(m/s)^2 TurbulentKE_(m/s)^2 HorizWindSpeed_cm/s FrictionSpeec_cm/s DragCoef SpeedOfSound_m/s SonicTemperature_C Pressure_mb 
04/27/2013  00:00:00     -220.378      -63.215       -5.221       57.548       50.134       32.764     3311.769     2513.422     1073.505        2.974        0.345      229.265       23.253        0.010      342.894       18.619      868.009
04/27/2013  00:01:00     -276.008     -107.292      -11.718      106.323      102.693       47.520    11304.478    10545.946     2258.179        5.596        1.205      296.128       52.291        0.031      342.924       18.670      868.004
04/27/2013  00:02:00     -265.007     -104.752      -11.139       83.454       89.597       51.353     6964.519     8027.590     2637.089        4.947        0.881      284.959       50.035        0.031      342.870       18.579      868.007
04/27/2013  00:03:00     -233.091     -101.422       -0.139      106.506       95.319       52.040    11343.517     9085.641     2708.122        4.387        1.157      254.200       58.544        0.053      342.962       18.735      868.016
04/27/2013  00:04:00     -160.047      -86.075       -2.328      100.466       76.408       45.854    10093.412     5838.202     2102.587        2.553        0.902      181.725       49.630        0.075      343.030       18.853      868.000
04/27/2013  00:05:00     -189.774      -69.981       -9.501       91.809       70.139       43.752     8428.954     4919.489     1914.246        2.813        0.763      202.266       46.247        0.052      343.093       18.959      867.990
04/27/2013  00:06:00     -252.199      -61.723       -7.280      104.533       80.773       48.483    10927.181     6524.229     2350.648        4.363        0.990      259.643       53.833        0.043      343.013       18.822      867.997
04/27/2013  00:07:00     -250.942     -139.167        0.169       91.640       77.790       47.884     8397.837     6051.339     2292.853        4.954        0.837      286.948       47.305        0.027      343.010       18.817      868.005
04/27/2013  00:08:00     -174.429      -51.758      -10.796       68.242       54.134       31.676     4656.955     2930.475     1003.353        2.090        0.430      181.946       34.943        0.037      342.921       18.665      868.012
04/27/2013  00:09:00     -111.443      -65.740        3.404       96.179       69.653       35.320     9250.472     4851.543     1247.487        1.605        0.767      129.388       40.195        0.097      342.929       18.680      868.016
04/27/2013  00:10:00     -149.538      -50.418       -0.641      104.624       72.320       40.420    10946.241     5230.134     1633.790        2.135        0.891      157.809       50.169        0.101      342.868       18.575      868.019
04/27/2013  00:11:00     -177.083      -39.841        2.380       96.253       53.028       39.710     9264.567     2811.925     1576.853        2.330        0.683      181.510       39.771        0.048      342.813       18.482      868.034
04/27/2013  00:12:00     -189.302      -39.718       -6.637      102.137       63.934       39.835    10431.974     4087.544     1586.854        2.678        0.805      193.424       37.669        0.038      342.847       18.541      868.042
04/27/2013  00:13:00     -186.305      -63.132      -11.572      109.533       71.670       41.710    11997.511     5136.606     1739.750        2.885        0.944      196.711       48.812        0.062      342.851       18.548      868.042
04/27/2013  00:14:00     -206.759      -51.254      -13.955       76.356       84.570       42.022     5830.177     7152.128     1765.886        3.016        0.737      213.017       38.646        0.033      342.948       18.710      868.046
04/27/2013  00:15:00     -123.199     -120.057       -5.609       89.996       71.919       47.336     8099.354     5172.344     2240.730        2.256        0.776      172.023       46.484        0.073      343.067       18.916      868.051
04/27/2013  00:16:00     -101.858      -61.045       -3.564       38.277       40.043       29.282     1465.110     1603.459      857.423        0.902        0.196      118.750       21.884        0.034      343.114       18.999      868.052
04/27/2013  00:17:00      -83.545      -83.220       -4.541       47.880       51.617       29.111     2292.527     2664.265      847.430        0.986        0.290      117.920       23.409        0.039      343.068       18.917      868.073
04/27/2013  00:18:00     -112.697      -74.636        5.606       84.377       35.976       34.900     7119.402     1294.288     1218.030        1.397        0.482      135.171       41.041        0.092      342.902       18.636      868.097
04/27/2013  00:19:00      -37.081      -56.037        5.616       39.791       54.835       31.997     1583.284     3006.825     1023.820        0.508        0.281       67.195       29.573        0.194      342.862       18.569      868.095
04/27/2013  00:20:00      -14.697      -27.890        4.076       23.701       35.072       15.552      561.720     1230.055      241.859        0.152        0.102       31.526       10.141        0.103      342.837       18.526      868.099
04/27/2013  00:21:00       -8.736      -26.868       10.538       21.460       36.451       18.532      460.548     1328.665      343.444        0.152        0.107       28.253       11.858        0.176      342.790       18.448      868.105
04/27/2013  00:22:00      -71.427      -87.295       -2.724       35.208       30.069       22.693     1239.599      904.151      514.987        0.769        0.133      112.793       17.121        0.023      342.902       18.636      868.119
04/27/2013  00:23:00      -40.203      -41.501       -5.664       42.357       16.103       14.720     1794.075      259.312      216.682        0.282        0.114       57.781       16.863        0.085      342.840       18.531      868.118
04/27/2013  00:24:00      -23.171      -78.585       -5.747       27.658       23.727       12.437      764.978      562.984      154.687        0.411        0.074       81.929        6.481        0.006      342.772       18.417      868.111
04/27/2013  00:25:00      -25.427      -91.128       -5.499       28.208       24.286       20.929      795.666      589.795      438.026        0.540        0.091       94.609       12.962        0.019      342.716       18.319      868.098
04/27/2013  00:26:00      -51.376      -72.060        0.617       39.633       42.714       27.711     1570.767     1824.480      767.873        0.600        0.208       88.500       25.497        0.083      342.691       18.279      868.087
04/27/2013  00:27:00      -47.397     -111.038        0.613       51.684       46.188       25.874     2671.187     2133.315      669.442        1.002        0.274      120.731       22.754        0.036      342.584       18.096      868.090
04/27/2013  00:28:00      -58.526      -65.681        9.078       60.313       44.348       26.433     3637.688     1966.769      698.722        0.706        0.315       87.973       29.107        0.109      342.462       17.887      868.089
04/27/2013  00:29:00      -39.027      -90.680       -4.843       53.068       45.809       33.295     2816.249     2098.506     1108.534        0.790        0.301       98.722       16.047        0.026      342.504       17.960      868.078
04/27/2013  00:30:00      -87.320     -125.805        5.411       48.239       61.055       33.596     2327.023     3727.657     1128.670        1.533        0.359      153.139       31.323        0.042      342.467       17.897      868.073
04/27/2013  00:31:00      -80.650     -109.579        0.920       57.781       66.185       33.941     3338.678     4380.398     1151.972        1.369        0.444      136.059       37.289        0.075      342.359       17.712      868.060
04/27/2013  00:32:00      -57.044     -117.476       -0.572       43.054       45.065       29.757     1853.616     2030.828      885.459        1.091        0.238      130.593       22.134        0.029      342.358       17.711      868.039
04/27/2013  00:33:00      -97.943      -59.453       -1.191       60.943       35.371       30.244     3714.087     1251.092      914.706        0.950        0.294      114.575       30.762        0.072      342.263       17.549      868.035
04/27/2013  00:34:00      -72.993      -51.222       -0.744       50.140       44.490       22.949     2514.034     1979.364      526.636        0.649        0.251       89.172       28.765        0.104      342.196       17.437      868.039
04/27/2013  00:35:00     -100.386     -102.169       -5.516       30.010       56.225       20.162      900.628     3161.243      406.524        1.251        0.223      143.234       16.963        0.014      342.166       17.385      868.037
04/27/2013  00:36:00     -132.853      -57.431       -7.108       53.563       38.590       23.161     2868.984     1489.214      536.432        1.295        0.245      144.735       18.497        0.016      342.164       17.382      868.047
04/27/2013  00:37:00      -50.183      -28.035       -0.050       37.858       28.182       17.603     1433.203      794.244      309.879        0.292        0.127       57.483       19.806        0.119      342.116       17.301      868.042
04/27/2013  00:38:00      -69.325      -50.558       -0.932       38.057       22.348       13.153     1448.335      499.451      173.005        0.474        0.106       85.802       11.029        0.017      342.234       17.500      868.036
04/27/2013  00:39:00      -64.809      -51.260       -3.375       43.917       20.699       15.348     1928.736      428.446      235.554        0.472        0.130       82.630       15.185        0.034      342.350       17.698      868.020
04/27/2013  00:40:00      -11.400      -32.840        7.446       45.538       17.913       24.345     2073.681      320.865      592.678        0.212        0.149       34.762       14.861        0.183      342.327       17.657      868.017
04/27/2013  00:41:00       -5.012      -50.536        5.863       29.962       22.363       16.689      897.747      500.106      278.507        0.214        0.084       50.784       15.761        0.096      342.293       17.600      868.012
04/27/2013  00:42:00      -39.454      -89.918        3.423       28.287       30.720       16.814      800.146      943.696      282.724        0.584        0.101       98.193       13.069        0.018      342.344       17.686      868.022
04/27/2013  00:43:00       -0.627      -34.421        0.560       19.147       18.495       12.020      366.594      342.061      144.492        0.102        0.043       34.427       10.432        0.092      342.294       17.602      868.026
04/27/2013  00:44:00       -1.155      -28.064        0.478        9.751       19.426       10.885       95.080      377.384      118.485        0.069        0.030       28.087        7.986        0.081      342.105       17.282      868.029
04/27/2013  00:45:00      -66.257      -66.367       -1.702       19.299       30.158       13.224      372.433      909.487      174.865        0.513        0.073       93.779       11.590        0.015      342.101       17.275      868.037
04/27/2013  00:46:00      -58.415      -57.133       -5.204       13.092       15.903       11.121      171.411      252.905      123.683        0.363        0.027       81.710        5.351        0.004      342.071       17.222      868.026
04/27/2013  00:47:00      -43.452      -12.205        7.516       36.304       26.591       26.686     1318.000      707.100      712.158        0.241        0.137       45.133       24.270        0.289      341.949       17.016      868.024
04/27/2013  00:48:00      -22.792      -17.518       -0.366       33.108       24.277       14.980     1096.110      589.378      224.389        0.137        0.095       28.746        9.932        0.119      342.043       17.177      868.035
04/27/2013  00:49:00       12.658        6.435        9.613        9.750        7.708        9.533       95.063       59.414       90.887        0.027        0.012       14.200        7.757        0.298      341.904       16.941      868.039
04/27/2013  00:50:00      -19.830       16.210       -2.775       14.422       13.090        5.483      208.002      171.349       30.065        0.054        0.020       25.613        3.630        0.020      341.954       17.024      868.042
04/27/2013  00:51:00      -18.406       48.997       -9.830       11.523        9.333        9.774      132.777       87.105       95.525        0.158        0.016       52.340        6.248        0.014      341.878       16.896      868.054
04/27/2013  00:52:00       -5.699       26.089       -7.335       13.974       16.037        8.457      195.272      257.201       71.526        0.065        0.026       26.704        9.192        0.118      341.778       16.727      868.043
04/27/2013  00:53:00        5.607       -7.552       -6.177        6.668        5.552        3.418       44.461       30.830       11.686        0.011        0.004        9.406        2.374        0.064      341.781       16.733      868.030
04/27/2013  00:54:00        5.736       -9.638       -2.749       11.555        6.730        6.440      133.518       45.297       41.476        0.018        0.011       11.216        5.131        0.209      341.826       16.809      868.017
04/27/2013  00:55:00       -2.764      -13.451       -2.759       14.823       13.866        6.363      219.715      192.270       40.491        0.032        0.023       13.732        7.344        0.286      341.886       16.910      868.004
04/27/2013  00:56:00      -31.245      -43.631        2.255       15.920       24.332       11.215      253.444      592.044      125.784        0.193        0.049       53.664        5.814        0.012      341.962       17.039      867.988
04/27/2013  00:57:00      -13.413      -23.412        2.729       16.230       18.394        9.172      263.414      338.354       84.129        0.071        0.034       26.982        9.786        0.132      341.864       16.872      867.987
04/27/2013  00:58:00        2.983      -24.399        6.864       26.103       18.545       17.744      681.357      343.900      314.833        0.100        0.067       24.581       16.500        0.451      341.773       16.719      867.981
04/27/2013  00:59:00        8.945       13.246       27.717       23.620       38.349       24.259      557.887     1470.679      588.500        0.182        0.131       15.984       16.819        1.107      341.784       16.737      867.983
04/27/2013  01:00:00       -6.582       27.490       57.009       13.772       25.491       17.028      189.670      649.811      289.965        0.259        0.056       28.267       18.517        0.429      341.831       16.816      867.980
04/27/2013  01:01:00        4.060      -30.581       11.439       16.100       30.868       23.865      259.201      952.804      569.534        0.143        0.089       30.849       24.735        0.643      341.815       16.790      867.979
04/27/2013  01:02:00       23.989      -49.260       -2.309       22.998       14.003       12.353      528.918      196.096      152.607        0.194        0.044       54.790        4.104        0.006      341.883       16.905      867.974
04/27/2013  01:03:00        5.088      -37.801        3.747       20.869       20.363       13.199      435.521      414.638      174.219        0.125        0.051       38.141       13.215        0.120      341.879       16.897      867.968
04/27/2013  01:04:00      -25.114       13.557       -2.426       12.959       11.228        6.765      167.948      126.075       45.764        0.058        0.017       28.539        4.372        0.023      341.925       16.976      867.965
04/27/2013  01:05:00      -39.380       30.696       -9.503       16.006        8.930        8.196      256.188       79.749       67.182        0.149        0.020       49.930        4.646        0.009      342.068       17.219      867.971
04/27/2013  01:06:00       -2.456       21.996       -8.649        7.412        8.324        9.817       54.936       69.291       96.381        0.039        0.011       22.133        4.129        0.035      342.094       17.262      867.976
04/27/2013  01:07:00       12.457       29.547        3.636       13.351       10.469        9.316      178.259      109.597       86.783        0.071        0.019       32.065        3.467        0.012      342.132       17.328      867.974
04/27/2013  01:08:00       29.211       11.797       -1.301       10.109       10.120        7.347      102.196      102.420       53.974        0.063        0.013       31.503        5.429        0.030      342.108       17.285      867.974
04/27/2013  01:09:00       15.239       -7.220        0.618        9.863        6.686        4.497       97.282       44.704       20.221        0.022        0.008       16.863        3.743        0.049      342.143       17.348      867.967
04/27/2013  01:10:00       -8.532      -23.389       -4.897       12.205       13.527        8.646      148.972      182.988       74.759        0.053        0.020       24.896        9.453        0.144      342.041       17.176      867.972
04/27/2013  01:11:00        3.294      -26.280       -0.613        6.441        8.304        9.804       41.489       68.950       96.117        0.045        0.010       26.486        7.296        0.076      342.092       17.259      867.968
04/27/2013  01:12:00      -21.999      -22.146       -2.952       20.394        7.001        5.662      415.905       49.016       32.061        0.074        0.025       31.216        7.319        0.055      341.920       16.966      867.969
04/27/2013  01:13:00      -21.682       -2.473       -2.437       19.080        7.311        6.776      364.034       53.446       45.910        0.047        0.023       21.823        3.441        0.025      341.699       16.593      867.968
04/27/2013  01:14:00      -21.808       -4.860       -7.757       13.532        7.727        7.283      183.127       59.709       53.044        0.043        0.015       22.343        6.409        0.082      341.848       16.845      867.956
04/27/2013  01:15:00      -45.682      -22.580       -6.296       18.331        6.931        4.826      336.010       48.033       23.295        0.152        0.020       50.958        5.274        0.011      341.778       16.728      867.951
04/27/2013  01:16:00      -67.720      -28.544       -3.575        8.490        7.871        6.137       72.088       61.952       37.662        0.279        0.009       73.490        2.027        0.001      341.678       16.557      867.935
04/27/2013  01:17:00     -101.489      -30.005       -5.244       14.596        9.778        7.045      213.035       95.612       49.635        0.579        0.018      105.832        5.176        0.002      341.616       16.452      867.934
04/27/2013  01:18:00      -82.910      -26.749       -0.787       13.170       15.792        8.325      173.447      249.401       69.302        0.404        0.025       87.118        5.351        0.004      341.591       16.411      867.928
04/27/2013  01:19:00      -60.075      -36.496        0.503       34.803       28.290       13.131     1211.234      800.312      172.431        0.356        0.109       70.292       13.273        0.036      341.609       16.441      867.922
04/27/2013  01:20:00      -52.610      -42.471        5.330       25.851       14.661       17.158      668.258      214.948      294.398        0.289        0.059       67.613       13.587        0.040      341.706       16.605      867.911
04/27/2013  01:21:00      -64.745      -49.455        3.654       30.124       25.436       23.454      907.469      646.980      550.077        0.438        0.105       81.472       24.441        0.090      341.707       16.605      867.900
04/27/2013  01:22:00      -64.461      -56.203        0.110       23.761       26.655       19.886      564.601      710.510      395.454        0.449        0.084       85.522       15.161        0.031      341.713       16.616      867.888
04/27/2013  01:23:00      -76.789      -27.596       -4.813       26.296       20.587       15.890      691.501      423.805      252.483        0.402        0.068       81.597       12.896        0.025      341.666       16.537      867.895
04/27/2013  01:24:00      -72.091       28.800       -2.383       35.291       35.123       15.921     1245.427     1233.652      253.491        0.438        0.137       77.631       18.424        0.056      341.418       16.116      867.897
04/27/2013  01:25:00      -92.694       12.915      -10.859       34.948       19.191       16.440     1221.386      368.298      270.284        0.537        0.093       93.589       16.289        0.030      341.229       15.799      867.909
04/27/2013  01:26:00      -91.748      -32.048      -11.777       20.464       29.029       17.270      418.765      842.698      298.264        0.557        0.078       97.184        7.512        0.006      341.170       15.697      867.923
04/27/2013  01:27:00      -78.160      -34.612      -10.276       26.922       30.135       18.113      724.801      908.092      328.085        0.469        0.098       85.481       14.999        0.031      341.251       15.834      867.905
04/27/2013  01:28:00     -116.290      -52.569      -13.160       19.260       29.647       12.048      370.931      878.935      145.148        0.893        0.070      127.620       11.723        0.008      341.345       15.992      867.916
04/27/2013  01:29:00      -89.114      -18.390        5.666       37.089       23.646       20.861     1375.562      559.123      435.189        0.534        0.118       90.992       20.245        0.050      341.425       16.128      867.911
04/27/2013  01:30:00      -42.853       -4.439        2.982       31.888       19.651       11.962     1016.823      386.181      143.085        0.171        0.077       43.082       13.880        0.104      341.259       15.848      867.911
04/27/2013  01:31:00      -71.351      -21.037        0.016       23.474       21.371       14.560      551.010      456.737      212.006        0.338        0.061       74.388       14.708        0.039      341.371       16.037      867.912
04/27/2013  01:32:00      -88.499       26.911       -5.041       32.692       22.361       14.498     1068.755      499.999      210.192        0.518        0.089       92.500        8.515        0.008      341.372       16.039      867.915
04/27/2013  01:33:00      -68.732       32.629       -3.649       34.104       26.772       14.741     1163.054      716.753      217.301        0.395        0.105       76.084       13.822        0.033      341.422       16.123      867.917
04/27/2013  01:34:00      -74.904       28.830       -9.182       14.626       21.201        8.761      213.919      449.490       76.748        0.363        0.037       80.261        6.632        0.007      341.593       16.412      867.911
04/27/2013  01:35:00      -11.487       13.172        1.623       26.262        9.994        7.319      689.707       99.875       53.566        0.058        0.042       17.478        7.959        0.207      341.458       16.183      867.922
04/27/2013  01:36:00       26.087       33.587        0.020       13.292       22.141       16.588      176.690      490.207      275.176        0.138        0.047       42.528       16.999        0.160      341.262       15.850      867.918
04/27/2013  01:37:00       -1.498       39.375        1.821       19.442       20.423       17.199      378.007      417.089      295.797        0.132        0.055       39.403       14.653        0.138      341.161       15.681      867.919
04/27/2013  01:38:00      -25.141       31.029       -3.437       26.409       21.004       11.924      697.427      441.183      142.174        0.144        0.064       39.936        9.721        0.059      340.963       15.345      867.928
04/27/2013  01:39:00       -4.770        1.957        3.496       15.383       15.117       10.485      236.640      228.518      109.938        0.031        0.029        5.156       10.516        4.160      340.925       15.282      867.929
04/27/2013  01:40:00        3.212       -5.606        7.228        7.724        7.068        6.562       59.666       49.962       43.063        0.012        0.008        6.461        5.784        0.801      340.940       15.307      867.919
04/27/2013  01:41:00       31.955       15.505       10.405       12.028       10.742        8.534      144.670      115.396       72.831        0.085        0.017       35.518        6.652        0.035      341.152       15.667      867.921
04/27/2013  01:42:00       16.771       22.316        7.320       18.114        8.717        9.023      328.118       75.978       81.416        0.066        0.024       27.916       10.349        0.137      341.290       15.901      867.943
04/27/2013  01:43:00      -16.311        1.094       -0.358       13.768        8.926        7.336      189.545       79.680       53.819        0.030        0.016       16.348        6.916        0.179      341.191       15.733      867.942
04/27/2013  01:44:00      -30.855        0.472       -5.511       13.854        4.946        5.232      191.945       24.465       27.369        0.061        0.012       30.858        3.071        0.010      341.135       15.638      867.952
04/27/2013  01:45:00       10.116        9.432        3.066       12.953       15.251        7.547      167.791      232.586       56.959        0.033        0.023       13.831        8.165        0.349      341.179       15.713      867.952
04/27/2013  01:46:00       27.009       28.685       10.314       10.872       11.859       12.517      118.203      140.640      156.687        0.104        0.021       39.399        9.376        0.057      341.060       15.510      867.966
04/27/2013  01:47:00       27.322        4.697       18.197       17.211       27.753       16.902      296.208      770.255      285.691        0.123        0.068       27.722       14.924        0.290      341.014       15.431      867.964
04/27/2013  01:48:00        3.016       -3.719        6.078       16.279       11.739       11.516      265.018      137.804      132.630        0.030        0.027        4.788        8.742        3.334      340.816       15.096      867.975
04/27/2013  01:49:00       12.997       -7.540       21.382       13.229       21.494       12.962      175.008      461.996      168.020        0.074        0.040       15.026        7.779        0.268      340.829       15.119      867.974
04/27/2013  01:50:00       67.295        2.056       27.821       51.770       24.523       24.017     2680.140      601.384      576.800        0.458        0.193       67.327       24.381        0.131      340.852       15.159      867.975
04/27/2013  01:51:00       17.379      -29.791        2.865       14.899       12.648       11.013      221.981      159.967      121.275        0.085        0.025       34.490        6.554        0.036      340.940       15.307      867.965
04/27/2013  01:52:00      -39.109      -11.247       -3.060       22.734       13.057        9.436      516.813      170.497       89.047        0.122        0.039       40.694        9.738        0.057      340.874       15.196      867.952
04/27/2013  01:53:00      -55.157       -9.087        0.798       15.789       10.876       10.352      249.293      118.287      107.162        0.180        0.024       55.901        4.891        0.008      340.878       15.204      867.948
04/27/2013  01:54:00      -71.773       -0.894      -10.731       16.478        8.845        9.745      271.529       78.228       94.957        0.286        0.022       71.778        8.945        0.016      340.852       15.158      867.943
04/27/2013  01:55:00      -46.597      -18.503       -4.570       12.272       12.203        7.664      150.605      148.925       58.739        0.145        0.018       50.137        4.969        0.010      340.893       15.228      867.953
04/27/2013  01:56:00      -11.506      -21.625       -1.752       19.110       12.683       12.271      365.185      160.859      150.567        0.064        0.034       24.495        8.352        0.116      340.859       15.172      867.956
04/27/2013  01:57:00      -11.842      -27.148        0.167       24.109       12.030        8.511      581.233      144.715       72.439        0.084        0.040       29.618        5.098        0.030      340.897       15.233      867.962
04/27/2013  01:58:00        1.170       11.905       -0.106        8.863       11.336        6.206       78.544      128.508       38.514        0.019        0.012       11.962        4.937        0.170      340.862       15.176      867.957
04/27/2013  01:59:00        8.213       24.815        3.985        8.532        9.357        7.814       72.804       87.545       61.063        0.046        0.011       26.139        1.484        0.003      340.815       15.096      867.962
04/27/2013  02:00:00       16.796       38.549       11.766       13.276       11.877       11.514      176.254      141.052      132.562        0.118        0.022       42.049       10.150        0.058      340.792       15.058      867.959
04/27/2013  02:01:00       13.613       14.905       13.151       12.067       14.208       10.755      145.602      201.881      115.672        0.052        0.023       20.186        8.385        0.173      340.787       15.048      867.962
04/27/2013  02:02:00        0.847       -6.873        8.548        8.297       17.618        8.634       68.832      310.387       74.548        0.029        0.023        6.925        9.175        1.756      340.913       15.262      867.961
04/27/2013  02:03:00        1.978      -10.468        0.944        6.321        7.272        5.657       39.957       52.882       32.000        0.012        0.006       10.653        4.097        0.148      340.979       15.373      867.965
04/27/2013  02:04:00       -4.181      -16.051        3.036       19.607       12.561       11.324      384.420      157.782      128.236        0.048        0.034       16.586        8.878        0.286      340.878       15.204      867.964
04/27/2013  02:05:00      -51.945      -14.228       -9.010        9.007        8.607        8.065       81.134       74.086       65.045        0.160        0.011       53.859        4.124        0.006      340.750       14.988      867.970
04/27/2013  02:06:00      -39.470      -17.773       -8.488        9.971        8.060        8.719       99.426       64.970       76.029        0.109        0.012       43.287        5.825        0.018      340.757       14.998      867.965
04/27/2013  02:07:00      -47.730      -12.609      -13.966        8.770        5.813        5.493       76.917       33.787       30.175        0.139        0.007       49.367        2.883        0.003      340.963       15.345      867.964
04/27/2013  02:08:00      -69.922      -13.776      -10.693       12.734       10.500        8.729      162.152      110.246       76.199        0.277        0.017       71.266        6.255        0.008      340.822       15.108      867.961
04/27/2013  02:09:00      -83.331      -38.293       -8.492       16.220       14.528       10.529      263.075      211.056      110.867        0.453        0.029       91.709        2.339        0.001      340.679       14.866      867.956
04/27/2013  02:10:00      -40.821      -27.986       -4.299       27.812       15.254       13.041      773.526      232.687      170.068        0.182        0.059       49.493        9.603        0.038      340.618       14.763      867.956
04/27/2013  02:11:00      -18.715      -15.591        3.018       12.194       10.945        9.783      148.695      119.793       95.700        0.048        0.018       24.358        3.634        0.022      340.626       14.777      867.935
04/27/2013  02:12:00      -27.507      -21.710        0.224       22.579       14.245        8.594      509.820      202.918       73.854        0.101        0.039       35.042        5.640        0.026      340.713       14.924      867.943
04/27/2013  02:13:00      -47.024      -18.368        3.313       22.123       12.060       13.657      489.419      145.455      186.506        0.169        0.041       50.484       13.465        0.071      340.616       14.759      867.942
04/27/2013  02:14:00      -56.018      -15.884       -2.026       12.461       12.211        8.709      155.283      149.104       75.851        0.189        0.019       58.226        7.950        0.019      340.649       14.815      867.952
04/27/2013  02:15:00      -44.953      -18.708       -4.927        8.663       11.807        6.955       75.048      139.405       48.377        0.133        0.013       48.691        4.802        0.010      340.689       14.883      867.944
04/27/2013  02:16:00      -13.277      -21.199       -1.297       15.850        9.310        7.583      251.235       86.672       57.502        0.051        0.020       25.013        7.104        0.081      340.757       14.997      867.934
04/27/2013  02:17:00      -50.208      -11.905       -3.889       24.055       10.502        9.769      578.621      110.291       95.440        0.173        0.039       51.600       12.109        0.055      340.745       14.978      867.927
04/27/2013  02:18:00      -71.657      -18.153       -9.896       10.493        9.750        6.953      110.111       95.055       48.347        0.291        0.013       73.921        6.408        0.008      340.555       14.657      867.926
04/27/2013  02:19:00      -27.518      -23.318        2.309        9.750        9.629       11.450       95.065       92.715      131.108        0.081        0.016       36.069        7.107        0.039      340.514       14.586      867.914
04/27/2013  02:20:00      -75.708      -28.932       -5.141       14.117       11.384        7.245      199.278      129.590       52.497        0.349        0.019       81.048        3.585        0.002      340.636       14.795      867.906
04/27/2013  02:21:00     -117.442      -35.544      -11.833       16.676       14.113       11.067      278.079      199.188      122.486        0.790        0.030      122.703        3.929        0.001      340.488       14.543      867.902
04/27/2013  02:22:00     -131.548      -68.197       -9.105       24.113       17.277       16.803      581.436      298.485      282.352        1.160        0.058      148.175       12.628        0.007      340.523       14.603      867.896
04/27/2013  02:23:00      -85.626      -69.952        3.519       68.139       51.722       31.222     4642.901     2675.140      974.836        1.026        0.415      110.567       33.317        0.091      340.413       14.416      867.902
04/27/2013  02:24:00     -126.651      -84.123       -2.912       65.505       55.298       35.178     4290.967     3057.866     1237.462        1.585        0.429      152.044       35.617        0.055      340.498       14.559      867.893
04/27/2013  02:25:00      -75.543      -79.304        7.969       56.181       46.460       34.457     3156.320     2158.487     1187.297        0.928        0.325      109.525       32.045        0.086      340.446       14.473      867.879
04/27/2013  02:26:00      -15.717      -40.887        7.449       34.611       33.492       22.025     1197.922     1121.723      485.080        0.239        0.140       43.804       13.220        0.091      340.501       14.566      867.875
04/27/2013  02:27:00      -38.703      -67.201       -3.091       54.212       29.789       30.930     2938.932      887.413      956.647        0.540        0.239       77.550        8.828        0.013      340.526       14.608      867.861
04/27/2013  02:28:00      -76.873      -70.284       11.108       61.655       37.561       37.894     3801.331     1410.845     1435.982        0.881        0.332      104.160       30.931        0.088      340.446       14.472      867.875
04/27/2013  02:29:00     -159.266     -129.153      -20.198       68.404       44.747       32.571     4679.163     2002.298     1060.838        2.510        0.387      205.052       21.486        0.011      340.395       14.384      867.876
04/27/2013  02:30:00     -107.167      -65.973        3.705       72.991       46.369       41.482     5327.662     2150.065     1720.742        1.252        0.460      125.846       36.095        0.082      340.231       14.109      867.878
04/27/2013  02:31:00      -54.484      -46.455        9.309       62.653       43.209       28.366     3925.355     1867.030      804.651        0.590        0.330       71.600       21.613        0.091      340.176       14.016      867.896
04/27/2013  02:32:00      -47.689      -62.574        4.519       54.172       48.945       27.397     2934.590     2395.661      750.588        0.614        0.304       78.675       18.816        0.057      340.173       14.011      867.886
04/27/2013  02:33:00      -70.269      -82.653        6.155       63.536       57.643       31.302     4036.841     3322.762      979.838        1.007        0.417      108.487       25.970        0.057      340.195       14.049      867.898
04/27/2013  02:34:00     -106.285      -69.308        1.862       91.183       57.209       36.272     8314.268     3272.911     1315.643        1.450        0.645      126.886       38.202        0.091      340.110       13.904      867.910
04/27/2013  02:35:00     -173.995     -130.930       -4.948       46.103       52.200       33.595     2125.511     2724.796     1128.644        2.671        0.299      217.754       32.318        0.022      340.067       13.830      867.917
04/27/2013  02:36:00     -125.094      -90.076       -2.114       51.464       34.699       28.129     2648.544     1204.002      791.251        1.420        0.232      154.150       25.944        0.028      340.084       13.862      867.915
04/27/2013  02:37:00     -103.373     -107.732       -4.828       37.198       30.248       22.062     1383.717      914.960      486.710        1.255        0.139      149.306       20.890        0.020      340.100       13.887      867.906
04/27/2013  02:38:00      -92.601      -93.681        4.876       57.047       45.411       33.384     3254.310     2062.193     1114.500        1.190        0.322      131.724       36.419        0.076      340.139       13.953      867.897
04/27/2013  02:39:00     -132.965      -89.982        2.077       47.872       37.803       26.838     2291.723     1429.070      720.266        1.511        0.222      160.551       21.426        0.018      340.131       13.940      867.890
04/27/2013  02:40:00     -124.910      -68.936        0.624       38.250       33.637       27.850     1463.064     1131.464      775.601        1.186        0.169      142.670       18.488        0.017      340.104       13.895      867.901
04/27/2013  02:41:00      -77.275      -49.578        3.184       41.860       26.460       19.029     1752.230      700.127      362.116        0.563        0.141       91.812       21.990        0.057      340.094       13.877      867.908
04/27/2013  02:42:00      -85.829      -63.009       -8.875       37.527       22.862       13.339     1408.267      522.688      177.940        0.676        0.105      106.474        9.474        0.008      340.180       14.022      867.901
04/27/2013  02:43:00     -110.363      -44.700       -7.444       19.624       24.772       15.613      385.109      613.669      243.761        0.774        0.062      119.072        7.310        0.004      340.173       14.011      867.901
04/27/2013  02:44:00     -116.381      -60.964       -9.419       23.100       22.789       15.501      533.610      519.349      240.280        0.932        0.065      131.382       10.326        0.006      340.168       14.002      867.896
04/27/2013  02:45:00     -126.812      -46.151       -8.204       29.323       25.725       18.010      859.856      661.789      324.376        1.006        0.092      134.949       13.005        0.009      340.089       13.870      867.890
04/27/2013  02:46:00     -152.144      -73.374       -4.777       29.198       25.873       16.722      852.515      669.416      279.610        1.518        0.090      168.913       14.155        0.007      340.060       13.820      867.886
04/27/2013  02:47:00     -139.484      -54.421       -2.805       34.334       32.872       21.657     1178.816     1080.544      469.005        1.258        0.136      149.724       20.808        0.019      340.071       13.839      867.890
04/27/2013  02:48:00     -111.137      -30.653       -0.021       35.941       26.040       18.284     1291.735      678.066      334.290        0.780        0.115      115.287       18.636        0.026      340.076       13.846      867.875
04/27/2013  02:49:00      -70.929      -74.223        3.463       45.467       35.887       26.945     2067.203     1287.897      726.047        0.732        0.204      102.664       20.533        0.040      340.065       13.828      867.881
04/27/2013  02:50:00     -158.736      -77.122      -10.574       33.741       34.426       23.410     1138.438     1185.125      548.031        1.706        0.144      176.479       19.551        0.012      340.125       13.928      867.881
04/27/2013  02:51:00     -141.833      -99.875       -3.898       49.770       41.365       30.907     2477.101     1711.093      955.254        1.762        0.257      173.469       25.724        0.022      340.139       13.953      867.877
04/27/2013  02:52:00     -108.994      -99.785       -0.325       62.529       39.407       27.077     3909.830     1552.896      733.144        1.402        0.310      147.773       30.728        0.043      340.089       13.870      867.872
04/27/2013  02:53:00     -158.630     -104.677       -6.717       36.594       36.750       23.187     1339.124     1350.548      537.649        1.970        0.161      190.055       16.769        0.008      340.076       13.848      867.852
04/27/2013  02:54:00     -118.508      -97.819       -7.509       37.206       32.733       23.735     1384.252     1071.436      563.364        1.334        0.151      153.665       19.104        0.015      340.098       13.884      867.844
04/27/2013  02:55:00     -106.348      -67.483        3.110       43.100       34.324       24.371     1857.638     1178.139      593.964        0.975        0.181      125.951       24.859        0.039      340.099       13.885      867.822
04/27/2013  02:56:00      -60.476      -53.780        7.202       53.600       40.352       25.437     2872.994     1628.264      647.017        0.587        0.257       80.930       20.047        0.061      340.122       13.923      867.810
04/27/2013  02:57:00     -103.057      -67.900       -1.720       53.296       25.535       23.344     2840.475      652.039      544.923        0.963        0.202      123.414       11.211        0.008      340.088       13.868      867.811
04/27/2013  02:58:00     -123.630      -74.313        7.164       59.171       38.996       29.820     3501.234     1520.696      889.261        1.338        0.296      144.245       33.148        0.053      340.059       13.819      867.801
04/27/2013  02:59:00     -105.575      -66.509       -1.553       31.803       38.008       19.603     1011.406     1444.642      384.266        0.921        0.142      124.778       12.359        0.010      340.003       13.724      867.805
04/27/2013  03:00:00      -98.711      -65.388       -3.063       56.989       35.213       27.433     3247.696     1239.947      752.550        0.963        0.262      118.403       23.554        0.040      339.970       13.668      867.811
04/27/2013  03:01:00     -117.286      -23.972       -1.418       46.564       33.220       23.897     2168.183     1103.556      571.076        0.909        0.192      119.711       25.590        0.046      339.833       13.437      867.808
04/27/2013  03:02:00     -156.591      -39.406        5.261       55.664       31.312       27.851     3098.482      980.452      775.705        1.548        0.243      161.473       26.493        0.027      339.799       13.380      867.814
04/27/2013  03:03:00     -127.511      -28.907       -8.845       43.910       44.894       21.574     1928.123     2015.500      465.426        1.079        0.220      130.746       24.273        0.034      339.777       13.343      867.819
04/27/2013  03:04:00     -124.838      -38.038       -8.833       34.449       45.580       28.508     1186.756     2077.558      812.717        1.059        0.204      130.505       20.403        0.024      339.764       13.321      867.821
04/27/2013  03:05:00     -112.847      -26.194      -10.481       31.259       22.175       23.039      977.109      491.736      530.781        0.776        0.100      115.847       13.852        0.014      339.776       13.342      867.831
04/27/2013  03:06:00     -116.555      -33.729       -2.894       23.979       39.249       16.266      575.009     1540.454      264.567        0.856        0.119      121.337        8.544        0.005      339.743       13.287      867.838
04/27/2013  03:07:00     -116.134      -40.965       -3.791       51.256       47.838       29.024     2627.175     2288.455      842.379        1.047        0.288      123.147       19.908        0.026      339.819       13.413      867.852
04/27/2013  03:08:00     -130.669      -74.978        2.759       48.553       53.011       29.014     2357.438     2810.213      841.830        1.436        0.300      150.652       21.024        0.019      339.629       13.093      867.863
04/27/2013  03:09:00     -173.908      -39.055      -11.027       42.034       37.316       24.026     1766.898     1392.493      577.251        1.781        0.187      178.240       24.046        0.018      339.655       13.137      867.861
04/27/2013  03:10:00     -131.398      -41.690      -11.780       39.381       33.732       21.560     1550.894     1137.848      464.843        1.115        0.158      137.853       18.129        0.017      339.675       13.172      867.860
04/27/2013  03:11:00     -144.285      -25.805      -11.928       36.458       41.529       23.599     1329.177     1724.666      556.921        1.262        0.181      146.574       17.871        0.015      339.683       13.183      867.856
04/27/2013  03:12:00     -138.567      -36.609      -15.720       43.342       31.900       19.157     1878.552     1017.587      366.981        1.202        0.163      143.321       20.301        0.020      339.639       13.109      867.869
04/27/2013  03:13:00     -163.719      -64.307      -16.043       32.586       33.608       18.706     1061.880     1129.474      349.908        1.687        0.127      175.896       15.354        0.008      339.583       13.016      867.870
04/27/2013  03:14:00     -119.595      -32.641        0.716       43.741       37.962       22.084     1913.313     1441.134      487.690        0.960        0.192      123.969       12.494        0.010      339.539       12.942      867.870
04/27/2013  03:15:00     -129.410      -66.947       -6.274       54.390       33.534       20.798     2958.242     1124.546      432.538        1.289        0.226      145.701       19.310        0.018      339.520       12.910      867.880
04/27/2013  03:16:00     -160.848      -71.716      -11.504       21.385       26.923       17.378      457.305      724.856      301.999        1.632        0.074      176.111       12.940        0.005      339.616       13.073      867.876
04/27/2013  03:17:00     -116.708      -25.552      -11.053       34.453       19.814       18.449     1187.043      392.580      340.367        0.816        0.096      119.473       16.855        0.020      339.657       13.140      867.885
04/27/2013  03:18:00     -108.165      -25.694        0.161       35.207       23.027       18.281     1239.517      530.254      334.183        0.723        0.105      111.175       15.002        0.018      339.637       13.105      867.888
04/27/2013  03:19:00      -88.410      -63.027       -9.863       49.008       31.877       24.739     2401.753     1016.136      611.997        0.796        0.201      108.576       17.485        0.026      339.673       13.167      867.891
04/27/2013  03:20:00     -121.552      -83.837      -10.829       30.885       24.403       24.276      953.854      595.505      589.348        1.203        0.107      147.660       21.079        0.020      339.646       13.123      867.899
04/27/2013  03:21:00     -124.799      -80.733      -11.906       30.499       19.682       16.719      930.176      387.371      279.526        1.192        0.080      148.636       13.045        0.008      339.628       13.093      867.900
04/27/2013  03:22:00     -106.339      -15.072       -4.467       40.566       36.051       20.302     1645.586     1299.705      412.164        0.746        0.168      107.402       19.764        0.034      339.508       12.890      867.911
04/27/2013  03:23:00     -153.399       45.395      -12.665       50.656       38.471       26.949     2566.034     1479.981      726.246        1.526        0.239      159.975       19.738        0.015      339.527       12.921      867.912
04/27/2013  03:24:00      -71.258        8.271       -3.263       41.037       25.496       15.685     1683.995      650.049      246.023        0.387        0.129       71.736       15.966        0.050      339.371       12.659      867.920
04/27/2013  03:25:00      -80.405      -52.845       -2.925       23.062       19.015       15.955      531.838      361.569      254.554        0.521        0.057       96.217       14.662        0.023      339.411       12.726      867.911
04/27/2013  03:26:00      -95.913      -58.825       -4.521       23.377       24.228       14.530      546.490      586.974      211.108        0.701        0.067      112.515        8.388        0.006      339.467       12.820      867.921
04/27/2013  03:27:00     -120.384      -50.567       -8.211       17.663       21.586       12.569      311.984      465.951      157.988        0.903        0.047      130.573        8.110        0.004      339.429       12.755      867.949
04/27/2013  03:28:00     -107.196      -24.365       -9.339       15.100       19.065       12.683      228.020      363.493      160.855        0.646        0.038      109.930        5.501        0.003      339.444       12.783      867.965
04/27/2013  03:29:00      -82.004      -22.072      -12.181       18.595       14.297        8.601      345.763      204.412       73.985        0.399        0.031       84.922        4.666        0.003      339.444       12.782      867.985
04/27/2013  03:30:00      -86.584      -43.382      -13.542       15.667       15.444        8.815      245.467      238.521       77.700        0.506        0.028       96.844        4.528        0.002      339.384       12.679      868.003
04/27/2013  03:31:00      -47.130      -26.297        3.931       32.301       17.298       17.189     1043.326      299.237      295.445        0.228        0.082       53.971       17.438        0.104      339.310       12.555      868.026
04/27/2013  03:32:00      -56.238      -30.925       -3.181       33.693       22.631       19.084     1135.231      512.151      364.192        0.307        0.101       64.180       16.673        0.067      339.325       12.581      868.042
04/27/2013  03:33:00      -61.125      -16.568      -13.794       17.003       14.216       11.446      289.087      202.091      131.009        0.241        0.031       63.331        9.891        0.024      339.335       12.598      868.049
04/27/2013  03:34:00      -73.447      -15.795       -2.469       29.006       30.064       16.662      841.355      903.816      277.626        0.384        0.101       75.126       18.764        0.062      339.384       12.681      868.051
04/27/2013  03:35:00      -75.127      -39.318        1.650       32.113       24.030       19.953     1031.262      577.437      398.137        0.460        0.100       84.794       20.814        0.060      339.411       12.726      868.042
04/27/2013  03:36:00     -104.709      -54.310       -5.952       16.980       19.162       13.990      288.334      367.176      195.707        0.740        0.043      117.956        4.893        0.002      339.548       12.954      868.030
04/27/2013  03:37:00     -110.006      -50.195      -16.596       11.170       11.879       12.856      124.758      141.114      165.282        0.766        0.022      120.917        5.919        0.002      339.485       12.850      868.014
04/27/2013  03:38:00     -122.954      -50.578      -15.778       15.011       12.691        8.714      225.326      161.051       75.937        0.919        0.023      132.950        4.610        0.001      339.458       12.805      868.021
04/27/2013  03:39:00     -106.101      -31.403      -11.268       21.897       17.851       12.839      479.496      318.667      164.853        0.667        0.048      110.651        7.873        0.005      339.478       12.839      868.022
04/27/2013  03:40:00      -86.746      -35.669       -5.446       14.115       11.970        8.293      199.231      143.272       68.772        0.462        0.021       93.793        5.696        0.004      339.453       12.797      868.041
04/27/2013  03:41:00      -59.547      -15.835       -3.553       13.899       12.463       10.304      193.182      155.328      106.166        0.213        0.023       61.617        9.282        0.023      339.424       12.748      868.054
04/27/2013  03:42:00      -58.580       -6.897       -1.299       17.856       12.728       10.985      318.822      161.992      120.669        0.204        0.030       58.984        9.842        0.028      339.427       12.753      868.069
04/27/2013  03:43:00      -61.571       11.254       -6.356       11.240       11.158        8.169      126.330      124.507       66.739        0.214        0.016       62.591        5.429        0.008      339.340       12.605      868.083
04/27/2013  03:44:00      -34.109       10.143       -2.621       15.677       13.599        7.915      245.763      184.922       62.650        0.088        0.025       35.585        7.655        0.046      339.389       12.689      868.088
04/27/2013  03:45:00      -13.251       10.754       -4.205        6.969        8.448        5.826       48.564       71.374       33.948        0.023        0.008       17.066        5.143        0.091      339.407       12.720      868.096
04/27/2013  03:46:00        0.173        8.490       -0.774        7.541        4.472        3.864       56.871       19.995       14.929        0.008        0.005        8.492        3.561        0.176      339.384       12.681      868.102
04/27/2013  03:47:00      -10.796        5.269       -9.938        8.399        7.219        4.054       70.550       52.112       16.436        0.019        0.007       12.013        4.271        0.126      339.429       12.758      868.097
04/27/2013  03:48:00      -35.689      -13.331       -2.127       12.863        8.092        5.634      165.459       65.476       31.746        0.086        0.013       38.098        3.806        0.010      339.491       12.860      868.116
04/27/2013  03:49:00      -58.275       -7.580       -4.443        9.262       12.679        6.815       85.794      160.766       46.447        0.188        0.015       58.766        4.088        0.005      339.393       12.696      868.118
04/27/2013  03:50:00      -70.839       -5.639       -9.171       16.067       12.348        8.227      258.159      152.466       67.677        0.281        0.024       71.063        5.070        0.005      339.268       12.484      868.127
04/27/2013  03:51:00      -38.753       -5.998       -5.812       20.419       16.528       12.038      416.920      273.182      144.918        0.120        0.042       39.215       11.990        0.093      339.122       12.238      868.133
04/27/2013  03:52:00      -24.442       -4.589       -1.980       12.407       15.663       10.772      153.930      245.338      116.042        0.057        0.026       24.869        8.062        0.105      339.109       12.216      868.133
04/27/2013  03:53:00      -46.253        4.354       -1.865       11.640       11.376        8.379      135.481      129.422       70.204        0.125        0.017       46.457        5.106        0.012      339.201       12.374      868.129
04/27/2013  03:54:00      -46.358      -13.972       -1.934       11.723       13.615        9.341      137.417      185.380       87.247        0.138        0.021       48.418        2.273        0.002      339.157       12.298      868.136
04/27/2013  03:55:00      -44.544      -13.626       -0.875       12.361       18.343       10.807      152.790      336.482      116.801        0.139        0.030       46.582        8.103        0.030      338.984       12.009      868.141
04/27/2013  03:56:00      -27.936      -10.691        1.848        9.606       13.104        8.991       92.267      171.714       80.844        0.062        0.017       29.912        6.582        0.048      338.995       12.027      868.149
04/27/2013  03:57:00      -28.476       -3.519       -2.699       15.087       16.932        9.201      227.630      286.688       84.656        0.071        0.030       28.692       10.186        0.126      339.078       12.164      868.154
04/27/2013  03:58:00      -52.704       -7.706       -4.234       13.724       10.291        9.817      188.360      105.900       96.367        0.162        0.020       53.265        8.451        0.025      339.068       12.149      868.157
04/27/2013  03:59:00      -33.908       -1.042       -4.669       14.951        9.998       12.396      223.537       99.950      153.663        0.082        0.024       33.924        9.071        0.072      338.940       11.931      868.169
04/27/2013  04:00:00      -41.849       -0.649       -9.197        6.230        4.312        6.528       38.809       18.590       42.615        0.097        0.005       41.854        1.746        0.002      339.217       12.398      868.169
04/27/2013  04:01:00      -36.721      -12.081       -5.002        8.669        9.574        5.852       75.157       91.654       34.244        0.086        0.010       38.657        4.409        0.013      339.332       12.593      868.178
04/27/2013  04:02:00      -39.821       -3.240       -5.467        7.310        6.893        7.820       53.440       47.508       61.148        0.089        0.008       39.952        4.335        0.012      339.233       12.424      868.176
04/27/2013  04:03:00      -32.936       -8.684       -3.174        6.261        6.854        7.202       39.195       46.981       51.868        0.065        0.007       34.062        4.108        0.015      339.110       12.218      868.174
04/27/2013  04:04:00      -36.944       -6.410       -7.133       10.761        5.653        4.535      115.794       31.960       20.565        0.081        0.008       37.496        3.859        0.011      339.117       12.231      868.174
04/27/2013  04:05:00      -55.627      -21.714      -10.136        6.984        7.394        7.106       48.770       54.673       50.500        0.191        0.008       59.715        3.639        0.004      338.920       11.900      868.162
04/27/2013  04:06:00      -67.741      -14.683       -9.241       12.147       11.220       11.149      147.547      125.884      124.302        0.264        0.020       69.314        4.242        0.004      338.834       11.753      868.162
04/27/2013  04:07:00      -79.530       -9.507       -6.893       28.265       18.122       15.076      798.923      328.397      227.294        0.391        0.068       80.096       14.109        0.031      338.821       11.732      868.163
04/27/2013  04:08:00      -91.286      -20.714       -7.699       29.152       22.957       16.228      849.836      527.034      263.352        0.523        0.082       93.607       14.028        0.022      338.767       11.641      868.153
04/27/2013  04:09:00      -93.246      -42.647       -6.853       16.377       21.323       10.240      268.203      454.657      104.858        0.569        0.041      102.536        4.682        0.002      338.781       11.665      868.152
04/27/2013  04:10:00      -77.583      -21.348       -5.986       14.546       14.124       10.513      211.594      199.484      110.525        0.352        0.026       80.467        6.718        0.007      338.793       11.685      868.159
04/27/2013  04:11:00      -81.798       -3.241       -6.733       16.088       15.330       10.648      258.832      235.013      113.381        0.368        0.030       81.862        8.119        0.010      338.716       11.556      868.156
04/27/2013  04:12:00      -78.654       15.873       -9.195       15.009       10.428        7.075      225.261      108.736       50.057        0.345        0.019       80.240        4.399        0.003      338.711       11.549      868.163
04/27/2013  04:13:00      -35.636       32.050       -6.428       18.481       10.659        8.238      341.555      113.609       67.860        0.143        0.026       47.929        4.773        0.010      338.957       11.961      868.161
04/27/2013  04:14:00       -0.446       27.563       -6.115       15.136        7.502        4.761      229.106       56.280       22.664        0.055        0.015       27.567        4.572        0.028      339.144       12.276      868.175
04/27/2013  04:15:00      -53.233       -3.112      -10.936       14.773       21.390        5.771      218.254      457.549       33.301        0.184        0.035       53.324        5.463        0.010      339.111       12.222      868.183
04/27/2013  04:16:00      -49.674      -20.389      -10.921        8.702        7.715        5.644       75.727       59.520       31.857        0.158        0.008       53.695        2.571        0.002      339.013       12.055      868.203
04/27/2013  04:17:00      -27.363      -19.488      -10.966       11.354        8.533        8.973      128.909       72.805       80.506        0.077        0.014       33.594        5.067        0.023      338.969       11.981      868.218
04/27/2013  04:18:00      -54.485      -20.881       -6.281       22.825       12.497       10.328      520.981      156.180      106.674        0.211        0.039       58.349        8.654        0.022      338.832       11.750      868.230
04/27/2013  04:19:00      -71.096      -19.120      -13.765       15.095       14.226        9.308      227.852      202.383       86.639        0.306        0.026       73.622        5.794        0.006      338.663       11.468      868.250
04/27/2013  04:20:00      -82.055      -16.247      -15.056       12.456       10.873       10.263      155.143      118.215      105.325        0.380        0.019       83.648        7.929        0.009      338.585       11.338      868.251
04/27/2013  04:21:00      -72.664      -26.527      -13.865        8.379       11.749        8.062       70.210      138.029       65.004        0.322        0.014       77.355        7.740        0.010      338.639       11.427      868.265
04/27/2013  04:22:00      -92.210       -6.896      -10.949       15.866       22.095       10.956      251.741      488.208      120.039        0.476        0.043       92.468        4.973        0.003      338.665       11.471      868.267
04/27/2013  04:23:00      -67.119        1.001       -8.892       13.705       12.689       12.703      187.837      161.000      161.364        0.255        0.026       67.126       11.099        0.027      338.617       11.390      868.275
04/27/2013  04:24:00      -86.817       -7.281      -14.913       10.199       13.987        9.384      104.010      195.649       88.067        0.410        0.019       87.122        5.048        0.003      338.598       11.357      868.283
04/27/2013  04:25:00      -84.992      -27.365      -15.992       19.652       14.101       12.343      386.204      198.847      152.350        0.448        0.037       89.289        9.727        0.012      338.529       11.242      868.280
04/27/2013  04:26:00     -107.098      -23.479      -15.102       23.130       23.231       14.322      535.010      539.691      205.106        0.676        0.064      109.642       12.129        0.012      338.510       11.209      868.289
04/27/2013  04:27:00      -89.984      -29.942       -3.671       22.385       22.573       15.365      501.075      509.526      236.076        0.513        0.062       94.835       15.317        0.026      338.467       11.139      868.290
04/27/2013  04:28:00      -95.528       -9.246       -8.810       22.266       16.111       14.361      495.775      259.557      206.225        0.512        0.048       95.975        9.970        0.011      338.475       11.152      868.296
04/27/2013  04:29:00     -115.259        0.914      -13.952       13.018       12.033        9.145      169.458      144.785       83.635        0.694        0.020      115.263        5.400        0.002      338.520       11.228      868.304
04/27/2013  04:30:00     -110.588       -6.216      -15.750       32.618       14.686       15.106     1063.944      215.675      228.187        0.701        0.075      110.763       15.834        0.020      338.534       11.251      868.309
04/27/2013  04:31:00     -122.249      -12.276      -11.701       24.193       15.893       15.699      585.323      252.596      246.471        0.816        0.054      122.864       12.585        0.010      338.458       11.125      868.308
04/27/2013  04:32:00     -109.064       -8.404       -8.465       36.359       26.603       18.150     1321.949      707.733      329.434        0.720        0.118      109.387       15.678        0.021      338.408       11.039      868.317
04/27/2013  04:33:00     -112.299       -6.890      -11.210       38.633       34.762       22.329     1492.519     1208.366      498.568        0.799        0.160      112.510       16.203        0.021      338.550       11.277      868.329
04/27/2013  04:34:00     -146.622       -4.925      -12.284       33.032       24.470       16.523     1091.098      598.804      273.007        1.182        0.098      146.704       13.005        0.008      338.635       11.420      868.330
04/27/2013  04:35:00     -152.674       -0.023      -10.488       37.207       22.061       23.427     1384.332      486.667      548.842        1.292        0.121      152.674       22.432        0.022      338.581       11.330      868.328
04/27/2013  04:36:00     -150.952        0.387      -10.294       56.382       34.687       28.997     3178.971     1203.205      840.801        1.406        0.261      150.953       32.642        0.047      338.551       11.280      868.327
04/27/2013  04:37:00     -120.728        1.641       -4.945       54.978       33.896       26.885     3022.530     1148.971      722.788        0.975        0.245      120.739       28.427        0.055      338.500       11.194      868.339
04/27/2013  04:38:00     -107.579        8.512       -2.967       36.184       28.821       24.119     1309.300      830.659      581.737        0.719        0.136      107.916       19.881        0.034      338.465       11.136      868.335
04/27/2013  04:39:00     -159.822       26.933       -8.019       24.391       26.292       16.292      594.904      691.265      265.422        1.394        0.078      162.076       12.218        0.006      338.657       11.457      868.335
04/27/2013  04:40:00     -166.025       39.804       -2.904       21.592       15.413       11.419      466.211      237.551      130.383        1.500        0.042      170.730        9.925        0.003      338.683       11.501      868.334
04/27/2013  04:41:00     -151.555       -4.161      -12.724       36.843       35.783       22.461     1357.387     1280.453      504.485        1.314        0.157      151.613       23.445        0.024      338.606       11.371      868.321
04/27/2013  04:42:00     -137.215       15.973      -10.741       29.435       31.872       19.459      866.430     1015.846      378.671        1.073        0.113      138.141       14.762        0.011      338.593       11.351      868.305
04/27/2013  04:43:00     -115.911        2.686      -16.278       26.808       30.714       18.603      718.687      943.374      346.078        0.786        0.100      115.942       10.521        0.008      338.552       11.281      868.316
04/27/2013  04:44:00     -122.660       -3.910      -11.570       45.501       24.613       21.639     2070.385      605.789      468.242        0.917        0.157      122.723       23.712        0.037      338.530       11.245      868.322
04/27/2013  04:45:00     -170.304       25.836      -12.921       35.582       24.270       20.498     1266.114      589.025      420.182        1.606        0.114      172.252       17.510        0.010      338.505       11.203      868.324
04/27/2013  04:46:00     -169.365        5.199      -13.436       33.694       27.698       19.281     1135.289      767.160      371.762        1.558        0.114      169.445       17.883        0.011      338.563       11.300      868.318
04/27/2013  04:47:00     -203.322      -24.188      -21.057       50.229       35.485       28.318     2522.985     1259.191      801.914        2.348        0.229      204.756       29.998        0.021      338.616       11.386      868.316
04/27/2013  04:48:00     -162.873      -25.791      -13.248       52.930       37.414       21.118     2801.534     1399.797      445.962        1.601        0.232      164.902       20.865        0.016      338.590       11.344      868.317
04/27/2013  04:49:00     -177.634      -11.208      -21.153       34.508       35.601       21.797     1190.806     1267.431      475.121        1.753        0.147      177.987       17.400        0.010      338.597       11.357      868.318
04/27/2013  04:50:00     -143.820      -25.489       -9.388       38.977       32.405       24.696     1519.193     1050.099      609.873        1.230        0.159      146.062       21.404        0.021      338.572       11.315      868.313
04/27/2013  04:51:00     -150.802       13.543      -16.387       43.907       36.075       21.185     1927.800     1301.383      448.797        1.343        0.184      151.409       23.416        0.024      338.704       11.537      868.321
04/27/2013  04:52:00      -87.128      -11.306        0.795       35.984       33.082       24.971     1294.874     1094.391      623.535        0.537        0.151       87.859       21.944        0.062      338.624       11.401      868.328
04/27/2013  04:53:00     -111.904        7.273      -12.477       39.533       29.297       20.787     1562.838      858.327      432.108        0.779        0.143      112.140       19.357        0.030      338.757       11.624      868.326
04/27/2013  04:54:00      -90.777      -14.772        2.423       35.721       34.678       25.462     1275.976     1202.564      648.294        0.580        0.156       91.971       22.253        0.059      338.768       11.643      868.315
04/27/2013  04:55:00     -130.151      -22.382      -10.471       27.242       43.133       18.754      742.100     1860.465      351.713        1.025        0.148      132.062       16.259        0.015      338.751       11.616      868.329
04/27/2013  04:56:00     -129.909        1.055      -15.096       49.156       37.014       23.430     2416.314     1370.021      548.984        1.072        0.217      129.913       18.051        0.019      338.780       11.664      868.331
04/27/2013  04:57:00     -125.611       12.766      -17.287       28.534       20.524       18.871      814.184      421.240      356.106        0.892        0.080      126.258       16.634        0.017      338.772       11.651      868.322
04/27/2013  04:58:00     -115.597       17.512       -5.397       23.855       30.194       12.982      569.060      911.672      168.531        0.767        0.082      116.916       10.383        0.008      338.665       11.471      868.318
04/27/2013  04:59:00     -112.837      -34.492       -4.456       32.374       33.611       16.609     1048.057     1129.727      275.859        0.820        0.123      117.991       16.058        0.019      338.557       11.289      868.316
04/27/2013  05:00:00      -74.753      -46.662        1.927       40.609       30.813       20.806     1649.120      949.426      432.882        0.540        0.152       88.122       20.997        0.057      338.551       11.280      868.320
04/27/2013  05:01:00      -99.901      -74.673       -2.415       35.530       31.682       22.984     1262.409     1003.728      528.259        0.918        0.140      124.724       19.541        0.025      338.619       11.393      868.325
04/27/2013  05:02:00     -109.010      -68.793       -3.615       62.928       34.259       22.531     3959.902     1173.680      507.631        1.113        0.282      128.902       19.974        0.024      338.530       11.244      868.326
04/27/2013  05:03:00      -99.177      -85.605        0.232       46.502       39.912       29.854     2162.467     1592.971      891.273        1.090        0.232      131.013       27.666        0.045      338.474       11.149      868.325
04/27/2013  05:04:00      -94.294      -80.211       -4.411       44.398       36.717       29.293     1971.192     1348.156      858.080        0.976        0.209      123.794       28.985        0.055      338.456       11.118      868.337
04/27/2013  05:05:00      -93.942      -63.807        7.691       45.022       32.983       26.010     2026.965     1087.906      676.498        0.837        0.190      113.563       25.548        0.051      338.505       11.203      868.340
04/27/2013  05:06:00     -105.686      -72.957       -7.035       41.837       25.660       19.507     1750.314      658.452      380.516        0.966        0.139      128.422       19.167        0.022      338.629       11.411      868.341
04/27/2013  05:07:00     -115.272      -54.606       -0.114       33.403       32.656       17.297     1115.767     1066.423      299.190        0.937        0.124      127.552       12.812        0.010      338.623       11.400      868.343
04/27/2013  05:08:00     -132.877      -51.624        6.108       36.353       26.213       23.529     1321.506      687.131      553.623        1.146        0.128      142.553       21.405        0.023      338.730       11.579      868.358
04/27/2013  05:09:00     -131.989      -56.515        2.929       46.437       30.953       18.476     2156.368      958.100      341.360        1.204        0.173      143.580       18.882        0.017      338.860       11.799      868.355
04/27/2013  05:10:00     -127.317      -54.063        2.760       41.190       28.386       21.537     1696.604      805.743      463.844        1.105        0.148      138.320       22.312        0.026      338.890       11.850      868.356
04/27/2013  05:11:00     -113.763      -38.884        0.990       47.999       30.057       18.666     2303.949      903.394      348.424        0.900        0.178      120.225       20.570        0.029      338.900       11.864      868.366
04/27/2013  05:12:00      -98.934      -25.242        3.627       33.366       23.792       19.837     1113.293      566.052      393.522        0.626        0.104      102.104       19.165        0.035      338.883       11.837      868.380
04/27/2013  05:13:00      -93.397      -25.900       -4.611       34.203       27.273       17.302     1169.844      743.817      299.358        0.581        0.111       96.922       14.704        0.023      338.880       11.833      868.373
04/27/2013  05:14:00      -74.406      -34.856        0.957       31.424       23.313       18.033      987.478      543.481      325.201        0.430        0.093       82.165       18.286        0.050      338.864       11.805      868.375
04/27/2013  05:15:00      -93.902      -24.322       -1.958       31.455       16.723       11.288      989.437      279.649      127.430        0.540        0.070       97.001       12.071        0.015      338.769       11.646      868.379
04/27/2013  05:16:00     -103.261      -30.535       -5.908       23.958       15.225       13.949      573.969      231.788      194.587        0.632        0.050      107.681       13.958        0.017      338.656       11.456      868.388
04/27/2013  05:17:00      -99.806      -26.092       -2.025       20.648       20.647       12.961      426.337      426.297      167.981        0.583        0.051      103.160       11.662        0.013      338.612       11.383      868.405
04/27/2013  05:18:00      -80.871       -6.065       -5.043       24.014       15.877       14.211      576.672      252.079      201.942        0.382        0.052       81.098       11.443        0.020      338.483       11.165      868.413
04/27/2013  05:19:00      -84.102       -9.785       -5.370       29.613       18.813       17.232      876.944      353.943      296.932        0.436        0.076       84.669       18.866        0.050      338.407       11.037      868.411
04/27/2013  05:20:00      -51.280      -20.597        5.134       24.679       21.245       15.418      609.033      451.365      237.726        0.219        0.065       55.262       15.227        0.076      338.306       10.867      868.413
04/27/2013  05:21:00      -80.405      -21.750        1.781       26.745       23.788       18.144      715.321      565.846      329.215        0.428        0.081       83.295       15.850        0.036      338.381       10.995      868.411
04/27/2013  05:22:00      -81.282       -9.406       -0.739       28.956       20.327       16.855      838.438      413.170      284.093        0.412        0.077       81.824       17.105        0.044      338.416       11.053      868.408
04/27/2013  05:23:00      -98.190      -26.283       -5.674       22.077       20.049       16.274      487.381      401.949      264.853        0.576        0.058      101.647       13.537        0.018      338.451       11.110      868.400
04/27/2013  05:24:00     -104.599      -30.338       -6.494       27.388       19.313       12.833      750.113      372.976      164.691        0.660        0.064      108.910        5.206        0.002      338.476       11.154      868.392
04/27/2013  05:25:00      -77.464      -35.473       -0.062       31.962       30.633       16.075     1021.572      938.378      258.401        0.474        0.111       85.200       12.661        0.022      338.519       11.226      868.392
04/27/2013  05:26:00      -82.668      -33.746        7.654       35.582       27.674       16.631     1266.055      765.866      276.588        0.517        0.115       89.290       18.506        0.043      338.612       11.381      868.402
04/27/2013  05:27:00      -68.084      -29.023        5.059       41.509       33.727       20.675     1722.973     1137.486      427.452        0.439        0.164       74.012       20.191        0.074      338.566       11.304      868.404
04/27/2013  05:28:00      -97.896      -40.397       -1.172       38.288       21.861       16.092     1465.941      477.903      258.958        0.671        0.110      105.903       10.681        0.010      338.560       11.295      868.402
04/27/2013  05:29:00     -136.461      -41.419        1.164       38.301       31.884       20.082     1466.998     1016.599      403.268        1.161        0.144      142.608       17.917        0.016      338.415       11.051      868.415
04/27/2013  05:30:00     -138.934      -33.108       -4.184       36.349       29.928       21.970     1321.275      895.714      482.661        1.156        0.135      142.824       21.145        0.022      338.319       10.890      868.412
04/27/2013  05:31:00     -159.913      -42.833        2.394       42.163       39.582       26.574     1777.684     1566.724      706.193        1.573        0.203      165.551       21.710        0.017      338.172       10.643      868.407
04/27/2013  05:32:00     -173.695      -70.111        4.543       48.037       43.590       30.282     2307.527     1900.078      917.018        2.011        0.256      187.311       28.637        0.023      338.314       10.880      868.406
04/27/2013  05:33:00     -161.656      -68.048        1.528       41.131       34.774       20.452     1691.764     1209.208      418.299        1.704        0.166      175.394       17.481        0.010      338.414       11.050      868.408
04/27/2013  05:34:00     -139.707      -75.307        1.618       43.104       46.289       23.781     1857.986     2142.663      565.514        1.488        0.228      158.711       22.129        0.019      338.380       10.993      868.410
04/27/2013  05:35:00     -114.755      -82.297        0.693       46.654       34.148       22.317     2176.605     1166.107      498.060        1.189        0.192      141.215       22.931        0.026      338.447       11.104      868.406
04/27/2013  05:36:00      -98.155      -74.338        8.114       52.417       33.389       29.977     2747.545     1114.851      898.616        0.999        0.238      123.128       28.318        0.053      338.477       11.155      868.405
04/27/2013  05:37:00      -90.528      -56.842        2.046       47.720       31.267       21.953     2277.206      977.645      481.946        0.758        0.187      106.894       24.123        0.051      338.445       11.101      868.399
04/27/2013  05:38:00      -83.936      -55.317       -1.636       38.923       29.672       18.889     1515.003      880.419      356.805        0.643        0.138      100.525       20.983        0.044      338.507       11.205      868.409
04/27/2013  05:39:00      -81.027      -10.960        3.543       43.972       31.689       19.729     1933.520     1004.192      389.247        0.501        0.166       81.765       21.932        0.072      338.265       10.798      868.422
04/27/2013  05:40:00      -90.645       -6.433       -2.337       34.284       16.735       13.066     1175.371      280.073      170.728        0.494        0.081       90.873       16.672        0.034      338.162       10.627      868.423
04/27/2013  05:41:00      -73.978      -23.503        2.094       37.817       18.648       15.092     1430.162      347.750      227.775        0.402        0.100       77.621       17.332        0.050      338.354       10.948      868.418
04/27/2013  05:42:00      -46.632        4.600        2.255       26.900       22.837       16.060      723.595      521.510      257.917        0.185        0.075       46.859       16.433        0.123      338.241       10.758      868.441
04/27/2013  05:43:00      -33.204       16.659       -0.562       15.645       19.349       15.899      244.757      374.401      252.774        0.113        0.044       37.149        8.863        0.057      338.146       10.598      868.463
04/27/2013  05:44:00      -50.633        4.737       -6.594       19.017       21.038       14.859      361.648      442.606      220.789        0.183        0.051       50.854       12.667        0.062      338.200       10.690      868.469
04/27/2013  05:45:00      -53.412       27.657       -5.329       15.020       22.531       12.639      225.589      507.636      159.732        0.227        0.045       60.147        7.777        0.017      338.256       10.783      868.485
04/27/2013  05:46:00      -72.033       -3.585       -4.210       12.114       16.199        8.939      146.740      262.398       79.897        0.285        0.024       72.122        4.518        0.004      338.350       10.942      868.485
04/27/2013  05:47:00      -43.535      -17.948        2.370       15.185       12.039        8.912      230.573      144.946       79.418        0.134        0.023       47.090        7.289        0.024      338.267       10.801      868.487
04/27/2013  05:48:00      -52.838       -9.214       -3.408       27.576       11.908       12.170      760.418      141.792      148.105        0.197        0.053       53.636       13.844        0.067      338.306       10.869      868.482
04/27/2013  05:49:00      -99.719      -14.399       -7.879       43.006       16.284       15.755     1849.546      265.175      248.222        0.629        0.118      100.753       19.452        0.037      338.242       10.760      868.476
04/27/2013  05:50:00     -108.121      -33.754        2.001       47.213       23.777       18.447     2229.103      565.365      340.302        0.798        0.157      113.268       20.083        0.031      338.286       10.835      868.482
04/27/2013  05:51:00      -92.425      -61.077        3.790       53.501       37.184       23.263     2862.346     1382.623      541.188        0.854        0.239      110.783       18.470        0.028      338.384       11.000      868.489
04/27/2013  05:52:00      -97.787      -71.353        5.405       54.595       42.371       30.590     2980.654     1795.296      935.743        1.020        0.286      121.052       26.816        0.049      338.325       10.900      868.506
04/27/2013  05:53:00     -100.444     -102.522        6.193       46.469       39.123       30.404     2159.363     1530.577      924.405        1.263        0.231      143.526       28.339        0.039      338.358       10.954      868.503
04/27/2013  05:54:00     -104.269      -69.796       -0.950       45.316       49.800       25.747     2053.504     2480.083      662.886        1.047        0.260      125.473       15.724        0.016      338.341       10.927      868.501
04/27/2013  05:55:00      -74.841      -53.740        2.614       57.100       29.383       26.245     3260.356      863.343      688.815        0.665        0.241       92.137       29.920        0.105      338.336       10.919      868.496
04/27/2013  05:56:00     -109.241      -24.469        1.743       42.230       43.326       23.903     1783.392     1877.113      571.352        0.838        0.212      111.948       25.192        0.051      338.291       10.843      868.490
04/27/2013  05:57:00     -108.803      -27.463       -1.054       36.386       29.531       16.229     1323.954      872.061      263.369        0.753        0.123      112.215       17.600        0.025      338.353       10.947      868.501
04/27/2013  05:58:00      -62.099      -24.111        4.519       26.748       25.226       15.352      715.458      636.363      235.688        0.302        0.079       66.616       16.386        0.061      338.306       10.867      868.510
04/27/2013  05:59:00      -61.099      -30.900        0.400       24.979       24.607       13.523      623.963      605.519      182.873        0.305        0.071       68.468       12.712        0.034      338.403       11.032      868.519
04/27/2013  06:00:00      -87.012      -31.379       -5.684       18.195       20.505       12.119      331.072      420.456      146.858        0.474        0.045       92.497       11.937        0.017      338.526       11.236      868.529
04/27/2013  06:01:00      -36.581      -19.663        9.641       35.743       16.477       15.205     1277.527      271.484      231.178        0.180        0.089       41.531        2.713        0.004      338.500       11.194      868.540
04/27/2013  06:02:00      -17.094      -17.779        7.477       23.178       19.562       16.829      537.203      382.671      283.223        0.093        0.060       24.663       12.507        0.257      338.505       11.202      868.547
04/27/2013  06:03:00      -61.357      -63.088       -2.388       42.095       38.400       19.762     1771.971     1474.552      390.545        0.569        0.182       88.005       15.703        0.032      338.463       11.132      868.557
04/27/2013  06:04:00      -92.975      -59.088       -2.497       57.619       34.043       27.644     3320.006     1158.959      764.179        0.869        0.262      110.162       30.090        0.075      338.421       11.061      868.555
04/27/2013  06:05:00      -91.364      -67.099        4.294       54.295       28.727       23.247     2947.928      825.232      540.420        0.859        0.216      113.356       21.332        0.035      338.485       11.167      868.550
04/27/2013  06:06:00      -93.969      -62.885       10.438       53.244       39.565       28.407     2834.876     1565.363      806.950        0.905        0.260      113.069       27.617        0.060      338.499       11.192      868.552
04/27/2013  06:07:00      -75.565      -82.382        2.048       56.995       57.810       31.043     3248.387     3341.972      963.661        1.003        0.378      111.789       33.365        0.089      338.491       11.178      868.562
04/27/2013  06:08:00     -121.677      -97.949       -2.276       60.099       55.258       31.423     3611.873     3053.482      987.397        1.603        0.383      156.203       23.181        0.022      338.461       11.127      868.577
04/27/2013  06:09:00     -126.677     -122.076      -11.198       58.723       46.181       36.146     3448.342     2132.704     1306.548        1.898        0.344      175.925       34.185        0.038      338.391       11.008      868.579
04/27/2013  06:10:00     -147.398     -117.095      -12.219       49.926       34.169       29.657     2492.632     1167.502      879.532        2.006        0.227      188.248       25.757        0.019      338.354       10.947      868.584
04/27/2013  06:11:00     -159.624     -103.605      -13.291       43.983       41.469       28.306     1934.529     1719.697      801.247        2.042        0.223      190.299       21.754        0.013      338.288       10.836      868.585
04/27/2013  06:12:00     -138.784     -110.929        8.847       52.713       59.251       39.694     2778.634     3510.628     1575.638        1.975        0.393      177.669       35.936        0.041      338.278       10.818      868.591
04/27/2013  06:13:00     -108.227      -92.103       -1.361       52.616       43.345       28.588     2768.436     1878.786      817.274        1.283        0.273      142.113       30.005        0.045      338.269       10.806      868.606
04/27/2013  06:14:00     -123.709      -96.123       -6.160       44.433       34.644       25.918     1974.320     1200.192      671.751        1.421        0.192      156.664       26.292        0.028      338.244       10.762      868.609
04/27/2013  06:15:00      -92.758      -84.617      -10.406       43.153       36.073       22.349     1862.150     1301.264      499.487        0.977        0.183      125.555       16.658        0.018      338.267       10.803      868.620
04/27/2013  06:16:00      -81.243      -48.163       -5.354       37.694       24.541       18.886     1420.825      602.264      356.667        0.566        0.119       94.447       11.390        0.015      338.253       10.779      868.620
04/27/2013  06:17:00      -50.409      -52.695       14.739       52.432       44.012       23.194     2749.102     1937.053      537.952        0.538        0.261       72.924       27.806        0.145      338.170       10.640      868.616
04/27/2013  06:18:00      -50.111      -34.064        3.059       42.903       26.289       17.536     1840.643      691.127      307.529        0.326        0.142       60.592       21.164        0.122      338.167       10.635      868.615
04/27/2013  06:19:00      -75.637      -63.462       -0.381       39.209       45.704       23.871     1537.329     2088.875      569.838        0.697        0.210       98.734       18.982        0.037      338.163       10.628      868.613
04/27/2013  06:20:00     -100.517     -108.257        0.241       69.165       57.160       38.957     4783.787     3267.302     1517.639        1.569        0.478      147.726       42.199        0.082      338.118       10.551      868.615
04/27/2013  06:21:00     -116.143      -77.233        2.610       53.955       47.397       27.374     2911.099     2246.441      749.340        1.268        0.295      139.478       23.400        0.028      338.079       10.488      868.612
04/27/2013  06:22:00     -115.001     -107.130        2.972       86.499       53.786       40.287     7482.055     2892.929     1623.034        1.835        0.600      157.169       46.034        0.086      338.043       10.426      868.611
04/27/2013  06:23:00     -139.488      -99.845       -8.055       57.019       39.846       29.525     3251.139     1587.718      871.723        1.760        0.286      171.540       22.851        0.018      338.025       10.395      868.609
04/27/2013  06:24:00      -90.159      -95.941       -8.786       47.770       41.446       23.428     2281.957     1717.761      548.875        1.098        0.227      131.656       19.286        0.021      338.102       10.524      868.611
04/27/2013  06:25:00      -78.877      -60.231        0.678       56.520       48.780       30.211     3194.511     2379.449      912.727        0.817        0.324       99.244       31.327        0.100      338.102       10.526      868.621
04/27/2013  06:26:00      -58.579      -72.006        1.760       41.040       31.214       21.933     1684.252      974.334      481.060        0.588        0.157       92.825       20.979        0.051      338.106       10.532      868.632
04/27/2013  06:27:00      -86.839      -74.364        2.352       54.118       37.795       22.658     2928.773     1428.431      513.405        0.897        0.244      114.329       25.308        0.049      338.083       10.494      868.632
04/27/2013  06:28:00     -115.295      -72.960       -4.713       48.593       36.163       26.247     2361.320     1307.738      688.912        1.150        0.218      136.441       24.262        0.032      338.079       10.487      868.636
04/27/2013  06:29:00      -65.561      -65.716        2.655       43.094       29.142       24.162     1857.074      849.268      583.804        0.596        0.165       92.827       22.965        0.061      338.091       10.507      868.639
04/27/2013  06:30:00      -81.752      -71.036       -4.301       43.113       29.688       20.733     1858.735      881.351      429.869        0.746        0.158      108.303       21.117        0.038      338.097       10.516      868.638
04/27/2013  06:31:00      -52.774      -79.279        3.961       46.449       35.402       26.509     2157.551     1253.283      702.703        0.660        0.206       95.237       29.679        0.097      338.130       10.572      868.636
04/27/2013  06:32:00      -62.281      -63.994       -1.647       39.783       41.320       26.348     1582.654     1707.346      694.240        0.598        0.199       89.298       26.344        0.087      338.080       10.489      868.639
04/27/2013  06:33:00      -74.292      -58.953       -7.756       30.966       23.077       20.445      958.886      532.549      417.988        0.548        0.095       94.840        6.007        0.004      338.078       10.484      868.640
04/27/2013  06:34:00      -79.715      -72.866       -7.030       38.196       38.316       18.231     1458.915     1468.132      332.386        0.749        0.163      108.000       19.330        0.032      338.076       10.481      868.644
04/27/2013  06:35:00      -75.259      -62.709       -6.944       23.950       19.094       14.415      573.607      364.563      207.801        0.540        0.057       97.961        7.922        0.007      338.074       10.479      868.652
04/27/2013  06:36:00      -19.766      -35.571        8.797       23.580       19.996       17.076      556.009      399.822      291.574        0.149        0.062       40.694       11.042        0.074      338.156       10.616      868.664
04/27/2013  06:37:00      -55.208      -73.607        2.341       39.647       28.771       28.467     1571.918      827.789      810.369        0.584        0.161       92.010       21.539        0.055      338.130       10.571      868.672
04/27/2013  06:38:00      -75.589      -71.412       -5.356       52.308       29.271       22.445     2736.179      856.769      503.782        0.747        0.205      103.987       24.862        0.057      338.066       10.465      868.681
04/27/2013  06:39:00      -27.353      -41.150        8.830       32.190       27.514       18.657     1036.172      757.020      348.092        0.233        0.107       49.411        6.651        0.018      338.191       10.676      868.672
04/27/2013  06:40:00      -11.655      -45.667       12.992       32.537       38.960       20.313     1058.687     1517.912      412.634        0.269        0.149       47.131       16.394        0.121      338.210       10.707      868.673
04/27/2013  06:41:00      -43.797      -69.289        3.591       51.381       50.313       24.839     2640.057     2531.403      616.974        0.626        0.289       81.970       20.418        0.062      338.182       10.659      868.673
04/27/2013  06:42:00      -56.598      -62.869        7.856       57.026       42.296       21.581     3251.980     1788.929      465.731        0.636        0.275       84.592       11.926        0.020      338.152       10.609      868.671
04/27/2013  06:43:00      -86.965      -63.360       10.432       42.457       49.563       25.595     1802.597     2456.510      655.126        0.830        0.246      107.599       22.937        0.045      338.138       10.585      868.677
04/27/2013  06:44:00      -66.047      -58.860        0.915       57.902       42.427       26.523     3352.612     1800.012      703.467        0.684        0.293       88.469       25.238        0.081      338.152       10.609      868.679
04/27/2013  06:45:00      -55.695      -36.498        1.260       50.948       33.815       26.137     2595.707     1143.476      683.120        0.443        0.221       66.589       26.726        0.161      338.174       10.646      868.694
04/27/2013  06:46:00      -86.909      -72.845       -1.574       45.900       34.561       24.967     2106.813     1194.442      623.366        0.839        0.196      113.400       19.839        0.031      338.186       10.666      868.694
04/27/2013  06:47:00     -106.615      -85.978       -2.731       40.030       29.586       21.866     1602.375      875.348      478.104        1.086        0.148      136.964       24.315        0.032      338.194       10.680      868.701
04/27/2013  06:48:00      -76.062      -71.213       -3.002       45.337       30.488       18.392     2055.441      929.493      338.256        0.709        0.166      104.195       20.627        0.039      338.230       10.741      868.699
04/27/2013  06:49:00      -80.977      -59.962        0.620       54.620       27.911       24.404     2983.338      779.003      595.542        0.725        0.218      100.761       26.204        0.068      338.291       10.844      868.701
04/27/2013  06:50:00      -95.961      -69.329       -4.599       39.327       32.798       18.204     1546.604     1075.694      331.399        0.849        0.148      118.385       15.038        0.016      338.261       10.792      868.711
04/27/2013  06:51:00      -99.035      -35.040       -3.097       27.173       30.116       16.619      738.364      906.997      276.201        0.648        0.096      105.051       13.910        0.018      338.281       10.826      868.727
04/27/2013  06:52:00      -45.335      -29.121        3.856       29.324       15.903       14.123      859.904      252.914      199.451        0.211        0.066       53.882       12.357        0.053      338.390       11.008      868.745
04/27/2013  06:53:00      -61.099      -69.222       -4.105       35.000       29.601       14.299     1225.008      876.214      204.460        0.542        0.115       92.329       12.615        0.019      338.384       10.999      868.760
04/27/2013  06:54:00      -37.008      -59.612       -1.258       22.648       21.354       16.171      512.939      455.984      261.506        0.308        0.062       70.166       11.730        0.028      338.416       11.054      868.778
04/27/2013  06:55:00      -56.275      -44.127       -0.450       36.458       22.118       15.017     1329.193      489.212      225.515        0.358        0.102       71.513       17.352        0.059      338.438       11.091      868.791
04/27/2013  06:56:00      -74.930      -52.155       -1.278       32.925       27.801       15.113     1084.048      772.881      228.401        0.521        0.104       91.294       18.115        0.039      338.433       11.081      868.774
04/27/2013  06:57:00      -74.111      -45.544       -0.080       47.205       26.739       23.299     2228.328      714.963      542.860        0.553        0.174       86.987       25.225        0.084      338.421       11.060      868.789
04/27/2013  06:58:00      -43.308      -39.032        7.071       38.093       33.162       20.802     1451.060     1099.707      432.742        0.322        0.149       58.302       19.610        0.113      338.559       11.293      868.789
04/27/2013  06:59:00      -75.547      -47.983        2.673       42.163       26.708       17.079     1777.689      713.318      291.685        0.540        0.139       89.497       18.304        0.042      338.500       11.195      868.787
04/27/2013  07:00:00     -100.995      -56.424        3.529       27.725       25.865       16.480      768.656      669.022      271.606        0.755        0.085      115.688       12.472        0.012      338.439       11.091      868.806
04/27/2013  07:01:00      -80.244      -64.158        0.972       26.000       18.108       21.186      675.989      327.904      448.868        0.600        0.073      102.739       17.781        0.030      338.431       11.078      868.804
04/27/2013  07:02:00      -76.738      -65.864       -3.553       44.166       35.793       16.289     1950.614     1281.170      265.323        0.687        0.175      101.128       20.520        0.041      338.481       11.162      868.801
04/27/2013  07:03:00     -113.489      -90.483      -14.128       22.257       20.897       14.718      495.389      436.672      216.626        1.121        0.057      145.144       11.846        0.007      338.485       11.171      868.798
04/27/2013  07:04:00      -63.828      -34.076       -0.588       18.069       18.813       12.025      326.481      353.924      144.603        0.303        0.041       72.354        6.288        0.008      338.539       11.261      868.790
04/27/2013  07:05:00      -83.517      -59.453       -1.182       20.141       22.391       16.703      405.676      501.376      278.988        0.585        0.059      102.517       12.300        0.014      338.586       11.339      868.788
04/27/2013  07:06:00      -76.112      -85.509       -4.535       32.839       31.027       22.506     1078.370      962.649      506.523        0.784        0.127      114.476       20.098        0.031      338.572       11.315      868.795
04/27/2013  07:07:00      -60.890      -44.421       -6.181       25.226       25.282       13.336      636.332      639.167      177.858        0.359        0.073       75.371       10.502        0.019      338.596       11.356      868.794
04/27/2013  07:08:00      -35.733      -71.315       -3.000       33.808       36.385       19.210     1142.993     1323.899      369.009        0.460        0.142       79.766       19.183        0.058      338.657       11.459      868.805
04/27/2013  07:09:00      -69.979      -55.925      -11.057       34.168       22.605       20.258     1167.469      510.991      410.402        0.512        0.104       89.581       20.816        0.054      338.667       11.472      868.823
04/27/2013  07:10:00      -90.770      -75.070      -11.939       33.084       37.630       15.838     1094.582     1415.987      250.842        0.839        0.138      117.791       19.348        0.027      338.656       11.456      868.828
04/27/2013  07:11:00      -59.111      -66.477       -6.012       30.684       42.737       23.118      941.506     1826.418      534.463        0.563        0.165       88.957        8.683        0.010      338.654       11.452      868.825
04/27/2013  07:12:00      -59.114      -44.272       -1.276       39.785       33.569       20.695     1582.858     1126.908      428.282        0.430        0.157       73.854       22.727        0.095      338.668       11.475      868.832
04/27/2013  07:13:00      -51.023      -77.945       -1.139       44.014       38.864       25.421     1937.270     1510.384      646.204        0.639        0.205       93.160       20.146        0.047      338.660       11.460      868.829
04/27/2013  07:14:00      -39.976      -44.509        6.420       45.312       40.350       25.180     2053.219     1628.157      634.031        0.397        0.216       59.826       20.908        0.122      338.745       11.605      868.834
04/27/2013  07:15:00      -58.052      -63.395       -7.273       50.908       37.815       29.595     2591.635     1429.991      875.841        0.617        0.245       85.959       28.370        0.109      338.697       11.525      868.838
04/27/2013  07:16:00      -18.936      -29.007       17.009       32.866       36.337       23.799     1080.152     1320.377      566.394        0.223        0.148       34.641       12.664        0.134      338.894       11.855      868.839
04/27/2013  07:17:00      -65.412      -82.807       -4.889       25.529       26.972       15.718      651.734      727.509      247.041        0.639        0.081      105.526        8.860        0.007      338.740       11.598      868.840
04/27/2013  07:18:00      -64.611      -62.882        0.009       41.589       26.624       22.496     1729.655      708.817      506.092        0.554        0.147       90.159       18.339        0.041      338.771       11.650      868.850
04/27/2013  07:19:00      -90.831      -88.664       -6.532       30.112       24.892       19.939      906.722      619.636      397.575        0.904        0.096      126.931       20.326        0.026      338.779       11.662      868.852
04/27/2013  07:20:00     -101.631      -67.866      -11.921       18.022       20.169       13.930      324.779      406.789      194.051        0.800        0.046      122.208        9.682        0.006      338.765       11.639      868.848
04/27/2013  07:21:00      -91.358      -65.113      -12.428       18.971       30.879       10.364      359.881      953.524      107.403        0.708        0.071      112.187        5.257        0.002      338.807       11.709      868.856
04/27/2013  07:22:00      -64.184      -51.883        2.082       48.248       39.017       23.072     2327.909     1522.304      532.323        0.560        0.219       82.531       26.792        0.105      338.888       11.845      868.864
04/27/2013  07:23:00      -88.173      -63.361       -8.446       25.006       31.063       17.543      625.283      964.910      307.767        0.688        0.095      108.578       15.876        0.021      338.840       11.765      868.868
04/27/2013  07:24:00      -90.638      -73.558       -3.003       33.428       30.700       24.507     1117.440      942.510      600.599        0.815        0.133      116.730       24.301        0.043      338.886       11.842      868.867
04/27/2013  07:25:00      -81.718      -51.730        3.230       33.193       39.930       18.881     1101.769     1594.432      356.475        0.621        0.153       96.715       23.695        0.060      338.914       11.889      868.878
04/27/2013  07:26:00      -52.555      -53.855        1.337       37.385       35.107       20.446     1397.635     1232.498      418.043        0.436        0.152       75.249       24.020        0.102      338.939       11.931      868.879
04/27/2013  07:27:00      -88.896      -66.964       -8.276       15.864       17.572       13.283      251.667      308.776      176.431        0.660        0.037      111.295        6.753        0.004      338.936       11.926      868.887
04/27/2013  07:28:00      -52.463      -42.866       -0.500       23.687       16.650       14.648      561.071      277.212      214.568        0.282        0.053       67.749       11.386        0.028      338.964       11.974      868.895
04/27/2013  07:29:00      -79.242      -57.016       -1.273       27.684       24.821       17.934      766.420      616.084      321.611        0.562        0.085       97.622       14.810        0.023      339.009       12.048      868.893
04/27/2013  07:30:00      -92.017      -67.524       -8.366       23.635       17.096       17.888      558.625      292.288      319.983        0.713        0.059      114.135       15.545        0.019      339.043       12.105      868.895
04/27/2013  07:31:00      -97.975      -61.734       -5.227       13.120       16.670       14.884      172.144      277.880      221.521        0.705        0.034      115.803        8.462        0.005      339.093       12.188      868.892
04/27/2013  07:32:00      -88.548      -48.063       -3.888       29.515       18.753       14.239      871.119      351.676      202.747        0.580        0.071      100.751       14.289        0.020      339.054       12.125      868.889
04/27/2013  07:33:00      -27.941      -36.957        8.543       26.443       29.916       16.405      699.209      894.971      269.129        0.204        0.093       46.331        9.751        0.044      339.204       12.377      868.901
04/27/2013  07:34:00      -50.606      -71.412        6.169       39.273       37.170       21.440     1542.344     1381.601      459.652        0.554        0.169       87.525       28.462        0.106      339.238       12.433      868.902
04/27/2013  07:35:00      -54.862      -71.657       -5.587       17.853       24.092       13.876      318.737      580.412      192.545        0.463        0.055       90.247       14.260        0.025      339.158       12.300      868.907
04/27/2013  07:36:00      -72.367      -59.757      -11.644       20.008       17.265       10.798      400.321      298.075      116.603        0.488        0.041       93.850        5.684        0.004      339.193       12.359      868.911
04/27/2013  07:37:00      -39.389      -63.923       -8.175       19.709       13.797       13.449      388.457      190.354      180.881        0.323        0.038       75.084       13.386        0.032      339.189       12.353      868.918
04/27/2013  07:38:00      -16.891      -38.423       -8.117        9.734       21.269       11.532       94.743      452.362      132.976        0.125        0.034       41.972        7.940        0.036      339.315       12.564      868.919
04/27/2013  07:39:00      -37.896      -36.600       -7.644       19.899       15.526       15.984      395.955      241.065      255.500        0.186        0.045       52.684       12.881        0.060      339.309       12.552      868.920
04/27/2013  07:40:00      -37.220      -17.029      -21.634       21.810       17.812       11.907      475.697      317.250      141.771        0.154        0.047       40.930        8.379        0.042      339.381       12.674      868.927
04/27/2013  07:41:00      -63.822        8.960      -12.218       11.867       15.326       10.901      140.832      234.874      118.836        0.240        0.025       64.448        5.567        0.007      339.315       12.561      868.938
04/27/2013  07:42:00      -58.745       -3.742       -6.685       18.688       14.037       10.376      349.229      197.045      107.667        0.208        0.033       58.864        8.026        0.019      339.344       12.612      868.950
04/27/2013  07:43:00      -22.768       19.321        1.371       14.419       20.930       14.529      207.909      438.046      211.106        0.088        0.043       29.861        9.676        0.105      339.669       13.162      868.952
04/27/2013  07:44:00      -13.393       25.925        9.052       19.535       17.886       18.018      381.599      319.909      324.635        0.098        0.051       29.180        9.211        0.100      339.902       13.554      868.956
04/27/2013  07:45:00      -18.222        5.348        9.295       16.020       29.738       15.388      256.651      884.371      236.796        0.091        0.069       18.990       16.598        0.764      339.744       13.286      868.954
04/27/2013  07:46:00      -20.838      -18.563        3.988       17.225       14.147        8.442      296.711      200.138       71.270        0.068        0.028       27.907        5.836        0.044      339.695       13.205      868.956
04/27/2013  07:47:00      -50.686      -11.718       -2.939       18.026       18.453       11.382      324.933      340.530      129.559        0.175        0.040       52.023       11.100        0.046      339.548       12.956      868.963
04/27/2013  07:48:00      -46.556      -41.760       -5.168       28.524       22.457       10.717      813.635      504.303      114.857        0.269        0.072       62.540       12.086        0.037      339.591       13.030      868.967
04/27/2013  07:49:00      -60.666      -52.768       -9.425       20.210       23.913       14.798      408.437      571.825      218.981        0.388        0.060       80.404        8.119        0.010      339.552       12.963      868.969
04/27/2013  07:50:00      -43.500      -49.383       -0.881       29.962       22.790       15.603      897.743      519.382      243.457        0.300        0.083       65.810       15.189        0.053      339.577       13.006      868.978
04/27/2013  07:51:00      -53.989      -31.658        0.109       16.464       14.912       11.946      271.070      222.381      142.708        0.228        0.032       62.586        6.489        0.011      339.638       13.108      868.988
04/27/2013  07:52:00      -46.962      -28.606       -6.054       14.957       16.384        7.740      223.707      268.448       59.901        0.181        0.028       54.989        5.649        0.011      339.659       13.145      868.999
04/27/2013  07:53:00      -35.362      -19.453       -7.438       18.832       17.987        9.335      354.650      323.528       87.135        0.122        0.038       40.359        8.981        0.050      339.656       13.139      869.011
04/27/2013  07:54:00      -48.318      -17.164      -11.667       11.337       25.235        8.395      128.538      636.795       70.472        0.180        0.042       51.276       10.089        0.039      339.630       13.096      869.020
04/27/2013  07:55:00      -27.970      -10.774       -6.892       11.500       13.795        7.997      132.254      190.310       63.949        0.067        0.019       29.973        8.855        0.087      339.732       13.268      869.029
04/27/2013  07:56:00      -28.218       -2.814       -5.789        6.030        8.233        4.666       36.363       67.781       21.770        0.048        0.006       28.358        2.479        0.008      339.757       13.310      869.031
04/27/2013  07:57:00      -33.959      -11.107       -2.692       18.340       13.356        8.200      336.358      178.393       67.244        0.093        0.029       35.729        3.812        0.011      339.861       13.486      869.036
04/27/2013  07:58:00      -17.608      -23.160       -4.779       14.109       11.898        7.292      199.069      141.555       53.174        0.063        0.020       29.094        7.331        0.063      339.849       13.465      869.049
04/27/2013  07:59:00      -11.947       -7.420       -0.272        8.039        8.015        9.689       64.627       64.234       93.875        0.021        0.011       14.064        6.612        0.221      340.095       13.879      869.065
04/27/2013  08:00:00      -27.117       14.471       18.555       11.808       15.871       23.054      139.418      251.895      531.505        0.111        0.046       30.736       14.276        0.216      340.351       14.315      869.077
04/27/2013  08:01:00      -27.996        9.209       12.057       19.219       15.868       14.826      369.354      251.785      219.805        0.093        0.042       29.471       12.645        0.184      340.233       14.112      869.082
04/27/2013  08:02:00        0.824       20.862       37.662       18.400       20.677       17.427      338.570      427.532      303.693        0.146        0.053       20.879        9.782        0.219      340.766       15.014      869.085
04/27/2013  08:03:00        4.929      -15.908       10.433       18.615       27.160       23.088      346.519      737.641      533.077        0.100        0.081       16.654       15.240        0.837      340.510       14.579      869.090
04/27/2013  08:04:00       -1.697      -13.000       18.786       16.962       39.973       25.206      287.715     1597.864      635.338        0.152        0.126       13.111       25.625        3.820      340.466       14.507      869.086
04/27/2013  08:05:00      -15.307       -4.067       15.414       14.078       11.396       15.193      198.200      129.879      230.824        0.052        0.028       15.838       10.451        0.435      340.743       14.975      869.087
04/27/2013  08:06:00        1.711      -20.642        9.717       17.281       21.677       22.578      298.638      469.882      509.768        0.090        0.064       20.713       12.847        0.385      340.381       14.362      869.094
04/27/2013  08:07:00       16.141        3.591       27.987       20.186       29.576       19.172      407.471      874.762      367.566        0.135        0.082       16.535       10.527        0.405      340.506       14.571      869.089
04/27/2013  08:08:00        1.270      -48.014        3.801       35.547       45.936       30.340     1263.600     2110.107      920.539        0.331        0.215       48.031       22.565        0.221      340.191       14.042      869.086
04/27/2013  08:09:00       69.312       24.067       23.318       67.537       64.030       34.883     4561.183     4099.879     1216.798        0.790        0.494       73.371       28.509        0.151      340.219       14.089      869.082
04/27/2013  08:10:00       57.615       78.794        2.864       42.938       42.664       32.839     1843.698     1820.217     1078.432        0.714        0.237       97.611       25.963        0.071      340.073       13.842      869.077
04/27/2013  08:11:00       37.452       36.403       34.455       57.980       31.505       25.240     3361.695      992.542      637.056        0.445        0.250       52.228       21.018        0.162      340.552       14.652      869.076
04/27/2013  08:12:00      107.712       66.018        1.757       49.284       31.854       31.368     2428.943     1014.658      983.948        1.019        0.221      126.333       24.171        0.037      340.137       13.951      869.065
04/27/2013  08:13:00      104.955       64.650       22.609       43.780       26.605       35.001     1916.714      707.801     1225.104        0.978        0.192      123.269       17.297        0.020      340.205       14.066      869.057
04/27/2013  08:14:00       80.705       37.736        1.123       36.888       27.275       25.660     1360.728      743.936      658.421        0.535        0.138       89.092       11.541        0.017      340.457       14.490      869.058
04/27/2013  08:15:00       85.063       76.635       -2.009       48.928       31.695       27.589     2393.987     1004.556      761.144        0.864        0.208      114.493       14.905        0.017      340.146       13.965      869.053
04/27/2013  08:16:00       55.199       38.323       13.478       24.548       18.954       23.316      602.622      359.247      543.628        0.310        0.075       67.198       10.387        0.024      340.521       14.600      869.051
04/27/2013  08:17:00       71.892       58.143        6.865       25.349       23.133       21.835      642.565      535.122      476.760        0.513        0.083       92.461       15.053        0.027      340.334       14.282      869.047
04/27/2013  08:18:00       50.411       64.595        4.031       22.740       19.987       29.418      517.130      399.478      865.446        0.426        0.089       81.938       18.335        0.050      340.121       13.924      869.060
04/27/2013  08:19:00       36.941       15.732        2.992       26.258       28.388       23.759      689.482      805.891      564.469        0.184        0.103       40.152       15.027        0.140      340.469       14.511      869.060
04/27/2013  08:20:00       77.681       51.607        5.278       44.260       32.040       28.765     1958.936     1026.545      827.440        0.627        0.191       93.262       26.521        0.081      340.645       14.807      869.064
04/27/2013  08:21:00       85.694       57.723       10.957       34.678       30.049       30.351     1202.596      902.927      921.200        0.691        0.151      103.322       13.739        0.018      340.437       14.457      869.074
04/27/2013  08:22:00       59.377       51.859       -0.291       52.688       29.882       31.064     2776.057      892.913      964.979        0.542        0.232       78.835       13.560        0.030      340.462       14.498      869.080
04/27/2013  08:23:00        2.780       -5.305       -4.474       21.684       44.090       27.996      470.209     1943.960      783.779        0.163        0.160        5.990       24.476       16.699      340.960       15.342      869.092
04/27/2013  08:24:00       10.267       -6.060       12.466       26.509       30.915       21.607      702.730      955.710      466.884        0.121        0.106       11.922       13.841        1.348      341.086       15.555      869.096
04/27/2013  08:25:00       13.353      -18.560       12.590       25.644       39.311       22.542      657.613     1545.316      508.120        0.170        0.136       22.865       16.479        0.519      340.611       14.751      869.093
04/27/2013  08:26:00       39.853       27.706       17.554       51.208       39.237       29.670     2622.304     1539.529      880.307        0.385        0.252       48.538       15.560        0.103      340.803       15.076      869.097
04/27/2013  08:27:00       35.380       49.601       55.777       56.546       41.922       33.150     3197.445     1757.425     1098.906        0.644        0.303       60.926       28.158        0.214      341.116       15.606      869.100
04/27/2013  08:28:00       61.221       55.440        1.774       28.119       23.323       20.484      790.703      543.984      419.598        0.429        0.088       82.593       19.878        0.058      340.527       14.610      869.103
04/27/2013  08:29:00       32.286       27.116       30.623       23.640       25.095       27.292      558.854      629.750      744.832        0.232        0.097       42.163       21.241        0.254      340.862       15.175      869.102
04/27/2013  08:30:00       15.595       31.287       28.025       16.816       20.954       22.351      282.792      439.060      499.582        0.161        0.061       34.958        9.950        0.081      340.863       15.178      869.100
04/27/2013  08:31:00      -15.202       50.396       12.348       21.427       26.602       24.434      459.111      707.647      597.015        0.234        0.088       52.639       19.190        0.133      340.935       15.300      869.107
04/27/2013  08:32:00       -0.811        9.744       24.046       19.067       22.199       16.990      363.537      492.818      288.674        0.091        0.057        9.778        9.826        1.010      341.415       16.112      869.096
04/27/2013  08:33:00      -11.047       32.107        6.497       20.345       29.752       26.578      413.907      885.177      706.372        0.160        0.100       33.955       19.248        0.321      341.245       15.825      869.088
04/27/2013  08:34:00       -0.499       29.142       25.447       31.533       44.017       26.218      994.308     1937.520      687.399        0.256        0.181       29.146       25.457        0.763      341.139       15.644      869.078
04/27/2013  08:35:00        5.208        1.726       34.490       23.854       14.663       14.229      569.010      214.994      202.459        0.110        0.049        5.487        6.674        1.479      341.576       16.386      869.071
04/27/2013  08:36:00       46.261       35.119       15.958       27.065       17.657       23.150      732.502      311.786      535.913        0.260        0.079       58.081        4.844        0.007      341.013       15.432      869.070
04/27/2013  08:37:00       57.638       33.083        3.434       19.617       18.301       18.363      384.846      334.927      337.186        0.274        0.053       66.458       11.263        0.029      340.777       15.032      869.060
04/27/2013  08:38:00       22.401       37.946        5.507       35.033       30.190       31.165     1227.309      911.449      971.250        0.254        0.156       44.065       22.733        0.266      341.149       15.661      869.056
04/27/2013  08:39:00        6.160       24.452       12.656       17.679       35.696       29.823      312.563     1274.175      889.420        0.164        0.124       25.216       21.746        0.744      341.451       16.174      869.055
04/27/2013  08:40:00       55.457       43.066       11.802       32.184       23.104       26.440     1035.789      533.817      699.052        0.367        0.113       70.215       11.923        0.029      340.946       15.319      869.049
04/27/2013  08:41:00        5.257       27.709       18.549       40.942       28.835       22.223     1676.284      831.475      493.840        0.207        0.150       28.203       15.790        0.313      341.435       16.147      869.039
04/27/2013  08:42:00       61.083       53.139       17.206       37.284       30.223       27.110     1390.119      913.437      734.936        0.494        0.152       80.962       19.173        0.056      341.449       16.169      869.036
04/27/2013  08:43:00       85.066       73.316       28.912       25.809       26.619       28.022      666.086      708.557      785.260        0.780        0.108      112.301        7.534        0.005      341.053       15.500      869.028
04/27/2013  08:44:00       44.966       43.042        3.807       15.600       19.584       19.755      243.357      383.515      390.253        0.245        0.051       62.246       12.550        0.041      341.182       15.717      869.034
04/27/2013  08:45:00       39.414       31.277       10.548       22.449       20.718       28.289      503.969      429.242      800.272        0.219        0.087       50.316       18.827        0.140      341.638       16.491      869.032
04/27/2013  08:46:00       21.644       52.214       15.692       24.444       37.432       23.699      597.528     1401.139      561.630        0.300        0.128       56.522       17.731        0.098      341.457       16.183      869.034
04/27/2013  08:47:00       53.562       56.822       18.202       33.438       33.497       28.651     1118.132     1122.030      820.857        0.474        0.153       78.087       13.637        0.030      341.602       16.430      869.034
04/27/2013  08:48:00       60.508       47.182       -7.075       27.750       21.736       28.298      770.090      472.446      800.794        0.399        0.102       76.729       19.054        0.062      341.281       15.887      869.025
04/27/2013  08:49:00       10.933       22.588       30.480       24.094       23.422       15.473      580.498      548.605      239.428        0.146        0.068       25.094       13.325        0.282      342.031       17.158      869.020
04/27/2013  08:50:00      -11.500       20.018       14.731       24.252       39.081       19.920      588.172     1527.363      396.815        0.163        0.126       23.086       21.286        0.850      341.973       17.058      869.025
04/27/2013  08:51:00       -1.947       23.530       15.577       25.098       29.864       22.995      629.915      891.867      528.751        0.142        0.103       23.611       15.888        0.453      342.084       17.248      869.024
04/27/2013  08:52:00      -13.274       51.494       15.974       22.587       29.333       24.188      510.162      860.413      585.039        0.252        0.098       53.177       16.382        0.095      342.165       17.384      869.028
04/27/2013  08:53:00       -5.072       31.821       15.210       17.304       36.229       26.177      299.431     1312.572      685.221        0.178        0.115       32.223       22.271        0.478      342.169       17.392      869.027
04/27/2013  08:54:00      -10.613       14.790       18.332       14.099       25.910       21.558      198.768      671.337      464.732        0.100        0.067       18.204        8.988        0.244      342.085       17.248      869.027
04/27/2013  08:55:00       25.991       32.665       20.811       31.255       34.948       23.621      976.860     1221.344      557.944        0.247        0.138       41.743       22.166        0.282      341.855       16.858      869.028
04/27/2013  08:56:00      -17.145       92.994        3.748       24.510       46.656       36.541      600.732     2176.768     1335.275        0.653        0.206       94.561       27.407        0.084      341.825       16.806      869.026
04/27/2013  08:57:00       -0.255       17.787       28.633       17.685       25.271       19.354      312.752      638.609      374.594        0.123        0.066       17.789       13.988        0.618      342.468       17.900      869.022
04/27/2013  08:58:00       39.936       50.934       21.590       41.736       52.024       36.557     1741.924     2706.473     1336.438        0.522        0.289       64.724       29.702        0.211      342.087       17.252      869.013
04/27/2013  08:59:00       -6.981       49.140       26.074       28.498       41.403       29.337      812.120     1714.242      860.641        0.326        0.169       49.633       16.759        0.114      342.275       17.572      869.010
04/27/2013  09:00:00        9.777        6.961       40.007       23.936       18.806       13.669      572.949      353.654      186.831        0.143        0.056       12.002        8.462        0.497      342.724       18.334      869.004
04/27/2013  09:01:00       14.153       37.489       23.507       26.945       51.844       34.883      726.054     2687.756     1216.837        0.339        0.232       40.072       31.939        0.635      342.286       17.591      868.990
04/27/2013  09:02:00       20.575       31.179        9.847       22.924       31.552       20.287      525.526      995.534      411.545        0.171        0.097       37.356       17.550        0.221      342.266       17.556      868.986
04/27/2013  09:03:00       63.570       38.284       15.803       36.409       25.083       27.806     1325.589      629.162      773.151        0.424        0.136       74.208       15.460        0.043      342.189       17.424      868.985
04/27/2013  09:04:00       30.956       41.154        2.924       23.560       27.771       24.965      555.070      771.229      623.245        0.230        0.097       51.497       20.994        0.166      341.951       17.021      868.992
04/27/2013  09:05:00      -33.818        5.644        7.429       22.103       20.781       15.997      488.526      431.845      255.902        0.120        0.059       34.286       14.285        0.174      342.037       17.168      868.991
04/27/2013  09:06:00      -34.847        8.554        0.509       22.846       32.344       16.577      521.952     1046.112      274.804        0.156        0.092       35.881       14.222        0.157      341.883       16.906      868.985
04/27/2013  09:07:00      -28.956      -33.226        5.454       22.775       26.603       18.767      518.698      707.735      352.196        0.178        0.079       44.073       15.946        0.131      341.726       16.639      868.980
04/27/2013  09:08:00      -26.671      -42.553       -5.769       34.951       28.282       19.905     1221.550      799.866      396.198        0.249        0.121       50.220       18.541        0.136      341.637       16.487      868.968
04/27/2013  09:09:00      -25.467      -33.562        7.512       24.880       24.459       16.971      619.020      598.223      288.015        0.167        0.075       42.130       17.784        0.178      342.018       17.136      868.958
04/27/2013  09:10:00      -11.246       13.978       10.911       38.771       29.235       26.317     1503.173      854.704      692.565        0.175        0.153       17.940       12.716        0.502      342.243       17.516      868.949
04/27/2013  09:11:00        5.206       33.224       16.538       22.324       23.915       21.162      498.373      571.917      447.828        0.146        0.076       33.629        6.903        0.042      342.666       18.236      868.940
04/27/2013  09:12:00       41.110       52.364        2.128       32.930       34.132       25.988     1084.376     1165.007      675.356        0.368        0.146       66.573        8.625        0.017      342.300       17.612      868.927
04/27/2013  09:13:00       42.607       54.508       -1.849       24.789       32.998       26.402      614.498     1088.872      697.062        0.359        0.120       69.185       17.289        0.062      342.139       17.339      868.922
04/27/2013  09:14:00       -5.064       49.422       14.116       24.539       32.774       23.350      602.172     1074.110      545.207        0.244        0.111       49.681       19.638        0.156      342.563       18.061      868.912
04/27/2013  09:15:00      -17.839       51.939        8.409       22.840       45.169       24.694      521.666     2040.236      609.810        0.313        0.159       54.917       20.188        0.135      342.598       18.120      868.904
04/27/2013  09:16:00      -54.905       30.508       -8.117       19.812       35.387       21.392      392.500     1252.269      457.611        0.306        0.105       62.812       16.203        0.067      341.921       16.971      868.904
04/27/2013  09:17:00      -19.624       62.431      -14.386       42.985       46.858       34.697     1847.749     2195.663     1203.896        0.487        0.262       65.443       25.753        0.155      342.167       17.389      868.885
04/27/2013  09:18:00       14.395       59.064        5.836       24.945       43.967       34.981      622.232     1933.075     1223.650        0.375        0.189       60.793       24.783        0.166      342.408       17.797      868.879
04/27/2013  09:19:00      -14.388       10.926       10.002       18.841       30.446       23.793      354.996      926.984      566.096        0.114        0.092       18.066       19.533        1.169      342.686       18.270      868.870
04/27/2013  09:20:00       -7.254       13.033       25.277       19.179       16.812       20.484      367.828      282.639      419.598        0.097        0.054       14.916       13.715        0.845      343.038       18.869      868.868
04/27/2013  09:21:00      -32.944       -7.269      -22.348       13.890       17.595       12.098      192.926      309.598      146.354        0.114        0.032       33.737        8.020        0.057      342.146       17.352      868.854
04/27/2013  09:22:00        1.628        6.701       18.623       31.671       17.859       23.387     1003.069      318.957      546.947        0.113        0.093        6.896       21.375        9.608      342.723       18.334      868.843
04/27/2013  09:23:00       37.470       35.538       18.244       36.946       30.054       29.027     1365.002      903.219      842.585        0.305        0.156       51.643       19.326        0.140      342.547       18.034      868.838
04/27/2013  09:24:00       -2.801       -4.816       22.183       55.239       30.738       20.054     3051.344      944.800      402.159        0.246        0.220        5.571       23.853       18.335      342.460       17.885      868.833
04/27/2013  09:25:00       43.120       52.782       24.258       34.469       33.549       35.241     1188.127     1125.553     1241.937        0.439        0.178       68.156       21.457        0.099      342.647       18.204      868.835
04/27/2013  09:26:00       46.533       67.457       21.220       36.460       35.721       44.364     1329.358     1275.957     1968.195        0.587        0.229       81.950       28.942        0.125      342.873       18.589      868.831
04/27/2013  09:27:00        2.331       25.222        7.014       29.316       29.559       24.437      859.452      873.753      597.184        0.151        0.117       25.330       19.883        0.616      343.215       19.171      868.831
04/27/2013  09:28:00       17.440       43.926       23.779       59.734       40.499       32.446     3568.115     1640.199     1052.731        0.453        0.313       47.262       31.946        0.457      342.957       18.730      868.827
04/27/2013  09:29:00      -40.206       16.590       28.231       43.430       35.685       26.657     1886.206     1273.422      710.615        0.328        0.194       43.494       19.753        0.206      342.607       18.135      868.816
04/27/2013  09:30:00       12.929       36.245       53.301       29.371       32.782       24.720      862.628     1074.639      611.082        0.343        0.127       38.482       16.466        0.183      342.685       18.267      868.816
04/27/2013  09:31:00       31.875       51.919       59.654       41.581       21.183       18.587     1728.948      448.730      345.460        0.490        0.126       60.923       11.490        0.036      342.777       18.425      868.815
04/27/2013  09:32:00       18.379       20.594       34.405       25.789       22.291       15.372      665.096      496.907      236.309        0.167        0.070       27.603        8.287        0.090      342.783       18.434      868.804
04/27/2013  09:33:00       19.048       21.559       28.462       25.785       22.491       23.648      664.873      505.827      559.224        0.168        0.086       28.768       12.450        0.187      342.716       18.321      868.803
04/27/2013  09:34:00       27.013        0.372       16.809       42.034       33.791       36.852     1766.880     1141.860     1358.046        0.264        0.213       27.015       25.550        0.894      342.733       18.351      868.798
04/27/2013  09:35:00       38.002      -40.513        6.020       36.601       40.061       35.687     1339.598     1604.891     1273.579        0.367        0.211       55.547       21.226        0.146      342.227       17.490      868.785
04/27/2013  09:36:00       55.724      -12.479       32.625       40.319       43.361       33.278     1625.639     1880.144     1107.439        0.447        0.231       57.104       23.298        0.166      342.613       18.146      868.781
04/27/2013  09:37:00       21.456      -41.582        0.833       30.905       36.524       28.341      955.134     1334.001      803.194        0.264        0.155       46.792       21.683        0.215      342.793       18.451      868.774
04/27/2013  09:38:00       28.159      -17.494       28.331       38.058       41.281       27.589     1448.445     1704.125      761.155        0.291        0.196       33.151       23.827        0.517      343.112       18.994      868.764
04/27/2013  09:39:00        4.840      -51.637       24.483       22.258       39.029       30.665      495.425     1523.248      940.331        0.312        0.148       51.863       24.221        0.218      343.225       19.187      868.767
04/27/2013  09:40:00        5.363       11.703       38.537       23.243       31.692       22.658      540.245     1004.368      513.377        0.185        0.103       12.873       14.695        1.303      343.251       19.230      868.757
04/27/2013  09:41:00       36.698        6.722       36.971       68.734      101.170       67.592     4724.345    10235.309     4568.636        1.114        0.976       37.309       67.965        3.319      342.766       18.405      868.754
04/27/2013  09:42:00      137.252       92.850       46.448       37.888       31.937       31.307     1435.468     1019.986      980.098        1.653        0.172      165.708       20.093        0.015      342.449       17.865      868.754
04/27/2013  09:43:00       74.206       55.490       27.850       31.642       33.929       23.379     1001.206     1151.203      546.565        0.603        0.135       92.659       14.408        0.024      342.744       18.367      868.757
04/27/2013  09:44:00      108.252       70.815       17.773       37.081       44.033       36.283     1374.986     1938.924     1316.454        1.084        0.232      129.357       13.573        0.011      342.925       18.675      868.749
04/27/2013  09:45:00       65.184       56.644        3.136       33.737       30.297       31.951     1138.195      917.902     1020.854        0.527        0.154       86.357       18.888        0.048      342.937       18.697      868.743
04/27/2013  09:46:00        8.375       72.342       -2.016       27.631       58.224       36.104      763.471     3390.084     1303.502        0.538        0.273       72.825       35.445        0.237      343.299       19.314      868.733
04/27/2013  09:47:00       73.230       49.117       14.279       35.266       28.272       30.958     1243.693      799.328      958.419        0.549        0.150       88.177       23.121        0.069      343.171       19.095      868.734
04/27/2013  09:48:00      107.323       51.268       -2.502       56.838       38.796       28.058     3230.504     1505.168      787.272        0.984        0.276      118.940       21.686        0.033      343.142       19.045      868.734
04/27/2013  09:49:00       28.199       55.157       42.763       33.023       34.145       32.724     1090.550     1165.874     1070.873        0.450        0.166       61.948       23.509        0.144      343.553       19.746      868.733
04/27/2013  09:50:00      101.124       40.582       13.943       47.512       31.618       35.168     2257.387      999.669     1236.801        0.828        0.225      108.963       25.616        0.055      343.366       19.428      868.739
04/27/2013  09:51:00       48.263       48.338       12.656       37.539       31.282       25.997     1409.201      978.574      675.868        0.394        0.153       68.307       10.762        0.025      343.441       19.554      868.747
04/27/2013  09:52:00       36.713       35.476        9.677       33.737       51.880       26.327     1138.174     2691.531      693.120        0.361        0.226       51.052       11.270        0.049      343.329       19.364      868.756
04/27/2013  09:53:00       20.073      -33.849       25.322       36.125       36.148       30.175     1305.012     1306.710      910.559        0.286        0.176       39.353       19.756        0.252      343.369       19.433      868.755
04/27/2013  09:54:00       11.584      -19.611       44.966       40.821       65.678       35.919     1666.338     4313.562     1290.159        0.490        0.364       22.777       36.703        2.597      343.885       20.313      868.752
04/27/2013  09:55:00       27.785      -37.236        9.150       37.729       45.568       34.401     1423.489     2076.450     1183.417        0.346        0.234       46.460       20.993        0.204      343.276       19.275      868.755
04/27/2013  09:56:00       -1.115       -9.954       32.489       30.184       51.657       30.427      911.044     2668.495      925.773        0.283        0.225       10.017       25.132        6.295      343.493       19.644      868.760
04/27/2013  09:57:00        9.080      -11.298       34.541       27.936       32.735       28.442      780.431     1071.603      808.975        0.203        0.133       14.495       22.297        2.366      343.796       20.160      868.754
04/27/2013  09:58:00       36.991      -32.264       31.213       42.225       44.864       39.100     1782.988     2012.816     1528.804        0.435        0.266       49.085       34.694        0.500      343.235       19.204      868.750
04/27/2013  09:59:00       42.687       19.912       19.846       42.305       48.704       39.921     1789.741     2372.113     1593.675        0.418        0.288       47.102       26.920        0.327      343.138       19.038      868.761
04/27/2013  10:00:00      -25.084        1.139       26.611       29.051       20.386       21.234      843.961      415.584      450.877        0.152        0.086       25.110       22.170        0.780      343.693       19.985      868.756
04/27/2013  10:01:00      -46.730       15.699       18.412       19.135       12.725       19.869      366.153      161.923      394.771        0.185        0.046       49.296       15.074        0.094      343.264       19.253      868.757
04/27/2013  10:02:00       18.409        0.389       24.184       39.411       27.124       23.111     1553.236      735.686      534.116        0.187        0.141       18.413       22.208        1.455      343.691       19.981      868.760
04/27/2013  10:03:00       21.454        1.740        7.337       28.026       66.109       37.903      785.452     4370.448     1436.646        0.355        0.330       21.525       37.569        3.046      343.363       19.423      868.767
04/27/2013  10:04:00       60.733       34.395        4.689       44.270       32.419       32.490     1959.872     1050.985     1055.610        0.448        0.203       69.797       27.101        0.151      343.597       19.820      868.759
04/27/2013  10:05:00       64.118       70.076       10.331       34.314       36.803       41.222     1177.428     1354.431     1699.245        0.668        0.212       94.983       29.605        0.097      343.572       19.778      868.762
04/27/2013  10:06:00       74.997       54.034       18.559       55.933       41.533       37.803     3128.485     1724.960     1429.033        0.758        0.314       92.435       28.496        0.095      343.715       20.022      868.719
04/27/2013  10:07:00      179.052       89.327       26.064       49.462       37.522       39.675     2446.478     1407.876     1574.132        2.307        0.271      200.097       30.662        0.023      343.248       19.222      868.685
04/27/2013  10:08:00      185.441       69.901       25.123       52.872       44.757       42.937     2795.493     2003.220     1843.582        2.327        0.332      198.178       30.905        0.024      343.321       19.348      868.685
04/27/2013  10:09:00      103.571       55.317        9.601       49.799       41.557       37.783     2479.902     1727.013     1427.552        0.976        0.282      117.418       25.107        0.046      343.415       19.509      868.681
04/27/2013  10:10:00       92.509      100.491       48.667       47.931       33.633       40.348     2297.389     1131.191     1627.962        1.304        0.253      136.589       29.310        0.046      343.162       19.079      868.675
04/27/2013  10:11:00       62.333       64.266        9.851       34.985       22.006       23.975     1223.928      484.283      574.794        0.520        0.114       89.530       14.632        0.027      343.317       19.343      868.671
04/27/2013  10:12:00       37.002       43.275       38.328       42.602       23.067       25.263     1814.928      532.105      638.199        0.385        0.149       56.937       12.081        0.045      343.786       20.143      868.665
04/27/2013  10:13:00       33.414       23.386       33.780       39.968       41.213       25.143     1597.402     1698.478      632.184        0.337        0.196       40.785       14.728        0.130      343.787       20.145      868.674
04/27/2013  10:14:00      108.580       48.912       10.559       65.288       48.752       37.096     4262.528     2376.714     1376.109        1.115        0.401      119.088       20.139        0.029      343.796       20.161      868.669
04/27/2013  10:15:00      146.904       74.705       42.669       65.457       48.652       44.354     4284.630     2366.985     1967.312        1.880        0.431      164.808       35.737        0.047      343.729       20.044      868.663
04/27/2013  10:16:00      123.449       82.308       13.505       38.328       36.957       32.886     1469.028     1365.831     1081.493        1.306        0.196      148.372       22.763        0.024      343.329       19.364      868.669
04/27/2013  10:17:00       55.777       31.483        2.250       23.678       36.529       27.124      560.637     1334.358      735.699        0.337        0.132       64.048       13.499        0.044      343.376       19.444      868.673
04/27/2013  10:18:00        1.714       51.273      -12.958       42.047       37.210       29.672     1767.958     1384.587      880.430        0.342        0.202       51.301       26.808        0.273      343.795       20.159      868.667
04/27/2013  10:19:00       29.369       28.720       36.281       29.456       34.487       19.262      867.638     1189.353      371.040        0.272        0.121       41.078       11.231        0.075      344.391       21.178      868.667
04/27/2013  10:20:00       53.883       50.494       65.100       51.869       45.858       34.081     2690.377     2102.925     1161.515        0.782        0.298       73.845       21.061        0.081      343.954       20.431      868.657
04/27/2013  10:21:00      172.887       77.540       45.843       83.784       78.585       60.842     7019.776     6175.643     3701.763        2.745        0.845      189.479       54.680        0.083      343.530       19.705      868.644
04/27/2013  10:22:00      138.449      121.784       33.648       59.010       61.466       50.183     3482.191     3778.128     2518.347        2.245        0.489      184.389       26.583        0.021      343.745       20.070      868.645
04/27/2013  10:23:00       77.581       64.467       40.821       42.975       43.881       38.447     1846.846     1925.534     1478.172        0.854        0.263      100.871       18.028        0.032      343.920       20.373      868.648
04/27/2013  10:24:00       66.045       43.421       24.620       71.976       41.534       36.087     5180.568     1725.040     1302.298        0.753        0.410       79.040       28.634        0.131      343.826       20.212      868.647
04/27/2013  10:25:00       63.646       45.835       21.027       72.350       54.015       22.118     5234.494     2917.642      489.215        0.762        0.432       78.433       16.987        0.047      344.284       20.994      868.650
04/27/2013  10:26:00      128.847       72.145       30.907      111.011       68.927       53.585    12323.534     4750.902     2871.368        2.135        0.997      147.670       40.163        0.074      344.163       20.785      868.648
04/27/2013  10:27:00      152.876       58.823       -2.384       84.238       53.428       41.807     7095.999     2854.579     1747.801        1.927        0.585      163.802       22.083        0.018      343.847       20.246      868.670
04/27/2013  10:28:00       44.791       75.695        3.181       46.934       39.985       31.418     2202.791     1598.833      987.115        0.627        0.239       87.954       21.291        0.059      344.231       20.905      868.673
04/27/2013  10:29:00      -13.766       62.865      -10.925       29.683       43.500       34.545      881.076     1892.216     1193.370        0.411        0.198       64.355       22.628        0.124      343.930       20.389      868.669
04/27/2013  10:30:00        4.978       14.890        8.476       22.186       28.041       27.290      492.237      786.286      744.731        0.117        0.101       15.700       15.803        1.013      344.108       20.694      868.660
04/27/2013  10:31:00       33.351       27.310        4.752       35.734       31.359       20.134     1276.917      983.363      405.381        0.227        0.133       43.106       11.435        0.070      344.212       20.871      868.652
04/27/2013  10:32:00       -0.146       72.413        1.030       51.780       32.495       28.450     2681.146     1055.899      809.430        0.489        0.227       72.413       18.843        0.068      344.376       21.153      868.645
04/27/2013  10:33:00       39.502      100.495       -3.782       58.303       41.384       34.699     3399.228     1712.638     1204.018        0.899        0.316      107.980       20.926        0.038      344.432       21.247      868.639
04/27/2013  10:34:00       22.142       17.963       28.128       43.384       36.049       25.051     1882.162     1299.560      627.565        0.271        0.190       28.512       23.559        0.683      344.798       21.873      868.636
04/27/2013  10:35:00        9.384      -52.132       -5.044       37.632       37.427       32.602     1416.157     1400.752     1062.861        0.335        0.194       52.970       22.756        0.185      343.752       20.086      868.631
04/27/2013  10:36:00       18.561      -28.557       19.496       41.350       46.086       35.036     1709.855     2123.879     1227.555        0.330        0.253       34.060       31.984        0.882      343.996       20.503      868.630
04/27/2013  10:37:00        5.950      -34.933       26.693       29.454       57.195       33.601      867.522     3271.240     1129.046        0.362        0.263       35.436       19.139        0.292      344.173       20.805      868.622
04/27/2013  10:38:00       24.749      -10.948       23.709       47.008       48.043       37.433     2209.783     2308.171     1401.251        0.361        0.296       27.062       21.049        0.605      344.331       21.074      868.615
04/27/2013  10:39:00       61.875        1.671       44.437       51.561       75.178       42.339     2658.486     5651.690     1792.590        0.795        0.505       61.897       28.562        0.213      344.038       20.573      868.620
04/27/2013  10:40:00       45.634       51.929       17.246       42.104       31.726       32.101     1772.710     1006.509     1030.501        0.444        0.190       69.131       24.790        0.129      344.088       20.658      868.612
04/27/2013  10:41:00       39.581       20.404       21.241       42.759       25.634       25.433     1828.325      657.077      646.856        0.278        0.157       44.530       19.199        0.186      344.679       21.669      868.597
04/27/2013  10:42:00       31.709       39.666       43.186       47.589       47.759       35.977     2264.701     2280.904     1294.361        0.514        0.292       50.782       28.703        0.319      344.501       21.365      868.587
04/27/2013  10:43:00      133.905       97.713       41.347       51.765       37.957       58.680     2679.645     1440.740     3443.362        1.837        0.378      165.766       27.729        0.028      344.377       21.151      868.577
04/27/2013  10:44:00       32.334        9.868       23.715       44.680       61.156       33.086     1996.281     3740.077     1094.668        0.427        0.342       33.806       27.357        0.655      344.266       20.964      868.575
04/27/2013  10:45:00       11.375      -27.848       13.024       35.721       76.519       41.079     1276.021     5855.214     1687.478        0.494        0.441       30.082       38.854        1.668      344.549       21.445      868.565
04/27/2013  10:46:00       38.160       23.583       44.126       48.323       62.854       35.821     2335.129     3950.687     1283.149        0.576        0.378       44.860       10.790        0.058      344.594       21.523      868.562
04/27/2013  10:47:00       56.760      -52.554       30.659       54.792       77.510       59.021     3002.169     6007.751     3483.500        0.971        0.625       77.354       43.493        0.316      344.628       21.582      868.560
04/27/2013  10:48:00        8.168        4.194       48.460       42.903       49.185       39.068     1840.707     2419.200     1526.305        0.411        0.289        9.181       31.022       11.416      344.639       21.601      868.562
04/27/2013  10:49:00       46.086      -14.337       24.963       39.812       24.326       25.150     1585.028      591.770      632.515        0.288        0.140       48.265       12.442        0.066      344.150       20.766      868.554
04/27/2013  10:50:00        9.669       -1.411       12.603       17.474       15.769       18.498      305.340      248.656      342.165        0.058        0.045        9.772        8.745        0.801      344.658       21.634      868.550
04/27/2013  10:51:00       51.280      -67.580        0.565       47.099       60.617       45.845     2218.307     3674.461     2101.759        0.759        0.400       84.833       36.446        0.185      343.857       20.264      868.543
04/27/2013  10:52:00       65.659      -11.981       46.906       49.227       73.627       52.066     2423.307     5420.959     2710.897        0.860        0.528       66.743       53.955        0.653      344.303       21.028      868.543
04/27/2013  10:53:00       81.297      -11.047       26.666       47.989       39.704       38.792     2302.940     1576.440     1504.833        0.641        0.269       82.044       36.254        0.195      343.971       20.460      868.549
04/27/2013  10:54:00       65.721       -5.648       25.908       45.256       35.593       34.519     2048.096     1266.868     1191.562        0.476        0.225       65.963       21.401        0.105      344.229       20.901      868.549
04/27/2013  10:55:00       18.383       54.060      -16.891       36.823       32.377       34.449     1355.915     1048.261     1186.716        0.357        0.180       57.100       16.727        0.086      344.090       20.662      868.552
04/27/2013  10:56:00       63.309       56.698       51.693       33.477       36.222       32.804     1120.741     1312.007     1076.094        0.670        0.175       84.986       13.908        0.027      343.992       20.495      868.558
04/27/2013  10:57:00       48.825       83.018       77.308       52.924       50.084       35.827     2800.902     2508.375     1283.550        1.092        0.330       96.312       29.626        0.095      344.149       20.764      868.551
04/27/2013  10:58:00      118.913       77.076       36.628       66.875       51.202       38.825     4472.290     2621.628     1507.388        1.501        0.430      141.707       11.243        0.006      344.394       21.181      868.547
04/27/2013  10:59:00      202.521      113.211       45.979       83.864       58.755       60.964     7033.091     3452.120     3716.589        3.507        0.710      232.016       29.513        0.016      344.476       21.319      868.550
04/27/2013  11:00:00       89.044       51.938       22.635       36.845       53.798       33.462     1357.563     2894.278     1119.727        0.825        0.269      103.084       35.804        0.121      344.053       20.598      868.576
04/27/2013  11:01:00        3.157       -0.129       13.893       18.574       37.827       33.319      345.006     1430.893     1110.173        0.154        0.144        3.159       16.357       26.807      344.537       21.427      868.548
04/27/2013  11:02:00      107.937       77.828       24.419       71.785       54.601       37.255     5153.054     2981.293     1387.931        1.391        0.476      133.070       29.593        0.049      344.673       21.657      868.549
04/27/2013  11:03:00      104.692       52.408       15.022       56.321       46.076       41.126     3172.042     2123.043     1691.372        1.046        0.349      117.077       20.982        0.032      344.660       21.636      868.546
04/27/2013  11:04:00       94.420       41.843       14.337       49.795       39.847       41.228     2479.567     1587.762     1699.709        0.832        0.288      103.276       31.076        0.091      344.358       21.120      868.551
04/27/2013  11:05:00       54.179       53.058       28.747       38.370       37.815       40.523     1472.261     1429.970     1642.117        0.556        0.227       75.832       22.476        0.088      344.659       21.635      868.542
04/27/2013  11:06:00       27.749       27.855       33.884       38.052       32.380       23.313     1447.920     1048.490      543.506        0.287        0.152       39.318       10.836        0.076      344.942       22.118      868.522
04/27/2013  11:07:00       57.218       23.951       -2.176       57.369       49.185       36.085     3291.220     2419.169     1302.148        0.543        0.351       62.029       16.182        0.068      344.891       22.032      868.513
04/27/2013  11:08:00       65.871       96.461       55.684       85.391       63.323       70.662     7291.609     4009.801     4993.110        1.652        0.815      116.807       52.904        0.205      344.809       21.889      868.500
04/27/2013  11:09:00       31.240       43.432       68.197       62.373       47.935       53.135     3890.435     2297.802     2823.350        0.826        0.451       53.501       31.380        0.344      344.731       21.758      868.494
04/27/2013  11:10:00       85.180      118.205       92.585       98.143       73.061       54.806     9632.012     5337.910     3003.682        2.388        0.899      145.699       45.562        0.098      344.871       21.995      868.494
04/27/2013  11:11:00       38.761       26.886       36.598       45.456       62.340       52.177     2066.293     3886.271     2722.390        0.612        0.434       47.172       36.482        0.598      344.892       22.033      868.501
04/27/2013  11:12:00       -4.313       29.881       56.620       32.613       53.936       47.049     1063.637     2909.103     2213.613        0.515        0.309       30.190       38.520        1.628      345.390       22.887      868.485
04/27/2013  11:13:00       12.045      -11.304       43.629       56.962       47.359       30.522     3244.717     2242.868      931.569        0.430        0.321       16.519       27.219        2.715      345.288       22.712      868.474
04/27/2013  11:14:00       24.601       28.196       36.697       47.957       37.692       39.734     2299.855     1420.725     1578.783        0.402        0.265       37.419       24.117        0.415      344.842       21.949      868.464
04/27/2013  11:15:00        5.736       -8.777       39.071       42.354       66.723       39.665     1793.844     4451.972     1573.342        0.473        0.391       10.485       26.336        6.309      345.237       22.625      868.447
04/27/2013  11:16:00       -8.529      -34.401       26.771       46.547       46.486       29.063     2166.590     2160.936      844.663        0.357        0.259       35.443       18.163        0.263      345.353       22.823      868.433
04/27/2013  11:17:00       26.827      -58.812        9.154       29.968       56.539       38.596      898.054     3196.626     1489.637        0.492        0.279       64.642       35.738        0.306      345.154       22.483      868.418
04/27/2013  11:18:00       22.368      -21.568       28.812       32.641       35.585       28.436     1065.430     1266.294      808.627        0.247        0.157       31.073       20.126        0.420      345.272       22.685      868.410
04/27/2013  11:19:00      -65.487      -43.984        5.877       60.539       38.696       26.200     3664.994     1497.350      686.445        0.605        0.292       78.886       25.124        0.101      344.720       21.738      868.389
04/27/2013  11:20:00      -30.114      -23.309        3.392       43.184       22.883       22.698     1864.866      523.648      515.219        0.218        0.145       38.081       21.024        0.305      345.149       22.475      868.370
04/27/2013  11:21:00      -15.168        1.639       11.379       33.025       35.247       35.006     1090.619     1242.340     1225.407        0.196        0.178       15.256       27.650        3.285      345.366       22.849      868.358
04/27/2013  11:22:00      -44.878      -14.427       -7.538       28.421       20.764       23.112      807.778      431.159      534.187        0.203        0.089       47.140        8.752        0.034      344.911       22.067      868.347
04/27/2013  11:23:00       46.450      -12.981       25.094       47.820       33.278       25.723     2286.753     1107.440      661.669        0.351        0.203       48.230       30.821        0.408      344.936       22.111      868.343
04/27/2013  11:24:00       37.132      -12.260        4.698       28.343       28.029       28.334      803.351      785.614      802.794        0.197        0.120       39.104       16.130        0.170      344.709       21.723      868.332
04/27/2013  11:25:00       13.585        2.195        0.979       25.028       34.532       29.970      626.380     1192.440      898.183        0.145        0.136       13.761       14.901        1.173      344.977       22.179      868.326
04/27/2013  11:26:00       17.350       -3.946       13.149       38.490       40.885       39.462     1481.471     1671.559     1557.271        0.260        0.236       17.793       19.698        1.226      345.178       22.524      868.310
04/27/2013  11:27:00       21.244       32.457       42.832       55.602       63.092       47.675     3091.590     3980.624     2272.889        0.634        0.467       38.792       25.444        0.430      345.615       23.272      868.293
04/27/2013  11:28:00       67.362      -98.134       18.170       73.576      114.736       61.075     5413.434    13164.305     3730.173        1.840        1.115      119.029       71.476        0.361      345.203       22.565      868.281
04/27/2013  11:29:00       55.174      -81.598        3.766       71.748       96.429       61.391     5147.751     9298.624     3768.863        1.396        0.911       98.501       54.741        0.309      345.228       22.607      868.270
04/27/2013  11:30:00       85.654      -95.939        7.393       65.052       83.489       45.481     4231.702     6970.446     2068.515        1.493        0.664      128.612       56.935        0.196      345.069       22.335      868.257
04/27/2013  11:31:00       30.855        8.175       57.362       44.152       65.373       36.308     1949.428     4273.615     1318.281        0.592        0.377       31.919       39.863        1.560      345.631       23.299      868.234
04/27/2013  11:32:00       -6.346       39.798       55.748       48.137       46.863       43.463     2317.159     2196.146     1889.026        0.557        0.320       40.301       29.705        0.543      345.536       23.138      868.215
04/27/2013  11:33:00       -5.355      -27.368       11.232       43.326       44.473       28.162     1877.110     1977.889      793.072        0.278        0.232       27.887       23.361        0.702      345.760       23.520      868.198
04/27/2013  11:34:00       53.914      -46.872       34.054       77.668       82.784       65.084     6032.321     6853.267     4235.899        1.169        0.856       71.440       53.094        0.552      345.629       23.296      868.185
04/27/2013  11:35:00      112.474     -121.991        9.907       64.440       89.930       58.282     4152.463     8087.442     3396.799        2.163        0.782      165.928       57.704        0.121      345.212       22.579      868.176
04/27/2013  11:36:00       42.428       46.735        9.432       49.437       57.273       41.907     2443.976     3280.171     1756.160        0.578        0.374       63.122       24.338        0.149      345.474       23.030      868.160
04/27/2013  11:37:00       21.120      -12.391       28.860       35.429       39.510       25.425     1255.189     1561.013      646.408        0.245        0.173       24.487        9.240        0.142      345.793       23.579      868.151
04/27/2013  11:38:00        6.458       37.925       88.228       48.841       81.915       42.770     2385.397     6709.991     1829.283        1.009        0.546       38.471       43.337        1.269      345.867       23.704      868.142
04/27/2013  11:39:00        0.915       46.887       98.031       59.612       96.606       74.826     3553.589     9332.797     5598.896        1.514        0.924       46.896       84.929        3.280      345.340       22.801      868.146
04/27/2013  11:40:00       25.496       -1.350       55.734       65.647       87.491       65.827     4309.573     7654.604     4333.189        1.002        0.815       25.532       73.744        8.342      345.720       23.452      868.130
04/27/2013  11:41:00      -33.651      -43.907        1.475       44.346       33.959       30.810     1966.542     1153.244      949.243        0.356        0.203       55.319       15.717        0.081      345.704       23.424      868.122
04/27/2013  11:42:00      -56.697      -50.515       13.261       55.859       59.237       37.522     3120.213     3508.992     1407.914        0.699        0.402       75.936       30.531        0.162      345.607       23.260      868.099
04/27/2013  11:43:00      -23.852     -106.516       -4.429       71.662       57.996       25.672     5135.433     3363.520      659.045        1.054        0.458      109.154       14.474        0.018      345.298       22.729      868.073
04/27/2013  11:44:00       56.808      -26.628       30.145       44.594       57.972       41.886     1988.634     3360.776     1754.401        0.597        0.355       62.740       40.377        0.414      345.495       23.066      868.043
04/27/2013  11:45:00      -18.850      -70.843       21.057       41.962       50.347       31.473     1760.815     2534.851      990.556        0.555        0.264       73.308       11.954        0.027      345.806       23.600      868.032
04/27/2013  11:46:00      -32.943      -17.481       24.128       50.707       31.369       22.991     2571.203      984.019      528.581        0.303        0.204       37.294        6.948        0.035      346.074       24.061      868.019
04/27/2013  11:47:00      -42.933      -10.855        8.832       50.858       46.766       39.772     2586.554     2187.098     1581.811        0.420        0.318       44.284       38.954        0.774      345.791       23.574      868.006
04/27/2013  11:48:00       49.868      -14.677        6.747       40.567       48.375       30.485     1645.645     2340.158      929.357        0.383        0.246       51.983       27.438        0.279      345.148       22.472      867.988
04/27/2013  11:49:00        8.769      -13.366       11.725       48.770       50.717       41.087     2378.560     2572.241     1688.178        0.351        0.332       15.986       27.256        2.907      345.663       23.354      867.965
04/27/2013  11:50:00       29.304      -84.006       18.041       62.139       86.763       53.121     3861.202     7527.777     2821.879        1.122        0.711       88.971       47.613        0.286      346.134       24.163      867.955
04/27/2013  11:51:00      101.945      -41.029       58.139       96.169      125.516       80.599     9248.389    15754.224     6496.165        2.347        1.575      109.892       93.466        0.723      345.774       23.545      867.968
04/27/2013  11:52:00       79.287      -60.387       24.353       60.648       84.204       53.071     3678.192     7090.311     2816.508        1.205        0.679       99.665       56.478        0.321      345.360       22.833      867.967
04/27/2013  11:53:00       47.337      -15.917       36.133       68.951      101.324       45.358     4754.284    10266.603     2057.305        1.044        0.854       49.941       64.113        1.648      345.414       22.926      867.925
04/27/2013  11:54:00       17.027      -35.736        0.373       48.889       45.955       28.508     2390.104     2111.862      812.729        0.344        0.266       39.585       31.526        0.634      345.845       23.668      867.901
04/27/2013  11:55:00       18.719      -22.456       21.540       38.965       40.248       28.130     1518.304     1619.937      791.278        0.262        0.196       29.235       24.901        0.725      345.926       23.806      867.871
04/27/2013  11:56:00       62.233       -5.158       63.801       97.368      128.910      105.073     9480.572    16617.807    11040.323        2.255        1.857       62.447       94.316        2.281      345.650       23.332      867.846
04/27/2013  11:57:00      136.740      -48.859       68.504      112.610      191.053      128.482    12680.972    36501.273    16507.737        4.572        3.284      145.207      135.511        0.871      345.590       23.227      867.839
04/27/2013  11:58:00       47.270       50.249       80.937       77.081       98.001       64.261     5941.497     9604.291     4129.528        1.549        0.984       68.988       46.568        0.456      345.659       23.347      867.862
04/27/2013  11:59:00      114.054       88.446       83.594       71.162       64.970       53.519     5063.990     4221.092     2864.273        1.998        0.607      144.329       41.012        0.081      345.437       22.964      867.861
04/27/2013  12:00:00      114.728      100.502       55.191       57.218       54.018       47.042     3273.855     2917.989     2212.968        1.736        0.420      152.523       35.566        0.054      345.410       22.920      867.851
04/27/2013  12:01:00       55.937       -3.909       -0.460       63.444       78.762       48.468     4025.171     6203.500     2349.159        0.786        0.629       56.074       48.403        0.745      345.155       22.484      867.834
04/27/2013  12:02:00       87.705      -33.181       40.854       70.661       87.014       62.537     4992.950     7571.363     3910.902        1.347        0.824       93.772       55.299        0.348      345.205       22.570      867.831
04/27/2013  12:03:00       31.953      -50.265        2.044       22.114       29.016       19.835      489.045      841.955      393.418        0.264        0.086       59.562       11.843        0.040      345.109       22.405      867.816
04/27/2013  12:04:00       44.742       21.798       35.159       34.008       44.284       34.786     1156.524     1961.076     1210.083        0.402        0.216       49.770       11.346        0.052      345.878       23.722      867.788
04/27/2013  12:05:00       59.148       46.737       18.120       62.207       43.932       47.028     3869.769     1929.991     2211.601        0.701        0.401       75.384       36.345        0.232      345.774       23.544      867.780
04/27/2013  12:06:00       43.590       17.173       23.558       65.807       45.983       37.632     4330.526     2114.391     1416.158        0.530        0.393       46.851       14.982        0.102      346.027       23.980      867.772
04/27/2013  12:07:00       -1.391       -5.831       45.475       40.131       50.050       37.206     1610.513     2505.003     1384.253        0.380        0.275        5.995       35.834       35.729      346.307       24.462      867.761
04/27/2013  12:08:00      -57.262      -25.937       14.053       59.136       69.326       48.163     3497.070     4806.060     2319.678        0.738        0.531       62.863       47.490        0.571      346.031       23.987      867.730
04/27/2013  12:09:00      -70.320      -95.677        6.144       93.385       66.308       49.579     8720.765     4396.706     2458.101        1.485        0.779      118.739       51.395        0.187      345.684       23.390      867.712
04/27/2013  12:10:00        3.500      -20.287       17.006       57.555       71.140       38.121     3312.536     5060.874     1453.178        0.527        0.491       20.587       33.767        2.690      345.918       23.792      867.708
04/27/2013  12:11:00      -68.399      -97.394        1.956       65.252      100.977       39.942     4257.852    10196.274     1595.375        1.511        0.802      119.013       25.332        0.045      345.787       23.566      867.693
04/27/2013  12:12:00       61.276      -83.387       19.297       79.426       92.211       59.002     6308.545     8502.933     3481.264        1.468        0.915      103.480       27.582        0.071      345.667       23.360      867.676
04/27/2013  12:13:00       70.221      -96.562       42.345       91.757      154.255      111.888     8419.430    23794.677    12518.943        3.038        2.237      119.395      118.853        0.991      345.758       23.515      867.663
04/27/2013  12:14:00       51.221     -106.659       -2.970       83.758      125.746       74.584     7015.390    15812.035     5562.791        2.119        1.420      118.321       80.029        0.457      345.571       23.194      867.678
04/27/2013  12:15:00       26.455     -121.859      -16.106       80.198       73.335       55.555     6431.698     5378.006     3086.335        1.535        0.745      124.698       41.869        0.113      345.635       23.305      867.663
04/27/2013  12:16:00       67.677      -77.319      -17.241       82.334      101.529       70.818     6778.839    10308.124     5015.195        1.647        1.105      102.754       65.256        0.403      345.639       23.312      867.657
04/27/2013  12:17:00      -12.301       18.539       29.798       59.125       40.759       40.128     3495.788     1661.258     1610.247        0.407        0.338       22.249       28.741        1.669      346.327       24.496      867.658
04/27/2013  12:18:00      -32.941        4.810       24.682       99.462       59.550       45.052     9892.759     3546.170     2029.704        0.859        0.773       33.290       40.365        1.470      345.456       22.999      867.645
04/27/2013  12:19:00       64.874       -2.007       79.277      120.114      114.886       69.627    14427.468    13198.806     4847.963        2.148        1.624       64.905       66.224        1.041      345.342       22.802      867.607
04/27/2013  12:20:00       58.827       27.847        4.984       36.683       26.331       31.917     1345.645      693.316     1018.720        0.366        0.153       65.085       20.408        0.098      345.135       22.449      867.580
04/27/2013  12:21:00       56.146       26.337       -7.030       16.523       23.230       21.571      273.007      539.621      465.322        0.259        0.064       62.016        5.600        0.008      345.121       22.425      867.556
04/27/2013  12:22:00       70.972       33.939       13.987       28.542       21.532       34.522      814.655      463.645     1191.747        0.443        0.124       78.669       17.176        0.048      345.395       22.895      867.533
04/27/2013  12:23:00       45.321       24.407       40.059       38.343       39.434       31.663     1470.183     1555.064     1002.546        0.414        0.201       51.475       20.404        0.157      345.315       22.759      867.519
04/27/2013  12:24:00      -16.270      -11.518        6.889       53.406       50.393       29.932     2852.158     2539.423      895.933        0.336        0.314       19.934       16.646        0.697      345.289       22.713      867.482
04/27/2013  12:25:00      102.394     -150.191      -11.468       83.561       56.776       42.183     6982.396     3223.567     1779.369        2.258        0.599      181.774       24.713        0.018      345.758       23.516      867.456
04/27/2013  12:26:00        9.831      -84.531        3.846       94.347      100.557       57.744     8901.338    10111.811     3334.381        1.480        1.117       85.101       43.309        0.259      346.376       24.578      867.436
04/27/2013  12:27:00      -36.110     -107.898       -6.691       74.640       86.804       48.122     5571.194     7534.855     2315.736        1.420        0.771      113.780       48.254        0.180      346.079       24.068      867.442
04/27/2013  12:28:00        9.517      -45.676      -17.979       59.585       59.193       40.562     3550.339     3503.847     1645.290        0.560        0.435       46.657       31.656        0.460      346.264       24.388      867.430
04/27/2013  12:29:00       46.497     -104.433       -1.753       69.693       95.790       70.174     4857.091     9175.636     4924.418        1.601        0.948      114.317       66.734        0.341      346.234       24.333      867.422
04/27/2013  12:30:00      -19.074      -66.612       -0.128       87.645       56.137       51.058     7681.627     3151.320     2606.954        0.912        0.672       69.289       26.690        0.148      346.213       24.300      867.417
04/27/2013  12:31:00       -4.543      -19.210       14.398       83.432       66.225       35.062     6960.951     4385.743     1229.376        0.658        0.629       19.740       32.475        2.707      345.903       23.767      867.400
04/27/2013  12:32:00     -118.628      -93.990       16.954      150.882       99.821       54.130    22765.297     9964.225     2930.049        2.942        1.783      151.349       67.285        0.198      346.223       24.317      867.386
04/27/2013  12:33:00     -234.634      -31.538       -5.076      103.536       70.646       46.026    10719.776     4990.885     2118.433        3.695        0.891      236.744       50.388        0.045      345.818       23.616      867.364
04/27/2013  12:34:00      -97.870      -14.751        4.006       80.592       42.372       30.566     6495.067     1795.397      934.297        0.952        0.461       98.975       41.657        0.177      346.326       24.493      867.333
04/27/2013  12:35:00      -95.174       10.239      -10.527       44.076       32.792       22.242     1942.669     1075.316      494.725        0.639        0.176       95.723       23.507        0.060      345.717       23.449      867.308
04/27/2013  12:36:00       -4.496        5.957        1.620       38.886       33.250       38.772     1512.093     1105.583     1503.280        0.209        0.206        7.463       22.476        9.070      345.768       23.535      867.285
04/27/2013  12:37:00      -19.252       62.439        6.393       35.489       76.710       30.521     1259.494     5884.423      931.556        0.619        0.404       65.340       28.990        0.197      345.916       23.788      867.236
04/27/2013  12:38:00      -11.583      138.358       -8.751       47.311       82.792       42.443     2238.368     6854.446     1801.438        1.512        0.545      138.842       41.316        0.089      346.064       24.042      867.184
04/27/2013  12:39:00       20.541        9.629        9.219       38.971       36.490       26.190     1518.769     1331.493      685.931        0.207        0.177       22.686       18.299        0.651      346.379       24.583      867.133
04/27/2013  12:40:00      101.408      104.967       10.930       78.421       59.396       53.159     6149.862     3527.852     2825.930        1.696        0.625      145.950       36.300        0.062      346.312       24.469      867.099
04/27/2013  12:41:00      105.871      145.231      158.822      109.744       98.022       68.934    12043.649     9608.322     4751.850        4.196        1.320      179.724       54.219        0.091      345.963       23.867      867.074
04/27/2013  12:42:00      204.198     -109.453       40.526      134.777      139.593       94.981    18164.754    19486.264     9021.481        5.099        2.334      231.682      105.688        0.208      345.779       23.550      867.063
04/27/2013  12:43:00      145.982        6.824       71.632       84.160      130.938       91.235     7082.891    17144.731     8323.895        2.951        1.628      146.141       86.928        0.354      345.617       23.274      867.060
04/27/2013  12:44:00       48.597      -76.222       12.891       44.778       68.701       53.256     2005.095     4719.890     2836.236        0.895        0.478       90.396       49.382        0.298      345.915       23.787      867.053
04/27/2013  12:45:00       74.041      -63.932       35.997       64.187       94.274       54.852     4119.940     8887.536     3008.741        1.344        0.801       97.823       65.035        0.442      345.841       23.659      867.059
04/27/2013  12:46:00       38.568      -17.434       19.917       46.071       59.538       40.253     2122.545     3544.725     1620.323        0.474        0.364       42.326       35.967        0.722      346.167       24.220      867.059
04/27/2013  12:47:00       32.291       -8.487       19.210       56.643       69.597       49.029     3208.468     4843.768     2403.873        0.597        0.523       33.387       45.231        1.835      346.029       23.983      867.058
04/27/2013  12:48:00       14.291      -74.511       85.679      137.248      141.710       94.026    18836.879    20081.665     8840.922        3.042        2.388       75.870       81.903        1.165      346.653       25.053      867.023
04/27/2013  12:49:00       34.928     -120.489       41.316       85.755      117.698       96.701     7353.996    13852.746     9351.022        2.400        1.528      125.449       79.920        0.406      346.325       24.489      867.050
04/27/2013  12:50:00       57.487      -25.451       49.339       69.375       81.707       71.791     4812.839     6676.106     5153.878        1.151        0.832       62.869       57.124        0.826      346.303       24.453      867.067
04/27/2013  12:51:00       40.443      -47.432       39.325       80.401      116.296       58.589     6464.284    13524.853     3432.726        1.442        1.171       62.333       72.848        1.366      345.931       23.814      867.026
04/27/2013  12:52:00       95.798      -74.210       15.495       72.517      125.685       59.635     5258.729    15796.839     3556.274        1.976        1.231      121.179       72.026        0.353      345.817       23.618      866.986
04/27/2013  12:53:00       84.541      -89.292       34.602      106.606      167.378       67.431    11364.778    28015.362     4546.989        3.011        2.196      122.964       83.409        0.460      346.335       24.508      866.935
04/27/2013  12:54:00      311.780     -326.236      -69.546      200.672      238.016      147.667    40269.223    56651.443    21805.485       16.358        5.936      451.262      171.235        0.144      346.046       24.008      866.822
04/27/2013  12:55:00      108.906     -103.755        2.490      176.413      192.371      123.201    31121.523    37006.473    15178.396        5.295        4.165      150.418      120.442        0.641      346.246       24.355      866.880
04/27/2013  12:56:00       78.048        0.480       59.781       96.874      167.007      121.585     9384.571    27891.429    14782.856        3.085        2.603       78.049      119.211        2.333      346.259       24.376      866.870
04/27/2013  12:57:00       16.019      -19.988       73.911       51.075       92.609       52.318     2608.618     8576.479     2737.149        1.002        0.696       25.615       33.070        1.667      346.045       24.011      866.862
04/27/2013  12:58:00      100.732     -143.568       22.866       77.674      122.818       70.499     6033.236    15084.339     4970.060        2.868        1.304      175.381       51.632        0.087      346.265       24.386      866.863
04/27/2013  12:59:00       44.324     -141.522      -15.992      110.036      115.965       52.754    12107.994    13447.895     2783.026        2.529        1.417      148.301       67.144        0.205      346.318       24.477      866.863
04/27/2013  13:00:00       70.019     -129.647       -7.003       84.323      100.710       60.469     7110.440    10142.488     3656.463        2.133        1.045      147.347       64.267        0.190      346.400       24.619      866.866
04/27/2013  13:01:00     -130.639      -52.375      -12.299      112.274       77.154       45.232    12605.359     5952.808     2045.934        2.028        1.030      140.747       42.341        0.090      346.159       24.206      866.859
04/27/2013  13:02:00     -106.482      -22.481       -6.295       74.920       70.477       50.329     5612.962     4967.060     2533.033        1.250        0.656      108.829       57.019        0.275      346.287       24.426      866.809
04/27/2013  13:03:00       84.428      -73.896        9.059       58.001       68.075       56.445     3364.088     4634.222     3186.090        1.193        0.559      112.199       51.120        0.208      346.335       24.509      866.774
04/27/2013  13:04:00       17.949     -108.627       14.411       59.180       78.196       43.512     3502.267     6114.663     1893.288        1.192        0.576      110.100       48.067        0.191      346.715       25.162      866.764
04/27/2013  13:05:00      -42.022     -183.467       14.471      112.344       96.531       59.378    12621.209     9318.228     3525.700        3.055        1.273      188.218       35.560        0.036      346.775       25.262      866.791
04/27/2013  13:06:00       -1.212     -190.924      -13.976      142.554       82.163       56.724    20321.756     6750.730     3217.652        3.346        1.515      190.928       37.477        0.039      346.445       24.696      866.792
04/27/2013  13:07:00      -99.170     -130.333        5.609      110.538      111.952       46.324    12218.637    12533.173     2145.919        2.687        1.345      163.772       42.299        0.067      346.556       24.887      866.749
04/27/2013  13:08:00     -234.068     -123.936      -14.963      104.917      119.633       41.307    11007.553    14312.143     1706.280        4.869        1.351      264.854       46.492        0.031      346.390       24.598      866.713
04/27/2013  13:09:00     -224.679     -158.616        5.456      162.966      149.354       72.569    26557.990    22306.528     5266.188        6.489        2.707      275.027       90.203        0.108      346.531       24.842      866.685
04/27/2013  13:10:00      -51.536      -73.767        3.333       76.092       82.642       53.960     5790.036     6829.697     2911.656        1.182        0.777       89.986       39.254        0.190      346.864       25.418      866.682
04/27/2013  13:11:00       60.740     -152.443       -5.968      147.222      188.506       90.141    21674.178    35534.486     8125.448        4.614        3.267      164.099       93.945        0.328      346.593       24.952      866.650
04/27/2013  13:12:00      132.511     -156.134       11.471      174.107      198.414      115.768    30313.242    39368.074    13402.123        6.256        4.154      204.785      134.819        0.433      346.542       24.863      866.564
04/27/2013  13:13:00      149.318     -232.215      -31.142      146.050      201.373       82.325    21330.742    40550.971     6777.364        7.291        3.433      276.079      108.443        0.154      346.456       24.714      866.581
04/27/2013  13:14:00      120.850     -210.186       -5.700      109.352      169.566       88.575    11957.773    28752.762     7845.459        5.368        2.428      242.452       97.441        0.162      346.286       24.422      866.583
04/27/2013  13:15:00       73.856     -187.998       -4.957       87.772      111.664       52.099     7703.930    12468.938     2714.291        3.185        1.144      201.985       51.763        0.066      346.414       24.643      866.571
04/27/2013  13:16:00       43.539     -171.744      -31.036       92.761       79.314       60.436     8604.576     6290.697     3652.534        2.545        0.927      177.177       48.538        0.075      346.217       24.303      866.552
04/27/2013  13:17:00      -87.260     -195.554       -7.038       88.181      111.463       49.754     7775.888    12424.099     2475.438        3.429        1.134      214.139       37.228        0.030      346.587       24.941      866.547
04/27/2013  13:18:00      -29.157     -141.749        2.109       74.183      111.973       57.247     5503.096    12538.041     3277.238        2.113        1.066      144.716       48.320        0.111      346.576       24.920      866.525
04/27/2013  13:19:00       -4.487      -81.160        7.681       66.298      122.787       50.597     4395.461    15076.554     2560.068        1.434        1.102       81.284       63.029        0.601      346.751       25.224      866.502
04/27/2013  13:20:00       35.390      -55.324       27.039       65.852      118.751       50.990     4336.433    14101.763     2599.989        1.304        1.052       65.675       62.936        0.918      346.694       25.124      866.443
04/27/2013  13:21:00       29.470      -43.792       35.872       84.801      122.537       74.821     7191.229    15015.351     5598.116        1.593        1.390       52.784       63.687        1.456      346.580       24.930      866.388
04/27/2013  13:22:00      -42.863     -165.926        7.911      129.714      132.348       67.036    16825.592    17516.116     4493.806        3.413        1.942      171.373       62.883        0.135      346.925       25.523      866.369
04/27/2013  13:23:00     -112.232     -141.916       -5.842      118.430      102.767       47.732    14025.589    10561.138     2278.359        2.981        1.343      180.932       40.367        0.050      346.769       25.251      866.399
04/27/2013  13:24:00     -228.622     -249.990      -10.810      112.622      165.804       62.805    12683.795    27491.059     3944.463        7.949        2.206      338.767       48.438        0.020      346.852       25.394      866.413
04/27/2013  13:25:00     -239.311     -350.535      -14.258      126.202      142.459       67.565    15926.936    20294.664     4565.047       11.056        2.039      424.434       56.057        0.017      346.451       24.704      866.403
04/27/2013  13:26:00     -164.672     -280.936       11.317      133.088      161.741       79.372    17712.350    26160.304     6299.985        7.816        2.509      325.641       82.788        0.065      346.478       24.752      866.413
04/27/2013  13:27:00     -140.748     -304.956      -10.659       93.329       99.044       58.645     8710.343     9809.733     3439.275        6.744        1.098      335.869       46.557        0.019      346.431       24.669      866.407
04/27/2013  13:28:00     -154.195     -235.553      -11.270      149.706       87.530       54.072    22411.920     7661.572     2923.827        5.619        1.650      281.534       47.422        0.028      346.454       24.709      866.382
04/27/2013  13:29:00     -117.745     -181.817      -10.471       89.010      100.266       48.803     7922.833    10053.191     2381.725        3.369        1.018      216.614       51.956        0.058      346.278       24.409      866.358
04/27/2013  13:30:00      -94.383     -107.464       11.612      109.468       70.697       43.679    11983.322     4998.006     1907.896        1.974        0.944      143.027       46.057        0.104      346.522       24.828      866.321
04/27/2013  13:31:00     -145.171     -100.213       15.506      120.386       96.372       49.775    14492.824     9287.617     2477.574        2.880        1.313      176.401       56.680        0.103      346.802       25.310      866.305
04/27/2013  13:32:00       29.278     -162.632       -8.399      117.462       86.513       65.830    13797.427     7484.507     4333.557        2.649        1.281      165.246       55.170        0.111      346.990       25.633      866.315
04/27/2013  13:33:00      -69.642     -229.223        3.228       93.877      161.746       63.212     8812.893    26161.652     3995.764        4.818        1.949      239.569       47.146        0.039      346.811       25.325      866.331
04/27/2013  13:34:00      -28.530     -129.307       -2.534      123.873      135.449       56.474    15344.427    18346.528     3189.290        2.720        1.844      132.417       48.826        0.136      346.605       24.971      866.333
04/27/2013  13:35:00      -68.242     -298.888       -7.884      121.606      119.912       66.389    14787.940    14378.790     4407.504        6.381        1.679      306.580       43.249        0.020      346.409       24.633      866.310
04/27/2013  13:36:00      104.898     -252.023      -38.788       89.282      121.212       63.394     7971.292    14692.335     4018.815        5.135        1.334      272.982       53.146        0.038      346.504       24.795      866.291
04/27/2013  13:37:00      -24.764      -53.035       10.299       58.900       73.535       49.425     3469.197     5407.354     2442.806        0.742        0.566       58.532       22.516        0.148      346.688       25.115      866.262
04/27/2013  13:38:00       21.272     -120.688       16.690       76.056      105.425       48.450     5784.535    11114.412     2347.392        1.727        0.962      122.548       58.857        0.231      346.950       25.564      866.246
04/27/2013  13:39:00      -40.138       -1.661        8.303       44.062       71.336       34.150     1941.441     5088.785     1166.221        0.494        0.410       40.172       31.266        0.606      347.167       25.940      866.201
04/27/2013  13:40:00       31.068       42.249       44.799       49.945       41.450       42.146     2494.497     1718.068     1776.289        0.537        0.299       52.442       33.622        0.411      346.894       25.471      866.148
04/27/2013  13:41:00       99.163     -207.626      -18.468      128.655      136.318       54.777    16552.036    18582.470     3000.501        4.570        1.907      230.091       37.336        0.026      346.952       25.566      866.133
04/27/2013  13:42:00      -14.244     -198.746      -16.187      142.678       92.057       75.942    20356.979     8474.463     5767.186        3.727        1.730      199.256       68.031        0.117      346.871       25.428      866.136
04/27/2013  13:43:00       39.316      -88.977       36.412       88.578      108.723       67.066     7846.034    11820.627     4497.856        1.747        1.208       97.276       68.082        0.490      347.062       25.758      866.108
04/27/2013  13:44:00     -153.203     -100.449       -2.395      121.531      125.563       57.567    14769.873    15766.023     3313.987        3.370        1.692      183.197       70.026        0.146      347.131       25.876      866.098
04/27/2013  13:45:00     -160.028     -149.607       -6.842       74.298       80.582       37.521     5520.187     6493.518     1407.827        3.073        0.671      219.069       33.436        0.023      346.629       25.012      866.101
04/27/2013  13:46:00      -23.778      -77.025        5.811       36.539       57.828       36.287     1335.098     3344.095     1316.769        0.626        0.300       80.612       24.984        0.096      346.855       25.403      866.082
04/27/2013  13:47:00      -78.467      -88.583      -12.524      191.145       79.440       52.767    36536.580     6310.744     2784.369        2.989        2.282      118.339       71.892        0.369      346.663       25.070      866.048
04/27/2013  13:48:00       24.497      -77.731       29.653      123.864       85.306       53.901    15342.199     7277.165     2905.300        1.652        1.276       81.500       53.093        0.424      347.137       25.888      866.029
04/27/2013  13:49:00      -90.254     -101.539        6.744      142.167      114.590       80.119    20211.546    13130.781     6419.002        2.912        1.988      135.852       81.939        0.364      347.142       25.895      866.029
04/27/2013  13:50:00      -90.885     -139.971       12.563      138.992       88.709       74.105    19318.840     7869.226     5491.532        3.034        1.634      166.889       46.220        0.077      347.001       25.651      866.006
04/27/2013  13:51:00     -152.813     -288.140      -20.259      121.779      144.884       59.100    14830.206    20991.306     3492.817        7.304        1.966      326.154       20.754        0.004      346.845       25.383      866.003
04/27/2013  13:52:00     -150.498     -122.228      -32.705      120.651      108.756       48.964    14556.765    11827.842     2397.461        3.371        1.439      193.880       42.285        0.048      346.983       25.621      866.006
04/27/2013  13:53:00     -158.908     -183.998       -5.864       95.433      131.099       51.487     9107.497    17186.880     2650.881        4.404        1.447      243.120       58.866        0.059      347.094       25.812      866.015
04/27/2013  13:54:00     -179.274     -186.302        5.467      146.793      106.615       66.060    21548.303    11366.662     4363.912        5.207        1.864      258.550       47.609        0.034      346.892       25.464      866.024
04/27/2013  13:55:00      -81.430      -90.297       -2.395       95.120       86.292       52.445     9047.812     7446.393     2750.520        1.701        0.962      121.591       45.837        0.142      346.619       24.996      865.976
04/27/2013  13:56:00       38.683       33.357      117.579       84.972      154.225       90.052     7220.221    23785.294     8109.339        2.777        1.956       51.079      107.035        4.391      346.666       25.075      865.908
04/27/2013  13:57:00       99.622     -162.667      -22.501       97.567      125.923       74.809     9519.352    15856.632     5596.339        3.393        1.549      190.749       82.076        0.185      346.962       25.583      865.890
04/27/2013  13:58:00       22.222     -104.433        6.274       94.052       88.936       55.529     8845.697     7909.664     3083.510        1.564        0.992      106.771       49.944        0.219      347.421       26.378      865.866
04/27/2013  13:59:00        1.256     -166.655        0.122       76.556      125.316       44.838     5860.815    15704.115     2010.475        2.567        1.179      166.660       46.269        0.077      347.342       26.240      865.838
04/27/2013  14:00:00      -54.459     -282.340      -12.746      129.164      152.002       62.309    16683.219    23104.493     3882.383        6.325        2.184      287.544       37.489        0.017      347.219       26.028      865.811
04/27/2013  14:01:00       17.281     -331.940        2.641      185.846      161.131       85.735    34538.626    25963.300     7350.459        8.916        3.393      332.390       84.375        0.064      347.082       25.789      865.728
04/27/2013  14:02:00     -143.289     -177.934       17.262      279.739      188.673       87.197    78253.883    35597.646     7603.326        8.695        6.073      228.456       82.431        0.130      347.348       26.250      865.652
04/27/2013  14:03:00     -374.676     -263.307       -4.878      176.599      136.168       98.608    31187.207    18541.836     9723.559       13.458        2.973      457.944      103.162        0.051      347.194       25.983      865.770
04/27/2013  14:04:00     -455.842      -33.060       -1.593      220.745      204.378       81.807    48728.148    41770.512     6692.334       15.302        4.860      457.040       85.840        0.035      347.140       25.891      865.765
04/27/2013  14:05:00      -68.711       -1.920       20.846       99.271      102.384       54.607     9854.756    10482.529     2981.875        1.423        1.166       68.738       46.604        0.460      347.393       26.329      865.848
04/27/2013  14:06:00     -142.027      107.340        2.192       96.009       98.810       62.156     9217.748     9763.379     3863.382        2.727        1.142      178.027       52.660        0.087      347.446       26.419      865.836
04/27/2013  14:07:00     -349.026        8.696      -47.463      136.847      126.621       54.193    18727.037    16032.815     2936.876        8.091        1.885      349.134       61.892        0.031      346.982       25.616      865.807
04/27/2013  14:08:00      -12.972       36.722       17.242       90.816       99.353       56.323     8247.495     9871.094     3172.297        1.155        1.065       38.946       47.906        1.513      346.971       25.602      865.769
04/27/2013  14:09:00      -20.744      164.747       22.259       67.208      150.606       62.606     4516.957    22682.209     3919.545        2.959        1.556      166.047       56.890        0.117      347.334       26.228      865.738
04/27/2013  14:10:00      -35.564      306.614      -20.541       86.191      111.817       54.920     7428.894    12503.001     3016.213        5.932        1.147      308.670       58.301        0.036      347.131       25.874      865.720
04/27/2013  14:11:00       29.708      144.860        7.360       96.480      111.165       51.788     9308.428    12357.642     2681.977        2.313        1.217      147.875       56.414        0.146      347.404       26.346      865.719
04/27/2013  14:12:00      -40.057       98.680       -7.494       41.621       68.622       36.810     1732.334     4708.967     1354.976        0.960        0.390      106.500       32.987        0.096      347.193       25.986      865.710
04/27/2013  14:13:00       39.349       26.878       37.963       42.946       79.708       46.802     1844.379     6353.408     2190.402        0.705        0.519       47.652       28.563        0.359      347.345       26.247      865.708
04/27/2013  14:14:00      -48.801      -29.960        6.112       49.897       53.905       28.321     2489.676     2905.705      802.061        0.476        0.310       57.263       31.736        0.307      347.480       26.480      865.704
04/27/2013  14:15:00       28.781      -78.764       11.480       52.209       76.332       39.871     2725.743     5826.599     1589.702        0.865        0.507       83.858       40.939        0.238      347.561       26.619      865.690
04/27/2013  14:16:00       11.056      -80.261       -6.343       56.036       94.903       54.831     3140.013     9006.666     3006.405        1.088        0.758       81.019       58.535        0.522      347.339       26.236      865.695
04/27/2013  14:17:00      -70.979      -40.079        7.619       64.607       42.395       34.927     4174.005     1797.365     1219.889        0.695        0.360       81.512       43.740        0.288      347.284       26.142      865.680
04/27/2013  14:18:00      -44.679        8.456       -6.081       42.119       16.920       15.676     1773.968      286.281      245.752        0.220        0.115       45.472       12.280        0.073      347.158       25.926      865.666
04/27/2013  14:19:00       32.941       23.453        7.943       50.225       32.441       25.570     2522.529     1052.421      653.833        0.296        0.211       40.437       18.427        0.208      347.253       26.089      865.671
04/27/2013  14:20:00      -29.638       -7.616       26.205       91.404       64.840       50.952     8354.621     4204.254     2596.121        0.839        0.758       30.601       50.192        2.690      347.330       26.221      865.698
04/27/2013  14:21:00     -100.791      -29.234       25.587      107.310       99.279       52.252    11515.459     9856.323     2730.293        1.788        1.205      104.945       63.631        0.368      346.984       25.624      865.672
04/27/2013  14:22:00       18.661      -43.592       -1.259       71.385       69.656       45.030     5095.859     4852.018     2027.729        0.711        0.599       47.418       38.656        0.665      347.026       25.698      865.683
04/27/2013  14:23:00      -84.692       67.579      -10.971      134.115       46.545       34.958    17986.781     2166.449     1222.061        1.661        1.069      108.349       49.352        0.207      346.868       25.426      865.684
04/27/2013  14:24:00     -145.848      -75.042      -15.028      133.250       70.460       58.064    17755.568     4964.648     3371.383        2.661        1.305      164.021       69.566        0.180      346.939       25.545      865.669
04/27/2013  14:25:00     -198.151      -41.860      -19.420      153.029      160.114       59.663    23417.961    25636.581     3559.679        4.699        2.631      202.524       65.289        0.104      347.255       26.088      865.630
04/27/2013  14:26:00     -179.279      230.636      -25.031      107.055      140.271       57.569    11460.871    19676.073     3314.170        6.020        1.723      292.119       52.730        0.033      347.098       25.819      865.688
04/27/2013  14:27:00     -204.491       96.353      -29.519       89.631       55.293       41.943     8033.741     3057.363     1759.230        3.241        0.643      226.054       40.161        0.032      346.791       25.289      865.695
04/27/2013  14:28:00      -43.351      173.120        2.718       77.534      121.228       62.407     6011.467    14696.222     3894.645        2.822        1.230      178.465       69.149        0.150      346.999       25.648      865.681
04/27/2013  14:29:00       -4.652      176.289       -0.195       60.977      114.682       51.603     3718.164    13151.875     2662.892        2.531        0.977      176.351       58.503        0.110      346.870       25.427      865.662
04/27/2013  14:30:00      -65.507      149.281       -0.741       51.183       72.633       39.322     2619.704     5275.529     1546.193        1.801        0.472      163.021       44.245        0.074      347.050       25.737      865.629
04/27/2013  14:31:00     -109.107      111.188      -20.183       94.893       79.485       42.978     9004.752     6317.929     1847.074        2.092        0.858      155.779       45.552        0.086      347.160       25.926      865.612
04/27/2013  14:32:00     -102.642      129.008       -6.810       88.620      103.616       47.238     7853.496    10736.243     2231.390        2.402        1.041      164.859       44.472        0.073      347.440       26.409      865.581
04/27/2013  14:33:00     -285.226      201.068      -66.907       76.002      118.889       59.556     5776.269    14134.559     3546.952        7.485        1.173      348.973       66.209        0.036      346.859       25.407      865.576
04/27/2013  14:34:00     -107.545      167.844      -31.863       67.300      108.875       63.073     4529.253    11853.704     3978.194        3.055        1.018      199.343       63.332        0.101      346.770       25.256      865.578
04/27/2013  14:35:00       20.872       49.860        0.652       40.095       45.992       33.445     1607.620     2115.227     1118.545        0.388        0.242       54.052       29.464        0.297      346.863       25.416      865.550
04/27/2013  14:36:00       -7.236       53.496       11.364       25.545       35.556       30.724      652.522     1264.241      943.987        0.295        0.143       53.983       28.220        0.273      347.057       25.750      865.527
04/27/2013  14:37:00       11.142       83.055      -16.025       23.225       47.988       21.852      539.410     2302.815      477.528        0.530        0.166       83.799       24.687        0.087      346.860       25.410      865.509
04/27/2013  14:38:00       16.591       20.059       31.524       30.531       25.735       16.248      932.119      662.286      264.013        0.176        0.093       26.031       14.190        0.297      347.026       25.697      865.476
04/27/2013  14:39:00       24.482       71.376        7.825       94.383       63.965       41.160     8908.229     4091.582     1694.184        1.022        0.735       75.458       34.038        0.203      347.089       25.805      865.461
04/27/2013  14:40:00      -63.482       49.375       -0.093       72.947       70.662       30.305     5321.202     4993.049      918.420        0.885        0.562       80.423       20.220        0.063      347.246       26.075      865.448
04/27/2013  14:41:00       74.369      140.079       11.778       79.487       89.241       61.067     6318.200     7963.894     3729.164        2.165        0.901      158.596       55.850        0.124      347.038       25.717      865.412
04/27/2013  14:42:00       46.610      143.869       -1.134       67.660      101.118       49.669     4577.843    10224.833     2467.049        2.007        0.863      151.231       55.171        0.133      346.950       25.565      865.409
04/27/2013  14:43:00        9.719       91.372        8.448       71.463       95.881       54.431     5107.025     9193.166     2962.752        1.289        0.863       91.888       58.219        0.401      347.109       25.841      865.400
04/27/2013  14:44:00     -120.091      212.404      -23.302       68.884       98.889       44.057     4745.004     9778.997     1941.007        3.827        0.823      244.002       24.655        0.010      346.917       25.507      865.398
04/27/2013  14:45:00     -144.933      190.730      -34.647       59.122       71.141       34.914     3495.442     5061.080     1218.996        3.418        0.489      239.549       35.107        0.021      346.721       25.169      865.391
04/27/2013  14:46:00      -63.708      137.793       -7.977       60.804       55.650       36.098     3697.121     3096.905     1303.035        1.560        0.405      151.808       34.854        0.053      346.891       25.464      865.364
04/27/2013  14:47:00      -99.431      219.529      -26.961       46.440       94.666       42.364     2156.693     8961.606     1794.667        3.586        0.646      240.997       43.871        0.033      346.785       25.278      865.366
04/27/2013  14:48:00      -78.971      156.890      -16.806       77.131       93.549       42.736     5949.199     8751.491     1826.356        2.383        0.826      175.644       56.957        0.105      346.852       25.397      865.361
04/27/2013  14:49:00     -103.008      238.835      -25.590       83.556      103.993       49.784     6981.633    10814.648     2478.463        4.429        1.014      260.101       41.630        0.026      346.869       25.424      865.349
04/27/2013  14:50:00     -137.946      187.902      -38.912       59.741       90.268       42.730     3568.954     8148.290     1825.888        3.469        0.677      233.101       42.260        0.033      346.882       25.446      865.343
04/27/2013  14:51:00     -170.180      161.010      -35.392       55.383       81.466       41.907     3067.313     6636.740     1756.179        3.380        0.573      234.277       46.720        0.040      346.882       25.448      865.333
04/27/2013  14:52:00     -156.922      158.450      -46.221       63.077       74.606       30.709     3978.769     5566.045      943.072        3.118        0.524      223.005       38.550        0.030      346.897       25.472      865.316
04/27/2013  14:53:00      -56.423      146.205      -18.618       86.390      112.957       49.076     7463.183    12759.392     2408.480        2.376        1.132      156.715       51.658        0.109      347.138       25.890      865.293
04/27/2013  14:54:00      -37.661      131.969       -1.929       67.229       87.347       45.396     4519.766     7629.505     2060.795        1.652        0.711      137.238       44.475        0.105      347.063       25.760      865.281
04/27/2013  14:55:00       10.727       30.278       11.109       63.753       61.484       35.998     4064.434     3780.324     1295.891        0.515        0.457       32.122       26.900        0.701      347.116       25.852      865.268
04/27/2013  14:56:00       -6.891       65.601        6.438       42.843       68.869       38.005     1835.490     4742.982     1444.396        0.621        0.401       65.962       44.244        0.450      347.314       26.193      865.258
04/27/2013  14:57:00       71.810       57.671        5.971       72.022       51.146       34.163     5187.175     2615.913     1167.104        0.874        0.449       92.101       26.046        0.080      347.187       25.974      865.234
04/27/2013  14:58:00      100.110       96.740       10.641      112.138      112.806       72.224    12574.904    12725.250     5216.251        2.500        1.526      139.215       58.781        0.178      347.154       25.917      865.211
04/27/2013  14:59:00      118.877       89.673       32.049      122.498       81.618       63.282    15005.671     6661.478     4004.640        2.443        1.284      148.906       66.968        0.202      347.062       25.758      865.178
04/27/2013  15:00:00       74.501       70.369       -6.364       91.428       65.064       31.327     8359.148     4233.353      981.353        1.206        0.679      102.480       29.735        0.084      347.236       26.058      865.178
04/27/2013  15:01:00       27.938       14.666       13.526       45.522       31.909       30.253     2072.257     1018.197      915.270        0.259        0.200       31.554       10.432        0.109      347.212       26.016      865.171
04/27/2013  15:02:00       70.711       80.013       -6.907       77.971       54.591       38.870     6079.537     2980.128     1510.859        1.101        0.529      106.781       27.525        0.066      347.329       26.219      865.167
04/27/2013  15:03:00       63.035       54.096       10.211       98.682       69.662       55.444     9738.200     4852.821     3073.997        1.233        0.883       83.065       27.520        0.110      347.303       26.174      865.137
04/27/2013  15:04:00      244.778      137.653        6.287       90.510       60.845       57.917     8192.085     3702.057     3354.348        4.707        0.762      280.828       39.282        0.020      346.835       25.365      865.110
04/27/2013  15:05:00      168.278       83.091       35.661      106.939       75.194       56.183    11435.868     5654.131     3156.483        2.837        1.012      187.674       36.090        0.037      347.068       25.766      865.093
04/27/2013  15:06:00       50.945       51.313       45.166       57.045       56.724       45.716     3254.086     3217.587     2089.909        0.791        0.428       72.308       35.450        0.240      347.209       26.012      865.089
04/27/2013  15:07:00       -8.457       53.569       59.011       32.057       32.265       40.286     1027.661     1041.037     1622.954        0.506        0.185       54.233       20.315        0.140      347.316       26.197      865.082
04/27/2013  15:08:00       23.123       44.329       -2.159       37.678       38.218       29.548     1419.649     1460.639      873.064        0.313        0.188       49.997       17.015        0.116      347.051       25.739      865.085
04/27/2013  15:09:00       -4.774       14.850        5.712       17.225       16.953       17.493      296.707      287.392      305.995        0.058        0.045       15.599        6.275        0.162      347.413       26.364      865.074
04/27/2013  15:10:00      -73.456       31.687        6.275       64.894       28.690       26.556     4211.196      823.125      705.212        0.609        0.287       79.999       27.133        0.115      347.341       26.241      865.060
04/27/2013  15:11:00      -43.010      113.341        5.587       42.620       72.905       39.259     1816.506     5315.180     1541.268        1.170        0.434      121.227       31.841        0.069      347.236       26.059      865.058
04/27/2013  15:12:00      -46.457       85.454      -12.140       45.001       67.872       32.627     2025.059     4606.590     1064.500        0.865        0.385       97.265       37.283        0.147      347.006       25.662      865.066
04/27/2013  15:13:00       21.317       29.680        2.548       30.830       47.191       23.543      950.459     2226.951      554.273        0.254        0.187       36.542       27.024        0.547      347.017       25.682      865.036
04/27/2013  15:14:00      -84.649      -33.943       -6.816       52.690       34.021       21.726     2776.200     1157.433      471.998        0.638        0.220       91.201       13.027        0.020      347.114       25.849      865.013
04/27/2013  15:15:00      -64.811      -35.466        5.882       91.796       59.296       33.853     8426.574     3515.971     1146.025        0.929        0.654       73.880       43.374        0.345      347.085       25.797      865.012
04/27/2013  15:16:00      -70.399       62.234        1.781       67.090       33.263       31.792     4501.024     1106.431     1010.720        0.772        0.331       93.963       40.791        0.188      347.239       26.063      865.002
04/27/2013  15:17:00     -106.749       28.611      -14.932       33.772       49.546       24.471     1140.553     2454.802      598.814        0.831        0.210      110.516       25.032        0.051      347.288       26.148      864.981
04/27/2013  15:18:00      -48.867      117.524      -12.160       57.173       77.506       34.774     3268.809     6007.205     1209.218        1.341        0.524      127.279       40.200        0.100      347.250       26.081      864.963
04/27/2013  15:19:00      -48.095      213.044      -15.034       68.415       88.397       42.081     4680.673     7814.061     1770.815        3.109        0.713      218.406       39.219        0.032      347.081       25.788      864.960
04/27/2013  15:20:00      -48.778       68.315        6.214       48.894       69.858       39.159     2390.652     4880.083     1533.455        0.794        0.440       83.942       20.842        0.062      347.424       26.382      864.958
04/27/2013  15:21:00     -140.477      150.611      -20.036       78.924       98.891       34.156     6229.022     9779.373     1166.633        2.999        0.859      205.955       35.414        0.030      347.192       25.980      864.963
04/27/2013  15:22:00     -155.676       17.899      -10.423       87.003       79.133       44.296     7569.493     6262.036     1962.120        2.023        0.790      156.702       50.650        0.104      347.342       26.240      864.963
04/27/2013  15:23:00      -98.134       24.825       -5.629       55.102       36.673       24.540     3036.180     1344.930      602.207        0.763        0.249      101.225       15.098        0.022      347.529       26.564      864.961
04/27/2013  15:24:00      -95.453       19.459        8.605       77.019       61.745       39.369     5931.960     3812.408     1549.895        1.043        0.565       97.416       36.239        0.138      347.341       26.239      864.957
04/27/2013  15:25:00      -60.601       96.915       -9.117       60.502       88.535       34.012     3660.497     7838.400     1156.829        1.290        0.633      114.302       35.405        0.096      347.214       26.021      864.951
04/27/2013  15:26:00      -84.364      173.758      -15.391       87.546       77.934       48.086     7664.331     6073.774     2312.256        2.680        0.803      193.156       55.545        0.083      347.191       25.979      864.943
04/27/2013  15:27:00     -129.736       59.726       -8.110       87.396      119.800       43.364     7638.146    14352.040     1880.415        2.216        1.194      142.823       44.909        0.099      347.264       26.105      864.926
04/27/2013  15:28:00     -317.564      -46.508      -33.033       98.235      103.458       62.550     9650.061    10703.515     3912.539        6.418        1.213      320.951       51.372        0.026      347.254       26.087      864.931
04/27/2013  15:29:00     -180.315      -28.076      -19.539       84.093       64.468       50.498     7071.651     4156.156     2550.089        2.373        0.689      182.488       53.789        0.087      347.087       25.800      864.951
04/27/2013  15:30:00      -75.928       72.975       -3.422       78.022       83.290       33.118     6087.429     6937.290     1096.789        1.261        0.706      105.311       36.843        0.122      347.008       25.666      864.928
04/27/2013  15:31:00      -46.405      194.736      -19.191       49.839       74.526       35.946     2483.960     5554.087     1292.079        2.489        0.467      200.188       31.714        0.025      346.981       25.616      864.893
04/27/2013  15:32:00       12.113      228.697      -19.642       40.650       58.947       34.091     1652.456     3474.746     1162.221        2.956        0.314      229.018       34.295        0.022      346.966       25.590      864.874
04/27/2013  15:33:00       46.199      100.368        2.502       54.134       59.185       37.408     2930.514     3502.837     1399.390        1.002        0.392      110.490       34.636        0.098      347.069       25.771      864.832
04/27/2013  15:34:00       38.217      205.127      -15.495       83.409      108.814       41.016     6956.978    11840.587     1682.352        3.212        1.024      208.656       47.827        0.053      347.205       26.002      864.813
04/27/2013  15:35:00       46.266      103.200        9.323       60.999       95.492       58.177     3720.904     9118.691     3384.594        1.455        0.811      113.096       55.917        0.244      347.438       26.405      864.805
04/27/2013  15:36:00       29.008      164.984      -26.686       61.487      137.387       53.617     3780.700    18875.051     2874.836        2.715        1.277      167.515       71.702        0.183      347.429       26.389      864.811
04/27/2013  15:37:00      -12.543      129.205       -6.849       60.523       83.037       39.991     3663.003     6895.098     1599.288        1.453        0.608      129.812       45.302        0.122      347.535       26.573      864.826
04/27/2013  15:38:00      -54.996       95.476        6.649       44.247       67.103       39.759     1957.764     4502.784     1580.781        1.011        0.402      110.183       35.191        0.102      347.576       26.644      864.831
04/27/2013  15:39:00      -27.072      128.180       -5.081       54.851       66.292       37.556     3008.624     4394.633     1410.422        1.300        0.441      131.008       34.043        0.068      347.566       26.627      864.829
04/27/2013  15:40:00      -42.878      308.005      -33.356       32.213       67.330       25.375     1037.678     4533.349      643.892        5.202        0.311      310.975       24.677        0.006      347.038       25.715      864.828
04/27/2013  15:41:00      -16.138      233.768      -26.108       41.492       42.012       26.349     1721.627     1764.973      694.273        2.988        0.209      234.325       14.761        0.004      347.173       25.946      864.819
04/27/2013  15:42:00       -7.173      134.498       -8.831       33.186       61.864       29.634     1101.297     3827.124      878.184        1.201        0.290      134.689       33.905        0.063      347.317       26.198      864.813
04/27/2013  15:43:00      -28.213       98.269       -2.251       55.851       61.435       37.630     3119.368     3774.313     1416.012        0.938        0.415      102.239       34.036        0.111      347.424       26.383      864.795
04/27/2013  15:44:00        3.148      182.728      -21.517       31.583       63.977       28.717      997.456     4093.013      824.638        1.989        0.296      182.755       23.120        0.016      347.196       25.988      864.780
04/27/2013  15:45:00       11.600      112.381       -3.714       49.576       66.473       43.247     2457.768     4418.714     1870.329        1.076        0.437      112.978       44.170        0.153      347.251       26.085      864.755
04/27/2013  15:46:00      -21.380       79.327       -4.790       40.490       48.539       28.876     1639.414     2356.052      833.821        0.580        0.241       82.158       20.838        0.064      347.402       26.345      864.744
04/27/2013  15:47:00     -236.807      -40.496      -23.088       82.029       93.891       50.751     6728.705     8815.485     2575.653        3.818        0.906      240.245       38.521        0.026      347.675       26.813      864.730
04/27/2013  15:48:00     -297.727      -51.890      -25.991      108.789      129.448       49.705    11835.077    16756.821     2470.590        6.153        1.553      302.215       51.265        0.029      347.515       26.536      864.696
04/27/2013  15:49:00     -443.462       50.852      -39.629      101.858       85.612       48.840    10375.059     7329.350     2385.329       11.045        1.004      446.369       45.663        0.010      347.335       26.224      864.701
04/27/2013  15:50:00     -458.559       24.076      -55.684      138.106       62.663       37.413    19073.248     3926.644     1399.726       11.917        1.220      459.191       50.945        0.012      347.128       25.870      864.688
04/27/2013  15:51:00     -287.584     -107.526      -22.922      135.319       76.972       45.365    18311.268     5924.637     2057.984        6.054        1.315      307.029       63.654        0.043      347.190       25.976      864.688
04/27/2013  15:52:00     -163.543      -87.479       -4.530       50.953       42.856       35.489     2596.226     1836.659     1259.455        2.005        0.285      185.469       27.581        0.022      347.155       25.917      864.655
04/27/2013  15:53:00     -212.145      -22.749      -11.680      112.978       75.052       40.836    12764.077     5632.864     1667.561        3.286        1.003      213.361       43.769        0.042      347.464       26.449      864.646
04/27/2013  15:54:00     -297.831      -64.769      -11.324      113.231       78.970       51.167    12821.327     6236.289     2618.055        5.735        1.084      304.792       51.215        0.028      347.524       26.553      864.636
04/27/2013  15:55:00     -318.905     -118.852      -13.592      185.894       85.169       62.589    34556.568     7253.740     3917.353        8.086        2.286      340.332       64.891        0.036      347.524       26.552      864.630
04/27/2013  15:56:00     -165.861      -43.062      -21.436       63.332       67.922       49.527     4010.900     4613.361     2452.897        2.045        0.554      171.360       30.797        0.032      347.563       26.621      864.654
04/27/2013  15:57:00     -211.690      -93.484      -10.874       79.471       78.709       43.720     6315.654     6195.075     1911.437        3.404        0.721      231.413       36.456        0.025      347.672       26.807      864.639
04/27/2013  15:58:00     -259.606        7.536      -28.845       84.336       82.513       41.388     7112.516     6808.447     1712.942        4.196        0.782      259.716       36.501        0.020      347.642       26.756      864.627
04/27/2013  15:59:00     -220.999      -50.216       -8.037      121.853      127.230       53.332    14848.219    16187.543     2844.322        4.265        1.694      226.633       53.368        0.055      347.539       26.579      864.616
04/27/2013  16:00:00     -417.036     -118.403      -23.027      133.712       86.728       51.303    17878.832     7521.712     2632.038       10.825        1.402      433.519       59.540        0.019      347.258       26.093      864.632
04/27/2013  16:01:00     -264.794       52.520      -19.119      162.067      108.241       60.504    26265.587    11716.054     3660.742        5.743        2.082      269.952       80.511        0.089      347.346       26.245      864.658
04/27/2013  16:02:00     -116.919       66.364       17.665      129.345       87.186       58.885    16730.088     7601.339     3467.418        2.309        1.390      134.440       60.959        0.206      347.678       26.819      864.662
04/27/2013  16:03:00     -103.149      224.002      -24.394      105.682      116.374       58.063    11168.753    13543.015     3371.340        4.474        1.404      246.610       77.594        0.099      347.307       26.178      864.647
04/27/2013  16:04:00      -67.966      208.842      -11.707       63.717       68.885       43.314     4059.896     4745.086     1876.104        2.952        0.534      219.624       40.078        0.033      347.319       26.198      864.618
04/27/2013  16:05:00     -149.854      230.430      -27.697       92.393      100.458       51.448     8536.459    10091.741     2646.895        4.879        1.064      274.871       57.781        0.044      347.449       26.423      864.594
04/27/2013  16:06:00      -33.436       63.975       29.288       52.715       54.811       36.301     2778.853     3004.253     1317.762        0.658        0.355       72.186       28.698        0.158      347.917       27.235      864.559
04/27/2013  16:07:00      -24.046      -26.247        0.973       65.036       58.726       35.840     4229.737     3448.797     1284.528        0.511        0.448       35.597       33.824        0.903      347.750       26.945      864.525
04/27/2013  16:08:00     -177.840      -63.409        7.814       74.213       71.635       47.233     5507.617     5131.535     2230.952        2.429        0.644      188.807       39.964        0.045      347.733       26.913      864.520
04/27/2013  16:09:00      -58.753      117.945        4.607       67.500      100.093       44.844     4556.271    10018.678     2011.005        1.698        0.829      131.768       42.027        0.102      347.583       26.656      864.530
04/27/2013  16:10:00      -68.586       63.525        2.736       71.696       84.473       49.078     5140.329     7135.720     2408.648        1.171        0.734       93.484       26.475        0.080      347.855       27.127      864.512
04/27/2013  16:11:00     -217.904      -44.751       -5.579      134.586       80.859       57.462    18113.285     6538.167     3301.830        3.873        1.398      222.452       71.399        0.103      347.644       26.758      864.525
04/27/2013  16:12:00     -187.051      -52.204       -5.064       90.570       87.657       49.140     8202.998     7683.837     2414.747        2.802        0.915      194.199       51.397        0.070      347.424       26.379      864.513
04/27/2013  16:13:00      -55.309      -38.028        6.454       47.800       39.651       28.042     2284.874     1572.240      786.332        0.459        0.232       67.121       27.644        0.170      347.444       26.418      864.486
04/27/2013  16:14:00      -48.963       -2.839        1.030       41.175       54.857       24.728     1695.405     3009.305      611.461        0.386        0.266       49.046       16.971        0.120      347.691       26.845      864.483
04/27/2013  16:15:00      -83.430       43.149      -15.067       69.657       63.651       49.112     4852.035     4051.500     2411.964        1.018        0.566       93.928       36.211        0.149      347.744       26.935      864.492
04/27/2013  16:16:00     -260.191      133.229      -33.495       97.068       96.051       41.759     9422.195     9225.708     1743.805        5.348        1.020      292.317       32.807        0.013      347.424       26.380      864.490
04/27/2013  16:17:00     -195.841      114.130      -20.044      110.544      111.335       63.328    12220.004    12395.377     4010.489        4.020        1.431      226.670       62.268        0.075      347.685       26.830      864.466
04/27/2013  16:18:00     -152.236       -5.652       -5.147      132.841       73.179       45.397    17646.612     5355.192     2060.882        2.414        1.253      152.341       44.457        0.085      347.753       26.948      864.440
04/27/2013  16:19:00     -217.513     -134.784       -4.836      159.586      120.675       73.857    25467.699    14562.454     5454.880        5.548        2.274      255.888       87.327        0.116      347.705       26.866      864.429
04/27/2013  16:20:00     -223.474       65.078       -2.197      188.946      125.506       66.937    35700.499    15751.638     4480.594        5.505        2.797      232.757       54.409        0.055      347.977       27.334      864.462
04/27/2013  16:21:00     -330.120     -131.843      -22.565      135.541      100.960       58.556    18371.261    10192.860     3428.808        7.943        1.600      355.474       55.813        0.025      347.673       26.807      864.468
04/27/2013  16:22:00     -110.378       11.639       14.817      141.027      103.011       68.919    19888.613    10611.203     4749.795        2.389        1.762      110.990       78.274        0.497      347.636       26.747      864.460
04/27/2013  16:23:00     -123.502      -63.894       -8.019       96.165       88.985       47.059     9247.680     7918.411     2214.532        1.939        0.969      139.051       50.570        0.132      347.618       26.718      864.423
04/27/2013  16:24:00     -338.206     -313.132        0.118      183.133      151.514       94.373    33537.722    22956.552     8906.277       13.890        3.270      460.907       87.473        0.036      347.282       26.136      864.411
04/27/2013  16:25:00     -348.001     -275.146        1.568      171.724      122.138       81.335    29489.300    14917.761     6615.354       12.391        2.551      443.632       88.723        0.040      347.232       26.048      864.435
04/27/2013  16:26:00     -289.890     -307.956      -17.162      193.440      175.755       81.762    37418.987    30889.803     6685.072       12.707        3.750      422.935       75.626        0.032      347.218       26.025      864.383
04/27/2013  16:27:00     -473.352     -119.612      -39.447      168.783      134.740       76.845    28487.552    18154.756     5905.201       14.623        2.627      488.230       84.477        0.030      347.415       26.363      864.379
04/27/2013  16:28:00     -418.422      -93.566      -21.831      152.272      132.349       75.065    23186.849    17516.329     5634.815       11.531        2.317      428.756       74.287        0.030      347.523       26.550      864.356
04/27/2013  16:29:00     -241.496     -181.238       11.747      212.900      175.515       94.019    45326.498    30805.570     8839.480        8.812        4.249      301.940      119.002        0.155      347.607       26.695      864.370
04/27/2013  16:30:00     -398.274     -196.531       -4.318      223.170      134.594       81.128    49804.832    18115.640     6581.713       13.587        3.725      444.124      102.638        0.053      347.500       26.511      864.386
04/27/2013  16:31:00     -395.188      -41.155      -19.850      268.244      155.124       91.467    71954.897    24063.525     8366.257       13.130        5.219      397.326       95.493        0.058      347.436       26.401      864.407
04/27/2013  16:32:00     -265.478      -56.652       15.953      314.779      151.603       94.441    99085.982    22983.455     8919.189       10.244        6.549      271.455      132.519        0.238      347.475       26.468      864.314
04/27/2013  16:33:00     -425.708       -4.444       -3.667      165.164      154.293       89.454    27278.996    23806.209     8001.940       12.016        2.954      425.731       82.065        0.037      347.714       26.879      864.328
04/27/2013  16:34:00     -227.161     -120.076       12.291      175.793      173.025       81.476    30903.131    29937.602     6638.339        6.681        3.374      256.944      108.007        0.177      347.642       26.755      864.382
04/27/2013  16:35:00     -312.360     -243.516      -27.434      171.971      143.477       74.016    29574.017    20585.704     5478.361       10.662        2.782      396.067       76.616        0.037      347.581       26.651      864.409
04/27/2013  16:36:00     -386.043     -176.145       -1.907      210.313      158.227       92.228    44231.702    25035.780     8505.933       12.890        3.889      424.331      104.880        0.061      347.306       26.176      864.416
04/27/2013  16:37:00     -382.129     -118.807      -19.604      181.585      132.840       84.309    32973.065    17646.396     7108.082       10.911        2.886      400.172       96.200        0.058      347.295       26.158      864.440
04/27/2013  16:38:00     -423.759     -175.218        2.508      203.365      235.965       92.509    41357.133    55679.325     8557.863       15.792        5.280      458.556       90.826        0.039      347.349       26.251      864.439
04/27/2013  16:39:00     -381.049     -186.929       -3.352      204.364      169.592       87.650    41764.761    28761.506     7682.496       12.916        3.910      424.430       92.350        0.047      347.275       26.122      864.457
04/27/2013  16:40:00     -290.920     -201.170      -15.701      178.276      108.857       80.489    31782.331    11849.787     6478.403        8.772        2.506      353.700       90.274        0.065      347.247       26.075      864.486
04/27/2013  16:41:00     -359.217     -118.586      -14.403      157.690      160.939       80.778    24866.134    25901.506     6525.016       10.029        2.865      378.285       72.045        0.036      347.217       26.022      864.457
04/27/2013  16:42:00     -269.589      -90.081        0.209      131.037      132.803       61.293    17170.571    17636.657     3756.877        5.967        1.928      284.241       57.213        0.041      347.405       26.347      864.453
04/27/2013  16:43:00     -345.855     -229.363       -7.823      190.637      151.664       93.842    36342.354    23001.853     8806.280       12.020        3.408      414.998      106.283        0.066      347.302       26.169      864.431
04/27/2013  16:44:00     -248.000     -254.094       -0.563      211.617      171.409      100.975    44781.922    29381.205    10195.875       10.520        4.218      355.060      101.980        0.082      347.303       26.170      864.432
04/27/2013  16:45:00      -91.575     -224.075        7.645      142.935      137.221       77.316    20430.535    18829.517     5977.836        5.194        2.262      242.065       56.377        0.054      347.224       26.036      864.440
04/27/2013  16:46:00     -292.098     -207.711        2.344      122.807      115.092       65.531    15081.476    13246.110     4294.329        8.054        1.631      358.420       58.458        0.027      347.177       25.954      864.405
04/27/2013  16:47:00     -221.435     -136.983       -0.704      129.968      115.002       56.611    16891.698    13225.568     3204.789        5.055        1.666      260.380       69.106        0.070      347.230       26.044      864.403
04/27/2013  16:48:00     -306.669     -142.733       -2.065      199.335      126.706       78.712    39734.275    16054.524     6195.551        8.819        3.099      338.258      102.559        0.092      347.503       26.515      864.393
04/27/2013  16:49:00     -377.571     -162.682       -4.456      213.245      161.581       81.301    45473.222    26108.502     6609.928       12.360        3.910      411.127      104.799        0.065      347.373       26.290      864.411
04/27/2013  16:50:00     -353.925     -178.937      -17.705      187.727      150.510       87.523    35241.565    22653.381     7660.340       11.156        3.278      396.587       96.394        0.059      347.270       26.115      864.459
04/27/2013  16:51:00     -244.222     -168.870        0.841      185.259      141.029       87.361    34320.817    19889.072     7631.994        7.499        3.092      296.920       93.227        0.099      347.151       25.910      864.455
04/27/2013  16:52:00     -263.739      -26.278      -34.566      147.575       74.358       50.596    21778.511     5529.070     2559.957        5.065        1.493      265.045       67.654        0.065      347.029       25.699      864.447
04/27/2013  16:53:00     -161.696      -51.200       -7.829      151.185      142.822       61.569    22857.008    20398.035     3790.690        3.793        2.352      169.609       62.203        0.135      347.258       26.094      864.443
04/27/2013  16:54:00      -94.101        4.963        2.469      138.868      112.558       72.041    19284.278    12669.301     5189.963        2.301        1.857       94.232       72.487        0.592      347.368       26.286      864.409
04/27/2013  16:55:00     -218.607      -82.228        2.710      194.519      110.416       48.898    37837.607    12191.798     2390.984        5.348        2.621      233.560       74.500        0.102      347.446       26.419      864.370
04/27/2013  16:56:00     -425.461       54.639      -40.627      146.648      121.229       72.423    21505.634    14696.524     5245.092       11.354        2.072      428.955       56.260        0.017      347.300       26.166      864.364
04/27/2013  16:57:00     -393.550      -85.592      -33.971      222.937      133.496       67.164    49700.695    17821.260     4510.959       11.768        3.602      402.750       88.411        0.048      347.314       26.188      864.364
04/27/2013  16:58:00     -521.519     -119.677      -40.892      147.288      139.356       72.793    21693.699    19420.055     5298.753       16.719        2.321      535.074       58.664        0.012      347.341       26.235      864.370
04/27/2013  16:59:00     -324.180      -37.173      -14.700      178.752      105.859       69.908    31952.216    11206.110     4887.166        7.736        2.402      326.305       80.745        0.061      347.409       26.354      864.390
04/27/2013  17:00:00     -323.715       53.458      -20.616      152.767      119.904       70.812    23337.644    14377.022     5014.407        7.539        2.136      328.100       66.592        0.041      347.398       26.335      864.371
04/27/2013  17:01:00     -415.342     -182.451      -12.633      153.894      116.894       72.786    23683.216    13664.137     5297.734       12.429        2.132      453.649       74.200        0.027      347.318       26.198      864.343
04/27/2013  17:02:00     -325.403      -82.898       -9.083      122.084      134.855       66.465    14904.610    18185.794     4417.544        7.517        1.875      335.796       55.157        0.027      347.548       26.593      864.351
04/27/2013  17:03:00     -420.444       57.244      -38.949      169.081       78.693       56.924    28588.443     6192.645     3240.320       10.979        1.901      424.324       70.947        0.028      347.451       26.426      864.355
04/27/2013  17:04:00     -304.064      -93.662      -10.263      134.645      133.293       65.360    18129.190    17766.930     4271.896        7.074        2.008      318.163       48.264        0.023      347.431       26.391      864.319
04/27/2013  17:05:00     -286.026     -154.685        5.330      180.612      138.467       80.370    32620.715    19173.151     6459.278        8.200        2.913      325.174       89.186        0.075      347.449       26.422      864.365
04/27/2013  17:06:00     -320.877      -82.684      -11.358      168.730      150.780       68.571    28469.898    22734.531     4701.954        8.291        2.795      331.359       62.762        0.036      347.351       26.254      864.399
04/27/2013  17:07:00     -339.328      -42.591      -13.978      138.279      107.934       71.452    19121.138    11649.734     5105.351        7.651        1.794      341.990       81.468        0.057      347.153       25.913      864.383
04/27/2013  17:08:00     -435.008      -49.280      -20.516      145.123      123.766       70.727    21060.814    15317.960     5002.323       11.672        2.069      437.791       73.690        0.028      347.110       25.838      864.359
04/27/2013  17:09:00     -325.410     -129.102       -9.590      148.052       97.532       60.520    21919.337     9512.475     3662.635        7.887        1.755      350.084       65.422        0.035      347.243       26.066      864.351
04/27/2013  17:10:00     -291.900      -30.247      -22.849       95.390       60.871       50.364     9099.268     3705.218     2536.541        5.099        0.767      293.463       48.216        0.027      347.205       26.000      864.337
04/27/2013  17:11:00     -228.247      -65.238       -0.274       83.876       69.082       42.406     7035.132     4772.362     1798.261        3.498        0.680      237.388       35.150        0.022      347.385       26.312      864.325
04/27/2013  17:12:00     -179.233      -14.625       -6.453       96.810       87.079       48.315     9372.151     7582.690     2334.335        2.583        0.964      179.829       38.962        0.047      347.636       26.748      864.339
04/27/2013  17:13:00     -456.776     -129.813      -37.844      213.449      194.090       86.372    45560.359    37670.746     7460.203       15.879        4.535      474.864       97.192        0.042      347.236       26.056      864.338
04/27/2013  17:14:00     -394.585     -136.098      -11.607      200.685      163.867       75.863    40274.445    26852.529     5755.266       12.360        3.644      417.396       64.730        0.024      347.236       26.055      864.331
04/27/2013  17:15:00     -595.049      -11.667      -42.387      160.098      161.772       78.343    25631.378    26170.138     6137.688       20.697        2.897      595.164       81.122        0.019      347.135       25.881      864.340
04/27/2013  17:16:00     -448.637     -138.868      -11.911      155.526      110.731       67.881    24188.473    12261.308     4607.762       13.087        2.053      469.638       73.429        0.024      347.106       25.832      864.329
04/27/2013  17:17:00     -292.321     -173.819       -0.638      170.994      117.057       82.571    29238.798    13702.417     6817.998        8.270        2.488      340.095       74.711        0.048      347.245       26.072      864.310
04/27/2013  17:18:00     -286.580     -125.001       -5.530      232.993      147.020       88.591    54285.817    21614.941     7848.392        9.075        4.187      312.655      111.340        0.127      347.286       26.142      864.312
04/27/2013  17:19:00     -319.439      -35.774      -14.932      164.714      107.863       69.751    27130.790    11634.464     4865.243        7.358        2.182      321.436       81.403        0.064      347.325       26.210      864.335
04/27/2013  17:20:00     -386.155      -65.765      -10.172      144.292      148.536       69.614    20820.115    22063.086     4846.143       10.063        2.386      391.715       76.588        0.038      347.246       26.072      864.350
04/27/2013  17:21:00     -304.258       14.377      -18.048      143.321       89.343       53.648    20540.821     7982.194     2878.103        6.225        1.570      304.597       66.971        0.048      347.257       26.090      864.341
04/27/2013  17:22:00     -380.081     -149.529      -22.620      147.222      130.649       68.620    21674.449    17069.146     4708.663       10.538        2.173      408.436       67.632        0.027      347.195       25.984      864.325
04/27/2013  17:23:00     -250.834     -141.169        3.378      134.999      137.914       67.436    18224.767    19020.296     4547.581        6.232        2.090      287.830       69.114        0.058      347.237       26.057      864.330
04/27/2013  17:24:00     -218.151      -49.506       -6.775       85.845       68.425       49.808     7369.397     4681.914     2480.847        3.231        0.727      223.698       46.505        0.043      347.309       26.182      864.322
04/27/2013  17:25:00     -347.980     -123.021      -21.691      156.818      108.789       56.869    24591.762    11835.063     3234.098        8.817        1.983      369.086       54.095        0.021      347.218       26.025      864.301
04/27/2013  17:26:00     -316.123     -112.185      -10.805      103.831       97.085       55.649    10780.875     9425.404     3096.795        6.797        1.165      335.439       41.913        0.016      347.242       26.066      864.306
04/27/2013  17:27:00      -98.614      -52.625       11.367      101.256       93.293       50.275    10252.842     8703.647     2527.542        1.705        1.074      111.777       45.465        0.165      347.479       26.479      864.296
04/27/2013  17:28:00     -411.860      -13.332      -26.097      146.365      157.424       71.573    21422.769    24782.372     5122.712       11.090        2.566      412.075       67.845        0.027      347.241       26.065      864.300
04/27/2013  17:29:00     -298.359      -35.201      -18.762      152.991      135.247       66.027    23406.370    18291.655     4359.583        6.832        2.303      300.428       66.288        0.049      347.262       26.102      864.294
04/27/2013  17:30:00     -476.084     -166.569        0.318      178.583      156.800       84.011    31891.993    24586.360     7057.892       15.896        3.177      504.382       87.504        0.030      347.022       25.688      864.262
04/27/2013  17:31:00     -414.162     -132.402       -0.185      194.730      152.634       82.711    37919.669    23297.087     6841.157       12.855        3.403      434.811       98.564        0.051      347.099       25.818      864.264
04/27/2013  17:32:00     -335.636      -91.202      -26.966      149.502      144.769       67.432    22350.822    20957.944     4547.018        8.477        2.393      347.806       52.236        0.023      347.318       26.197      864.258
04/27/2013  17:33:00     -427.193     -244.310      -16.821      176.737      146.125       84.674    31236.093    21352.374     7169.683       15.110        2.988      492.119       71.487        0.021      347.128       25.869      864.274
04/27/2013  17:34:00     -352.344     -117.627      -12.281      182.447      162.007       85.466    33286.877    26246.157     7304.403       10.247        3.342      371.460       96.744        0.068      347.043       25.723      864.312
04/27/2013  17:35:00     -118.255     -101.257       19.474      160.574      121.241       77.131    25783.886    14699.364     5949.136        3.552        2.322      155.683       89.462        0.330      347.182       25.964      864.302
04/27/2013  17:36:00     -178.623     -159.937       15.517      162.543      122.704       79.580    26420.189    15056.251     6332.974        5.276        2.390      239.763       90.735        0.143      347.143       25.896      864.300
04/27/2013  17:37:00     -198.276     -101.765       -5.617      100.053       91.550       52.311    10010.612     8381.470     2736.423        3.541        1.056      222.867       30.010        0.018      347.215       26.020      864.298
04/27/2013  17:38:00     -143.891      -93.328       13.786      154.086      111.650       63.241    23742.451    12465.660     3999.433        3.490        2.010      171.507       70.593        0.169      347.244       26.071      864.287
04/27/2013  17:39:00     -308.356     -176.559      -12.918      191.515      132.082       90.069    36678.029    17445.527     8112.495        9.432        3.112      355.326       75.964        0.046      347.192       25.980      864.270
04/27/2013  17:40:00     -398.682     -229.092      -18.469      224.423      170.848       91.860    50365.671    29188.903     8438.240       14.986        4.400      459.815       96.781        0.044      346.997       25.644      864.260
04/27/2013  17:41:00     -238.086     -135.004       15.200      208.994      144.817       87.653    43678.378    20971.994     7683.070        7.372        3.617      273.699      108.049        0.156      347.126       25.867      864.250
04/27/2013  17:42:00     -390.554     -105.594       -9.721      221.224      148.677       89.454    48939.876    22104.794     8002.001       12.140        3.952      404.577      103.182        0.065      347.062       25.756      864.280
04/27/2013  17:43:00     -438.223     -242.590      -13.826      236.744      152.954       82.693    56047.931    23395.045     6838.078       16.866        4.314      500.888       87.869        0.031      346.861       25.409      864.290
04/27/2013  17:44:00     -401.039     -304.942      -18.159      225.255      171.979      103.039    50739.722    29576.671    10617.028       17.252        4.547      503.807      114.157        0.051      346.840       25.374      864.259
04/27/2013  17:45:00     -378.816     -272.093      -11.760      271.268      198.152      114.246    73586.294    39264.321    13052.186       17.176        6.295      466.408      135.740        0.085      346.863       25.413      864.272
04/27/2013  17:46:00     -276.583     -203.263        1.380      196.338      163.465       86.232    38548.685    26720.812     7435.942        9.525        3.635      343.240      112.516        0.107      346.955       25.570      864.284
04/27/2013  17:47:00     -284.704     -202.507       13.235      183.401      167.225       90.432    33635.885    27964.276     8178.011        9.600        3.489      349.379       89.353        0.065      346.966       25.590      864.295
04/27/2013  17:48:00     -253.677      -97.683        6.262      201.534      148.749       88.416    40615.864    22126.254     7817.319        7.223        3.528      271.835       99.836        0.135      346.955       25.572      864.295
04/27/2013  17:49:00     -416.023     -192.759      -25.723      186.733      115.293       88.918    34869.153    13292.496     7906.380       13.347        2.803      458.510      103.857        0.051      346.866       25.417      864.292
04/27/2013  17:50:00     -256.794      -95.285       22.346      220.583      146.978       78.470    48657.055    21602.409     6157.587        7.595        3.821      273.902       92.794        0.115      346.967       25.595      864.275
04/27/2013  17:51:00     -307.728      -73.055      -12.077      242.654      185.046      107.595    58880.798    34242.009    11576.628       10.242        5.235      316.281      112.633        0.127      346.944       25.553      864.282
04/27/2013  17:52:00     -497.908     -215.365      -34.574      203.596      165.971       79.017    41451.150    27546.313     6243.676       18.535        3.762      542.489       86.593        0.025      346.815       25.330      864.271
04/27/2013  17:53:00     -464.143     -208.920      -24.478      166.062      133.338       81.566    27576.713    17779.041     6653.012       15.583        2.600      508.996       78.167        0.024      346.763       25.242      864.286
04/27/2013  17:54:00     -265.263     -135.456       -8.491      114.290       83.449       58.202    13062.188     6963.692     3387.501        5.609        1.171      297.847       57.121        0.037      346.922       25.515      864.283
04/27/2013  17:55:00     -349.197       -7.846       -2.141      193.328      177.330       87.769    37375.796    31445.921     7703.388        9.925        3.826      349.285       68.613        0.039      347.015       25.675      864.256
04/27/2013  17:56:00     -349.110     -245.839       -4.197      202.630      171.333      100.110    41058.911    29354.947    10021.986       13.137        4.022      426.983      102.278        0.057      346.900       25.476      864.256
04/27/2013  17:57:00     -277.937     -160.487      -20.875      173.423      168.570       84.940    30075.454    28415.752     7214.731        8.456        3.285      320.944       99.376        0.096      346.852       25.394      864.273
04/27/2013  17:58:00     -309.532      -70.996      -10.198      167.338      151.374       82.053    28001.902    22914.159     6732.652        7.929        2.882      317.570       82.345        0.067      346.828       25.352      864.259
04/27/2013  17:59:00     -163.388     -134.568       22.821      163.997      151.975       89.799    26895.132    23096.428     8063.896        5.168        2.903      211.670      100.348        0.225      346.771       25.254      864.242
04/27/2013  18:00:00      -86.069      -20.825       16.564      114.239      101.188       58.313    13050.621    10239.018     3400.408        1.740        1.335       88.553       58.349        0.434      346.926       25.523      864.241
04/27/2013  18:01:00     -138.872      -11.630       10.480      141.116      104.498       58.713    19913.708    10919.913     3447.205        2.690        1.714      139.358       69.853        0.251      347.052       25.740      864.246
04/27/2013  18:02:00     -268.972      -48.246       -4.105      182.125      114.116       62.889    33169.649    13022.570     3955.081        6.241        2.507      273.265       68.789        0.063      346.964       25.589      864.250
04/27/2013  18:03:00     -262.231     -133.071       -3.460      192.455      145.121       64.033    37038.945    21060.185     4100.194        7.433        3.110      294.063       80.341        0.075      347.051       25.737      864.244
04/27/2013  18:04:00     -265.219     -195.927       -2.458      178.622      158.134       85.354    31905.692    25006.291     7285.351        8.645        3.210      329.740      102.989        0.098      346.890       25.459      864.235
04/27/2013  18:05:00     -302.717      -70.357      -11.348      139.961      112.847       71.718    19588.974    12734.484     5143.468        6.708        1.873      310.786       54.528        0.031      346.953       25.568      864.237
04/27/2013  18:06:00     -501.033     -125.507      -32.473      221.896      140.007       89.566    49237.879    19601.895     8021.992       17.234        3.843      516.513      102.225        0.039      346.798       25.302      864.234
04/27/2013  18:07:00     -501.772     -179.374      -25.034      190.049      133.905       76.308    36118.670    17930.652     5822.984       17.221        2.994      532.870       77.448        0.021      346.751       25.221      864.246
04/27/2013  18:08:00     -260.041      -96.645      -22.249      156.766      121.932       54.578    24575.428    14867.506     2978.704        5.993        2.121      277.419       53.531        0.037      346.890       25.460      864.248
04/27/2013  18:09:00     -458.153     -142.627      -17.222      189.012      164.047       83.021    35725.546    26911.360     6892.497       15.002        3.476      479.840       91.272        0.036      346.791       25.289      864.247
04/27/2013  18:10:00     -434.203      -13.266      -31.515      225.432      152.835       72.980    50819.752    23358.666     5326.073       13.459        3.975      434.406       93.598        0.046      346.812       25.325      864.241
04/27/2013  18:11:00     -464.825     -158.405      -14.397      153.992      116.234       63.585    23713.689    13510.344     4043.011       14.131        2.063      491.075       53.824        0.012      346.682       25.101      864.234
04/27/2013  18:12:00     -261.444      -24.756       -9.256       98.676      101.656       48.534     9736.895    10333.859     2355.544        4.573        1.121      262.613       40.180        0.023      346.864       25.414      864.248
04/27/2013  18:13:00     -183.510      -57.210       -5.219      149.597      150.534       61.146    22379.220    22660.625     3738.779        4.287        2.439      192.221       61.607        0.103      346.905       25.487      864.251
04/27/2013  18:14:00     -167.892      -40.494       17.293      195.082      119.631       80.098    38057.151    14311.599     6415.620        4.444        2.939      172.707       98.254        0.324      346.899       25.478      864.247
04/27/2013  18:15:00     -270.023      -36.367      -13.942      146.877      112.642       71.178    21572.888    12688.258     5066.290        5.687        1.966      272.461       79.519        0.085      346.917       25.507      864.261
04/27/2013  18:16:00     -429.116     -127.821      -24.591      139.236      124.048       68.520    19386.780    15387.917     4694.929       12.027        1.973      447.749       72.332        0.026      346.773       25.257      864.259
04/27/2013  18:17:00     -446.644      -76.382      -29.738      128.426      127.581       71.220    16493.174    16276.872     5072.278       12.202        1.892      453.128       73.210        0.026      346.757       25.230      864.266
04/27/2013  18:18:00     -326.793     -130.501      -15.939      141.229      123.560       61.545    19945.594    15267.161     3787.843        8.153        1.950      351.886       71.250        0.041      346.794       25.293      864.263
04/27/2013  18:19:00     -224.423      -99.731      -11.557      125.569      122.061       52.830    15767.559    14898.770     2790.983        4.694        1.673      245.585       43.901        0.032      346.845       25.383      864.260
04/27/2013  18:20:00     -275.035     -169.949       -3.336      188.872      148.658       82.450    35672.785    22099.191     6797.928        8.454        3.228      323.306       95.294        0.087      346.770       25.253      864.249
04/27/2013  18:21:00     -472.936     -116.187      -20.279      191.889      166.747       81.699    36821.282    27804.534     6674.712       15.443        3.565      486.999       79.181        0.026      346.696       25.126      864.233
04/27/2013  18:22:00     -327.971      -91.355        3.187      191.868      153.885       74.245    36813.269    23680.702     5512.319        9.095        3.300      340.457       79.598        0.055      346.763       25.241      864.239
04/27/2013  18:23:00     -422.993     -220.196       -6.820      173.155      221.629       80.784    29982.590    49119.346     6526.111       15.653        4.281      476.875       73.733        0.024      346.683       25.102      864.260
04/27/2013  18:24:00     -340.955      -51.228      -10.645      192.338      157.782       71.290    36993.836    24895.118     5082.206        9.297        3.349      344.782       72.451        0.044      346.723       25.170      864.251
04/27/2013  18:25:00     -278.525     -105.900       -9.003      226.576      137.989       73.816    51336.515    19040.956     5448.823        8.233        3.791      297.978       86.419        0.084      346.745       25.210      864.272
04/27/2013  18:26:00     -274.291     -167.276       -7.175      169.030      119.134       68.066    28571.267    14192.924     4632.926        7.532        2.370      321.274       60.182        0.035      346.668       25.078      864.265
04/27/2013  18:27:00     -457.791      -96.605      -39.512      166.696      122.924       84.031    27787.448    15110.344     7061.168       13.520        2.498      467.873       91.619        0.038      346.622       25.000      864.247
04/27/2013  18:28:00     -342.262     -163.285        6.747      179.869      156.057       84.773    32352.996    24353.702     7186.402       10.386        3.195      379.216       83.190        0.048      346.612       24.981      864.255
04/27/2013  18:29:00     -333.620     -206.334        0.347      222.428      174.052      103.402    49474.133    30294.166    10692.021       12.215        4.523      392.270      126.082        0.103      346.471       24.739      864.237
04/27/2013  18:30:00     -388.993     -215.926        0.117      202.364      218.258       86.664    40951.079    47636.755     7510.707       14.700        4.805      444.904      106.726        0.058      346.491       24.774      864.243
04/27/2013  18:31:00     -247.239     -151.200      -11.653      192.940      130.614       75.566    37225.904    17060.119     5710.208        7.205        3.000      289.808       81.491        0.079      346.531       24.843      864.228
04/27/2013  18:32:00     -203.922      -44.965       13.904      149.762      102.870       70.119    22428.741    10582.307     4916.642        4.086        1.896      208.821       46.738        0.050      346.674       25.089      864.232
04/27/2013  18:33:00     -206.497      -81.106        5.911      123.487       89.916       54.686    15249.036     8084.885     2990.518        3.778        1.316      221.854       62.820        0.080      346.654       25.053      864.233
04/27/2013  18:34:00     -161.648     -115.816        9.443      185.081      133.492       67.743    34254.915    17819.999     4589.071        4.814        2.833      198.856       78.333        0.155      346.757       25.232      864.222
04/27/2013  18:35:00     -245.418     -137.387        0.212      178.801      115.087       70.366    31969.680    13244.979     4951.354        6.463        2.508      281.256       77.592        0.076      346.603       24.965      864.218
04/27/2013  18:36:00     -540.612     -148.338      -37.563      206.140      129.581       91.062    42493.524    16791.329     8292.275       19.161        3.379      560.594      102.200        0.033      346.472       24.740      864.195
04/27/2013  18:37:00     -278.411     -119.786        6.405      221.465      161.027      106.688    49046.931    25929.746    11382.307        8.911        4.318      303.086      121.850        0.162      346.479       24.754      864.195
04/27/2013  18:38:00     -279.549        1.280      -11.285      106.218      129.930       63.028    11282.228    16881.909     3972.577        5.520        1.607      279.552       47.046        0.028      346.555       24.884      864.223
04/27/2013  18:39:00     -290.201       19.762      -19.002      126.487       93.196       58.220    15999.059     8685.453     3389.557        5.652        1.404      290.874       57.811        0.040      346.606       24.970      864.229
04/27/2013  18:40:00     -288.073      -88.954      -18.650      145.308       94.138       65.930    21114.358     8861.881     4346.801        6.278        1.716      301.494       65.599        0.047      346.545       24.868      864.236
04/27/2013  18:41:00     -298.332     -138.059       10.041      224.434      149.985       91.404    50370.572    22495.352     8354.743        9.468        4.061      328.728       87.064        0.070      346.498       24.786      864.224
04/27/2013  18:42:00     -380.838     -208.102      -15.272      135.712      145.486       72.717    18417.719    21166.054     5287.799       11.672        2.244      433.986       75.013        0.030      346.413       24.638      864.216
04/27/2013  18:43:00     -441.804     -105.292      -10.960      194.049      155.544       85.447    37655.018    24193.915     7301.147       13.776        3.458      454.178       81.619        0.032      346.395       24.607      864.239
04/27/2013  18:44:00     -264.998     -109.765       -5.153      216.890      131.179       94.870    47041.308    17207.942     9000.342        7.776        3.662      286.832      110.160        0.148      346.392       24.603      864.234
04/27/2013  18:45:00     -331.490     -106.076      -25.019      170.740      124.697       74.533    29152.068    15549.330     5555.148        8.600        2.513      348.048       72.211        0.043      346.422       24.656      864.239
04/27/2013  18:46:00     -304.433      -94.277       -7.546      177.907      114.118       71.776    31650.872    13023.016     5151.858        7.572        2.491      318.697       82.997        0.068      346.402       24.621      864.243
04/27/2013  18:47:00     -235.543      -18.397      -13.409      119.386      107.704       56.121    14253.028    11600.117     3149.515        4.249        1.450      236.260       44.350        0.035      346.492       24.774      864.254
04/27/2013  18:48:00     -407.822     -105.491      -24.202      161.151      157.104       71.033    25969.689    24681.628     5045.637       11.685        2.785      421.245       70.149        0.028      346.366       24.559      864.232
04/27/2013  18:49:00     -490.856      -72.595      -22.130      187.212      140.788       85.119    35048.273    19821.375     7245.204       15.439        3.106      496.195       94.745        0.036      346.337       24.509      864.239
04/27/2013  18:50:00     -344.143     -108.913       -9.210      178.915      137.158       82.937    32010.460    18812.221     6878.541        9.403        2.885      360.966       83.492        0.054      346.315       24.470      864.237
04/27/2013  18:51:00     -295.776     -130.208        2.942      184.783      151.805       76.183    34144.663    23044.847     5803.893        8.371        3.150      323.168       75.777        0.055      346.287       24.422      864.244
04/27/2013  18:52:00     -405.791      -76.833       -2.023      220.405      136.398       79.924    48578.272    18604.444     6387.922       12.206        3.679      413.001      103.103        0.062      346.250       24.360      864.254
04/27/2013  18:53:00     -229.887      -29.896       -0.726      194.346      125.421       74.165    37770.253    15730.368     5500.401        5.636        2.950      231.823       85.437        0.136      346.288       24.424      864.249
04/27/2013  18:54:00     -268.486      -60.778       -3.408      141.848      106.797       63.571    20120.739    11405.655     4041.302        5.567        1.778      275.280       63.531        0.053      346.281       24.412      864.265
04/27/2013  18:55:00     -273.852      -44.486        7.696      221.037      119.704       73.077    48857.320    14329.040     5340.192        7.277        3.426      277.441       91.169        0.108      346.251       24.361      864.271
04/27/2013  18:56:00     -405.069      -42.386      -40.935      152.899       93.796       64.495    23378.067     8797.713     4159.654       10.194        1.817      407.280       61.676        0.023      346.228       24.321      864.265
04/27/2013  18:57:00     -349.667       41.108       -8.301      203.435      128.741       73.749    41385.941    16574.163     5438.951        9.370        3.170      352.075       82.892        0.055      346.221       24.309      864.282
04/27/2013  18:58:00     -377.588     -105.182      -10.334      163.390      105.522       71.535    26696.358    11134.913     5117.203        9.834        2.147      391.965       70.085        0.032      346.196       24.263      864.291
04/27/2013  18:59:00     -194.025      -87.520        9.577      198.047      144.400       89.255    39222.732    20851.241     7966.506        5.671        3.402      212.851       91.945        0.187      346.226       24.319      864.294
04/27/2013  19:00:00     -374.872     -143.394      -26.738      183.801      148.530       77.496    33782.705    22061.037     6005.574       11.182        3.092      401.361       76.860        0.037      346.163       24.209      864.302
04/27/2013  19:01:00     -436.593     -242.493        1.529      255.359      230.371      112.080    65208.330    53070.617    12562.001       19.010        6.542      499.416      138.003        0.076      346.091       24.086      864.269
04/27/2013  19:02:00     -364.382     -243.892       -7.667      273.149      193.417      135.381    74610.301    37410.202    18327.920       16.131        6.517      438.472      129.818        0.088      346.065       24.042      864.248
04/27/2013  19:03:00     -309.913      -13.885        8.376      220.374      135.574       95.164    48564.580    18380.207     9056.096        8.614        3.800      310.224      106.997        0.119      346.082       24.070      864.300
04/27/2013  19:04:00     -356.195     -160.444       -9.108      208.891      148.702       81.353    43635.626    22112.155     6618.311       11.252        3.618      390.662       96.942        0.062      346.075       24.058      864.304
04/27/2013  19:05:00     -524.079     -148.396      -23.373      239.045      229.139      114.655    57142.477    52504.551    13145.862       20.999        6.140      544.683      116.604        0.046      346.024       23.970      864.301
04/27/2013  19:06:00     -339.166      -88.151        5.633      192.376      155.259       94.751    37008.688    24105.437     8977.750        9.645        3.505      350.434       88.787        0.064      346.027       23.976      864.295
04/27/2013  19:07:00     -510.787     -134.303      -29.040      238.289      185.161       97.560    56781.628    34284.438     9517.919       19.016        5.029      528.148      105.629        0.040      345.983       23.899      864.300
04/27/2013  19:08:00     -317.210     -103.492      -19.987      189.628      140.729       81.249    35958.742    19804.584     6601.392        8.704        3.118      333.666       84.053        0.063      346.001       23.931      864.330
04/27/2013  19:09:00     -136.271      -62.076        4.300      134.626      115.625       62.871    18124.054    13369.130     3952.712        2.894        1.772      149.744       64.521        0.186      346.024       23.971      864.344
04/27/2013  19:10:00     -226.758      -94.853       -0.160      110.235      131.242       66.902    12151.691    17224.523     4475.833        4.713        1.693      245.797       52.529        0.046      345.992       23.918      864.342
04/27/2013  19:11:00     -202.747      -18.407       25.462      170.042      107.436       94.418    28914.127    11542.544     8914.789        4.572        2.469      203.580      105.134        0.267      345.992       23.915      864.338
04/27/2013  19:12:00     -453.617      -65.324      -13.557      219.763      177.830      104.325    48295.782    31623.531    10883.740       15.049        4.540      458.297       98.211        0.046      345.915       23.785      864.330
04/27/2013  19:13:00     -266.642      -98.057        5.824      159.884      175.749       82.152    25562.952    30887.870     6748.886        7.196        3.160      284.101       84.812        0.089      345.892       23.744      864.359
04/27/2013  19:14:00     -292.778     -144.247       -7.665      196.326      128.763       91.896    38543.825    16579.864     8444.853        8.506        3.178      326.384      103.335        0.100      345.881       23.726      864.345
04/27/2013  19:15:00     -398.841      -52.304      -22.075      190.424      105.255       75.064    36261.114    11078.650     5634.646       10.763        2.649      402.256       87.070        0.047      345.878       23.720      864.365
04/27/2013  19:16:00     -226.005      -33.172        5.886      212.777      108.694       61.711    45274.177    11814.370     3808.191        5.654        3.045      228.427       77.520        0.115      345.905       23.768      864.385
04/27/2013  19:17:00     -381.158      -97.716      -23.742      137.789      123.025       62.198    18985.804    15135.075     3868.562        9.668        1.899      393.484       54.195        0.019      345.861       23.691      864.381
04/27/2013  19:18:00     -290.107     -113.860      -13.591      130.240      104.771       57.316    16962.508    10977.007     3285.144        6.426        1.561      311.651       50.841        0.027      345.837       23.650      864.404
04/27/2013  19:19:00     -371.311      -15.592      -15.096      121.109      120.347       57.940    14667.274    14483.499     3357.071        8.542        1.625      371.638       60.757        0.027      345.805       23.595      864.404
04/27/2013  19:20:00     -370.550      -55.079      -18.577      122.161      155.949       55.722    14923.396    24320.024     3104.973        9.151        2.117      374.621       53.095        0.020      345.800       23.587      864.405
04/27/2013  19:21:00     -385.996     -115.497      -15.683      174.319      110.799       71.151    30387.266    12276.357     5062.481       10.514        2.386      402.905       83.164        0.043      345.758       23.515      864.412
04/27/2013  19:22:00     -247.492     -119.102       -7.536      183.445      141.108       82.854    33652.073    19911.367     6864.775        6.795        3.021      274.659       83.007        0.091      345.766       23.529      864.413
04/27/2013  19:23:00     -244.301     -154.119       -9.337      173.651      168.616       81.820    30154.717    28431.311     6694.560        7.439        3.264      288.852       90.758        0.099      345.737       23.479      864.397
04/27/2013  19:24:00     -248.269      -71.606      -13.321      164.031      104.130       63.525    26906.299    10843.058     4035.450        5.436        2.089      258.389       72.172        0.078      345.720       23.450      864.424
04/27/2013  19:25:00     -369.406      -61.275       -8.470      204.183      132.409       84.835    41690.796    17532.079     7196.959       10.334        3.321      374.453       90.394        0.058      345.704       23.421      864.415
04/27/2013  19:26:00     -369.595      -52.201      -20.136      182.746      135.675       68.106    33396.277    18407.648     4638.488        9.808        2.822      373.264       62.688        0.028      345.684       23.387      864.410
04/27/2013  19:27:00     -264.053     -187.562      -16.956      158.043      110.231       70.701    24977.621    12150.789     4998.602        7.365        2.106      323.888       83.664        0.067      345.663       23.349      864.412
04/27/2013  19:28:00     -232.846     -150.613      -13.165      121.908      113.847       64.444    14861.582    12961.163     4152.966        5.452        1.599      277.311       64.818        0.055      345.614       23.267      864.417
04/27/2013  19:29:00     -204.990      -71.644       16.922      143.730      155.897       78.276    20658.308    24303.895     6127.094        4.925        2.554      217.149       87.598        0.163      345.595       23.235      864.414
04/27/2013  19:30:00     -270.231      -68.046       10.681      153.319      133.452       76.413    23506.754    17809.338     5838.950        6.245        2.358      278.666       78.353        0.079      345.591       23.227      864.401
04/27/2013  19:31:00     -486.582     -201.396      -36.996      228.820      171.573       85.739    52358.645    29437.246     7351.237       18.390        4.457      526.614      105.301        0.040      345.556       23.168      864.403
04/27/2013  19:32:00     -185.246      -83.470        1.654      148.842      102.012       62.834    22154.060    10406.493     3948.050        3.889        1.825      203.183       64.919        0.102      345.546       23.153      864.406
04/27/2013  19:33:00     -433.077     -156.421      -14.253      150.899      120.704       68.414    22770.563    14569.375     4680.517       12.712        2.101      460.460       75.866        0.027      345.501       23.074      864.394
04/27/2013  19:34:00     -405.831       19.386      -24.773      186.697      140.243       78.892    34855.753    19667.990     6224.014       11.321        3.037      406.294       79.363        0.038      345.489       23.051      864.396
04/27/2013  19:35:00     -318.151      -60.643       -2.586      166.118       94.169       67.806    27595.205     8867.775     4597.618        7.297        2.053      323.879       79.206        0.060      345.454       22.990      864.391
04/27/2013  19:36:00     -255.212      -28.015      -10.580      106.861       88.119       62.106    11419.353     7764.955     3857.126        4.453        1.152      256.745       58.574        0.052      345.443       22.973      864.392
04/27/2013  19:37:00     -220.121      -43.006        5.547      123.539      134.124       64.637    15261.906    17989.256     4177.924        4.387        1.871      224.282       62.901        0.079      345.421       22.936      864.392
04/27/2013  19:38:00     -213.242      -53.551       12.513      121.352      114.033       68.287    14726.405    13003.504     4663.091        4.044        1.620      219.863       62.371        0.080      345.402       22.904      864.385
04/27/2013  19:39:00     -417.928     -180.086      -24.500      165.908      127.639       71.027    27525.306    16291.825     5044.820       12.827        2.443      455.076       74.068        0.026      345.416       22.928      864.378
04/27/2013  19:40:00     -400.882     -134.600       -4.713      166.741      182.687       87.057    27802.726    33374.495     7578.857       12.379        3.438      422.875       89.774        0.045      345.376       22.857      864.364
04/27/2013  19:41:00     -357.202      -57.681       -5.365      156.798      149.288       64.073    24585.655    22286.931     4105.372        9.095        2.549      361.829       67.431        0.035      345.370       22.847      864.385
04/27/2013  19:42:00     -172.814      -42.388       13.151      164.379      145.432       66.327    27020.519    21150.475     4399.274        4.219        2.629      177.937       75.565        0.180      345.311       22.747      864.381
04/27/2013  19:43:00     -148.255      -59.016        6.611      150.725      106.799       55.853    22718.012    11405.932     3119.527        3.137        1.862      159.569       65.683        0.169      345.314       22.754      864.391
04/27/2013  19:44:00     -242.636      -75.927       -7.894      118.932       93.611       50.449    14144.828     8762.940     2545.130        4.507        1.273      254.239       52.280        0.042      345.334       22.786      864.394
04/27/2013  19:45:00     -288.442      -86.441        6.617      195.386      120.703       73.004    38175.630    14569.264     5329.581        7.438        2.904      301.116       82.489        0.075      345.275       22.685      864.394
04/27/2013  19:46:00     -386.599      -47.268      -16.449      143.282       90.966       68.251    20529.696     8274.858     4658.132        9.271        1.673      389.478       77.546        0.040      345.234       22.615      864.405
04/27/2013  19:47:00     -375.669     -189.160       -6.471      210.851      146.050       73.514    44458.132    21330.486     5404.344       12.406        3.560      420.605       95.057        0.051      345.228       22.605      864.405
04/27/2013  19:48:00     -326.457      -68.019       -9.469      172.477      115.220       69.091    29748.338    13275.711     4773.511        7.953        2.390      333.468       70.496        0.045      345.192       22.543      864.413
04/27/2013  19:49:00     -330.492      -74.270       -5.527      177.125      122.954       69.501    31373.425    15117.750     4830.355        8.304        2.566      338.734       77.533        0.052      345.165       22.497      864.415
04/27/2013  19:50:00     -263.956      -17.750       -2.074      136.168      123.609       55.258    18541.856    15279.249     3053.436        5.343        1.844      264.552       45.733        0.030      345.144       22.461      864.436
04/27/2013  19:51:00     -207.939       -8.804        7.275      134.248       90.800       61.092    18022.638     8244.628     3732.228        3.668        1.500      208.125       63.016        0.092      345.138       22.453      864.443
04/27/2013  19:52:00     -283.124      -71.630       -0.371      166.993      144.804       70.811    27886.535    20968.290     5014.150        6.957        2.693      292.044       73.285        0.063      345.096       22.380      864.450
04/27/2013  19:53:00     -309.874      -74.618      -16.769      126.400      108.200       59.333    15977.030    11707.192     3520.418        6.653        1.560      318.731       59.991        0.035      345.091       22.369      864.452
04/27/2013  19:54:00     -237.388      -96.994        1.301      104.648      128.016       55.008    10951.257    16388.133     3025.917        4.806        1.518      256.439       52.927        0.043      345.053       22.307      864.455
04/27/2013  19:55:00     -228.369      -84.455      -16.337      112.229      126.878       65.607    12595.268    16097.936     4304.291        4.627        1.650      243.485       66.665        0.075      345.084       22.358      864.462
04/27/2013  19:56:00     -258.489     -118.600        6.398      193.420      135.075       79.455    37411.251    18245.258     6313.113        7.143        3.098      284.399       89.029        0.098      345.033       22.272      864.464
04/27/2013  19:57:00     -264.401      -67.277       -9.365      190.942      143.078       71.661    36458.805    20471.242     5135.254        6.828        3.103      272.826       92.751        0.116      345.005       22.226      864.483
04/27/2013  19:58:00     -285.852      -60.299       -8.681      110.795      122.559       57.952    12275.436    15020.704     3358.426        5.803        1.533      292.143       55.835        0.037      344.977       22.175      864.532
04/27/2013  19:59:00     -301.705     -223.578       10.206      200.708      206.463       89.916    40283.575    42626.886     8084.881       11.604        4.550      375.517       94.797        0.064      344.968       22.158      864.516
04/27/2013  20:00:00     -341.632      -93.305      -17.958      191.636      124.735       74.914    36724.172    15558.851     5612.178        9.181        2.895      354.144       92.903        0.069      344.924       22.085      864.523
04/27/2013  20:01:00     -265.142     -129.963      -17.142      216.890      150.393       77.367    47041.146    22617.974     5985.658        8.155        3.782      295.280      101.398        0.118      344.895       22.035      864.488
04/27/2013  20:02:00     -363.998     -107.941      -11.642      197.852      165.961       77.891    39145.544    27542.999     6067.072       10.850        3.638      379.666       92.012        0.059      344.927       22.090      864.479
04/27/2013  20:03:00     -201.613      -99.884        1.140      138.187       92.483       67.799    19095.592     8553.156     4596.642        4.143        1.612      224.999       72.517        0.104      344.901       22.046      864.487
04/27/2013  20:04:00     -144.826      -54.865        6.846      171.064      139.592       82.921    29262.726    19486.036     6875.883        3.982        2.781      154.870       47.470        0.094      344.862       21.979      864.472
04/27/2013  20:05:00     -283.646     -115.451       -5.203      192.462      125.951       77.128    37041.497    15863.688     5948.793        7.632        2.943      306.242       94.949        0.096      344.865       21.984      864.468
04/27/2013  20:06:00     -150.305      -30.571       -0.279      127.983       79.878       73.640    16379.713     6380.433     5422.869        2.585        1.409      153.382       65.429        0.182      344.844       21.950      864.464
04/27/2013  20:07:00     -338.883     -160.237      -16.753      158.929      150.466       78.431    25258.454    22639.899     6151.406        9.741        2.702      374.857       69.324        0.034      344.833       21.929      864.458
04/27/2013  20:08:00     -355.765      -44.612       -3.724      169.387      154.933       78.825    28691.809    24004.201     6213.348        9.373        2.945      358.551       70.163        0.038      344.796       21.863      864.461
04/27/2013  20:09:00     -186.476     -116.184       12.007      140.369      125.600       69.652    19703.522    15775.467     4851.422        4.437        2.017      219.709       74.487        0.115      344.780       21.838      864.470
04/27/2013  20:10:00     -238.844      -41.467        1.258      160.957      106.584       70.996    25907.159    11360.239     5040.490        5.053        2.115      242.417       84.350        0.121      344.777       21.832      864.481
04/27/2013  20:11:00     -301.577      -66.974        2.387      200.917      153.768       86.670    40367.571    23644.653     7511.660        8.347        3.576      308.924       88.909        0.083      344.741       21.772      864.489
04/27/2013  20:12:00     -388.173       -8.741      -20.755      154.782      139.780       75.122    23957.415    19538.582     5643.259       10.015        2.457      388.272       66.852        0.030      344.751       21.787      864.502
04/27/2013  20:13:00     -307.954      -94.093        2.767      224.912      123.149       85.061    50585.241    15165.629     7235.370        8.833        3.649      322.008      103.537        0.103      344.700       21.701      864.510
04/27/2013  20:14:00     -556.786     -165.685      -34.829      177.620      157.584       83.923    31548.719    24832.627     7043.000       20.104        3.171      580.915       81.901        0.020      344.737       21.764      864.489
04/27/2013  20:15:00     -251.022      -34.181        0.572      122.034      124.828       63.686    14892.307    15581.972     4055.913        4.935        1.727      253.338       51.209        0.041      344.676       21.661      864.511
04/27/2013  20:16:00     -345.788     -108.528       -5.653      217.723      157.974       90.814    47403.432    24955.890     8247.135       10.598        4.030      362.419      102.704        0.080      344.688       21.681      864.512
04/27/2013  20:17:00     -317.948      -82.898      -11.476      155.482      125.186       72.556    24174.728    15671.544     5264.352        7.659        2.256      328.577       80.284        0.060      344.663       21.637      864.531
04/27/2013  20:18:00     -317.223     -103.441      -25.664      130.162      132.533       64.774    16942.052    17565.116     4195.614        7.534        1.935      333.662       58.221        0.030      344.648       21.610      864.519
04/27/2013  20:19:00     -283.865      -94.374        0.101      179.327      118.731       69.482    32158.201    14097.068     4827.703        7.027        2.554      299.141       75.218        0.063      344.652       21.619      864.518
04/27/2013  20:20:00     -413.524     -132.900      -31.449      221.209      168.874       86.930    48933.212    28518.426     7556.784       13.731        4.250      434.355       92.210        0.045      344.666       21.642      864.510
04/27/2013  20:21:00     -250.996     -128.946        4.475      177.761      138.077       89.895    31599.045    19065.199     8081.177        6.918        2.937      282.181       83.616        0.088      344.654       21.623      864.511
04/27/2013  20:22:00     -311.110      -53.090        0.847      273.896      171.271      109.740    75018.768    29333.867    12042.864       10.798        5.820      315.607      132.272        0.176      344.669       21.647      864.529
04/27/2013  20:23:00     -472.541       -5.232      -11.491      196.930      140.571       98.316    38781.614    19760.283     9665.956       14.582        3.410      472.570      102.834        0.047      344.620       21.565      864.543
04/27/2013  20:24:00     -179.911      -90.660        1.857      166.932      164.098       83.770    27866.226    26928.119     7017.404        5.119        3.091      201.463       86.958        0.186      344.607       21.544      864.539
04/27/2013  20:25:00     -338.380      -71.191      -18.382      157.269      161.907       87.700    24733.564    26213.964     7691.210        8.926        2.932      345.788       86.356        0.062      344.585       21.506      864.527
04/27/2013  20:26:00     -526.551     -132.588      -34.603      210.984      185.655       93.094    44514.079    34467.915     8666.457       19.182        4.382      542.988      102.357        0.036      344.598       21.526      864.530
04/27/2013  20:27:00     -296.957      -18.864       -2.992      144.070      114.079       75.005    20756.182    13014.029     5625.774        6.396        1.970      297.555       80.785        0.074      344.535       21.420      864.558
04/27/2013  20:28:00     -402.943     -145.703      -19.596      193.104      156.413       82.013    37289.240    24465.127     6726.178       12.622        3.424      428.477       80.643        0.035      344.553       21.450      864.538
04/27/2013  20:29:00     -425.225     -124.306      -13.418      217.290      144.692       81.567    47214.921    20935.734     6653.235       13.561        3.740      443.021      101.956        0.053      344.538       21.425      864.544
04/27/2013  20:30:00     -411.216     -148.742       -4.969      257.144      157.683      103.386    66123.011    24863.928    10688.583       14.644        5.084      437.290      116.116        0.071      344.545       21.435      864.543
04/27/2013  20:31:00     -475.123       -5.730      -24.278      183.630      148.258       93.673    33720.093    21980.552     8774.573       14.541        3.224      475.158       93.932        0.039      344.558       21.458      864.539
04/27/2013  20:32:00     -362.351     -134.480      -11.994      203.840      213.913       92.630    41550.766    45758.747     8580.393       12.269        4.794      386.501      102.092        0.070      344.563       21.466      864.550
04/27/2013  20:33:00     -489.679     -114.200      -26.649      180.324      181.618       85.072    32516.670    32984.968     7237.271       16.312        3.637      502.819       91.412        0.033      344.551       21.446      864.580
04/27/2013  20:34:00     -330.635     -149.593      -10.374      191.666      160.710       93.375    36735.688    25827.656     8718.827       10.153        3.564      362.901      100.359        0.076      344.506       21.372      864.612
04/27/2013  20:35:00     -333.407      -99.689       -4.049      246.910      151.215       96.893    60964.395    22865.869     9388.239       10.715        4.661      347.991      119.678        0.118      344.502       21.362      864.620
04/27/2013  20:36:00     -402.219      -71.413      -11.580      175.619      116.730       68.944    30842.075    13626.006     4753.252       10.811        2.461      408.510       78.719        0.037      344.467       21.302      864.647
04/27/2013  20:37:00     -366.222      -47.915      -21.890      150.370      122.080       70.622    22610.988    14903.618     4987.489        8.969        2.125      369.343       72.831        0.039      344.431       21.241      864.637
04/27/2013  20:38:00     -329.892      -54.218       27.553      231.281      157.314       99.708    53490.775    24747.708     9941.681       10.034        4.409      334.318      124.723        0.139      344.410       21.205      864.624
04/27/2013  20:39:00     -288.251      -37.633        6.100      236.234      144.075       87.888    55806.514    20757.693     7724.259        8.440        4.214      290.697      107.406        0.137      344.415       21.214      864.637
04/27/2013  20:40:00     -462.010     -125.252      -17.585      200.464      162.878       81.770    40185.842    26529.229     6686.282       15.141        3.670      478.687       82.944        0.030      344.435       21.247      864.671
04/27/2013  20:41:00     -348.319      -30.490      -19.231      202.286      114.159       72.707    40919.449    13032.278     5286.236        9.092        2.962      349.651       92.682        0.070      344.405       21.196      864.696
04/27/2013  20:42:00     -368.407      -59.525      -22.448      148.596      146.703       63.971    22080.878    21521.630     4092.278        9.372        2.385      373.185       63.162        0.029      344.399       21.187      864.714
04/27/2013  20:43:00     -444.849       32.466      -24.083      189.395      151.062       92.318    35870.570    22819.595     8522.636       13.336        3.361      446.032      105.638        0.056      344.360       21.120      864.710
04/27/2013  20:44:00     -340.519      -78.388       -7.759      150.101      123.898       74.879    22530.185    15350.692     5606.937        8.281        2.174      349.425       77.781        0.050      344.324       21.059      864.725
04/27/2013  20:45:00     -245.974      -27.981        0.475      158.942      131.834       63.429    25262.711    17380.228     4023.205        5.397        2.333      247.560       70.896        0.082      344.309       21.034      864.734
04/27/2013  20:46:00     -248.992      -52.561      -12.687      149.902      104.681       58.323    22470.566    10958.044     3401.515        5.087        1.842      254.479       63.702        0.063      344.319       21.052      864.748
04/27/2013  20:47:00     -240.392      -49.202        0.631      143.483      126.737       62.564    20587.335    16062.388     3914.289        5.038        2.028      245.375       68.995        0.079      344.292       21.004      864.768
04/27/2013  20:48:00     -277.171      -56.473        8.403      165.093      123.753       71.092    27255.797    15314.824     5054.137        6.384        2.381      282.865       77.430        0.075      344.272       20.972      864.751
04/27/2013  20:49:00     -487.724       -7.973      -23.961      185.521      115.593       81.988    34418.173    13361.745     6722.083       14.650        2.725      487.789       96.609        0.039      344.305       21.025      864.742
04/27/2013  20:50:00     -459.356      -20.062      -22.707      205.824      122.764       84.588    42363.631    15070.885     7155.095       13.824        3.229      459.794       99.195        0.047      344.288       20.997      864.725
04/27/2013  20:51:00     -456.929      -85.779      -12.508      228.124      143.027       88.079    52040.667    20456.600     7757.880       14.826        4.013      464.911       89.613        0.037      344.279       20.983      864.758
04/27/2013  20:52:00     -244.272       -7.225      -16.683      115.063      137.791       75.107    13239.450    18986.421     5641.111        4.893        1.893      244.379       66.281        0.074      344.269       20.963      864.800
04/27/2013  20:53:00     -366.927      -39.193       -3.206      177.780      164.314       72.895    31605.615    26998.990     5313.649       10.004        3.196      369.014       79.546        0.046      344.226       20.890      864.817
04/27/2013  20:54:00     -420.399      -17.547      -17.543      235.570      129.794       77.959    55493.448    16846.383     6077.657       12.787        3.921      420.765       94.482        0.050      344.203       20.852      864.789
04/27/2013  20:55:00     -416.323      -71.969      -17.872      178.039       91.212       68.186    31697.941     8319.576     4649.369       11.174        2.233      422.498       78.503        0.035      344.169       20.794      864.786
04/27/2013  20:56:00     -319.792     -145.951       -3.766      159.442      127.635       69.785    25421.699    16290.621     4869.893        8.507        2.329      351.524       75.355        0.046      344.131       20.731      864.799
04/27/2013  20:57:00     -257.265      -59.742       -3.255      114.120       98.962       63.986    13023.467     9793.518     4094.155        4.833        1.346      264.110       60.752        0.053      344.086       20.653      864.820
04/27/2013  20:58:00     -400.663      -24.920      -11.892      199.149      116.247       81.631    39660.445    13513.361     6663.573       11.055        2.992      401.437       93.502        0.054      344.093       20.663      864.828
04/27/2013  20:59:00     -209.479      -58.535        5.194      172.106      115.134       60.203    29620.471    13255.832     3624.444        4.691        2.325      217.504       72.276        0.110      344.080       20.643      864.830
04/27/2013  21:00:00     -310.904      -14.503      -13.571      148.205      100.935       64.522    21964.761    10187.931     4163.095        6.668        1.816      311.242       69.356        0.050      344.034       20.564      864.816
04/27/2013  21:01:00     -375.192      -97.014       -6.687      177.783      111.286       58.447    31606.744    12384.606     3416.009        9.881        2.370      387.532       54.970        0.020      344.068       20.621      864.808
04/27/2013  21:02:00     -294.329      -47.070       -8.244      122.772      132.305       65.291    15073.023    17504.652     4262.894        6.287        1.842      298.069       67.997        0.052      344.029       20.555      864.802
04/27/2013  21:03:00     -241.526      -26.871      -10.819      107.144       97.580       53.314    11479.757     9521.865     2842.404        4.150        1.192      243.016       56.496        0.054      344.007       20.517      864.806
04/27/2013  21:04:00     -346.195      -18.683      -17.783      150.838      105.244       71.284    22752.238    11076.220     5081.356        7.971        1.945      346.699       71.890        0.043      344.011       20.525      864.806
04/27/2013  21:05:00     -396.237      -43.003      -11.315      175.235      105.651       68.315    30707.203    11162.050     4666.907       10.275        2.327      398.564       76.238        0.037      344.055       20.599      864.790
04/27/2013  21:06:00     -206.119       15.357       15.427      145.776      103.540       69.563    21250.732    10720.575     4839.032        3.988        1.841      206.691       63.548        0.095      344.046       20.586      864.784
04/27/2013  21:07:00     -485.031      -24.312      -30.687      162.569      119.225       69.767    26428.531    14214.685     4867.460       14.114        2.276      485.640       67.514        0.019      344.056       20.602      864.791
04/27/2013  21:08:00     -332.231      -82.467       -4.861      175.045      159.783       75.827    30640.830    25530.727     5749.705        8.955        3.096      342.313       83.597        0.060      344.062       20.611      864.795
04/27/2013  21:09:00     -438.453     -114.669      -19.981      164.808      168.377       81.800    27161.719    28350.966     6691.187       13.398        3.110      453.200       86.122        0.036      344.080       20.642      864.807
04/27/2013  21:10:00     -171.843      -58.419        0.196      117.030       93.421       65.288    13696.088     8727.438     4262.517        2.981        1.334      181.501       59.743        0.108      344.057       20.603      864.814
04/27/2013  21:11:00     -235.927      -57.605       -1.988      215.963      138.072       68.883    46639.999    19063.925     4744.877        6.470        3.522      242.858       64.078        0.070      344.024       20.547      864.838
04/27/2013  21:12:00     -214.159      -14.068        6.340      182.601      102.468       69.201    33343.203    10499.614     4788.765        4.736        2.432      214.621       90.396        0.177      343.993       20.495      864.819
04/27/2013  21:13:00     -411.049        6.690      -35.280      213.385      126.753       62.733    45533.021    16066.226     3935.490       11.788        3.277      411.104       68.494        0.028      343.987       20.484      864.810
04/27/2013  21:14:00     -238.143      -99.495       13.432      175.522      119.381       79.089    30807.911    14251.915     6255.074        5.904        2.566      258.092       98.710        0.146      343.953       20.425      864.792
04/27/2013  21:15:00     -375.425     -160.176      -14.682      216.534      148.972       92.206    46886.854    22192.714     8501.923       12.218        3.879      408.167       99.743        0.060      344.003       20.509      864.788
04/27/2013  21:16:00     -428.320     -101.395      -10.327      201.254      148.977       80.429    40503.283    22194.033     6468.898       13.149        3.458      440.158       94.124        0.046      343.990       20.489      864.826
04/27/2013  21:17:00     -211.872      -50.754       10.278      162.518      124.496       70.513    26411.942    15499.315     4972.077        4.722        2.344      217.866       72.981        0.112      343.945       20.413      864.847
04/27/2013  21:18:00     -324.437      -24.738      -26.578      112.683       99.047       60.688    12697.551     9810.246     3683.030        6.638        1.310      325.378       61.749        0.036      343.962       20.439      864.832
04/27/2013  21:19:00     -455.438     -155.379      -22.504      159.507      148.919       79.569    25442.597    22176.831     6331.262       14.300        2.698      481.214       75.528        0.025      343.955       20.428      864.813
04/27/2013  21:20:00     -404.021      -45.928       -6.338      212.040      171.097       93.709    44960.870    29274.049     8781.422       12.418        4.151      406.623       92.813        0.052      343.937       20.399      864.811
04/27/2013  21:21:00     -365.027     -124.252      -19.313      137.249      123.838       61.805    18837.415    15335.949     3819.860        9.352        1.900      385.595       63.528        0.027      343.911       20.352      864.845
04/27/2013  21:22:00     -482.505      -20.707      -28.439      149.952      132.621       74.133    22485.634    17588.230     5495.721       13.980        2.278      482.949       71.869        0.022      343.924       20.374      864.866
04/27/2013  21:23:00     -430.085       21.201      -25.344      155.474      118.107       61.230    24172.196    13949.368     3749.054       11.396        2.094      430.607       66.332        0.024      343.932       20.388      864.870
04/27/2013  21:24:00     -407.397     -160.889      -23.790      169.272      183.752       76.852    28653.001    33764.678     5906.186       13.036        3.416      438.016       74.363        0.029      343.901       20.336      864.846
04/27/2013  21:25:00     -263.102      -70.994       -7.599      181.389      120.992       70.612    32902.042    14639.181     4986.004        6.341        2.626      272.513       84.988        0.097      343.852       20.254      864.857
04/27/2013  21:26:00     -292.079        1.490        5.872      167.017      103.288       69.389    27894.728    10668.464     4814.781        6.435        2.169      292.082       72.356        0.061      343.830       20.216      864.876
04/27/2013  21:27:00     -412.578     -106.043      -19.835      169.668      119.815       79.907    28787.367    14355.643     6385.173       11.568        2.476      425.988       91.726        0.046      343.860       20.266      864.904
04/27/2013  21:28:00     -406.400      -41.890       -1.949      169.045      134.433       88.983    28576.149    18072.138     7917.908       11.073        2.728      408.553       80.549        0.039      343.897       20.328      864.934
04/27/2013  21:29:00     -376.378      -52.469      -16.551      169.358      150.479       77.760    28682.044    22644.062     6046.582       10.102        2.869      380.018       88.374        0.054      343.898       20.331      864.985
04/27/2013  21:30:00     -345.646      -57.470      -18.272      120.645      132.549       56.419    14555.159    17569.134     3183.135        7.920        1.765      350.391       62.971        0.032      343.944       20.409      864.978
04/27/2013  21:31:00     -234.448      -47.045       -3.579      107.072       92.904       52.030    11464.313     8631.061     2707.155        3.999        1.140      239.121       55.754        0.054      343.951       20.421      864.954
04/27/2013  21:32:00     -263.145      -33.342      -27.914      143.701      130.450       53.169    20649.858    17017.225     2826.927        5.581        2.025      265.249       42.724        0.026      343.895       20.327      864.953
04/27/2013  21:33:00     -317.779       -8.417      -12.358       99.943      105.795       48.467     9988.611    11192.589     2349.063        6.236        1.177      317.891       37.882        0.014      343.865       20.273      864.958
04/27/2013  21:34:00     -337.159     -159.415       -8.764      152.973      112.552       68.657    23400.781    12667.940     4713.755        8.997        2.039      372.947       73.585        0.039      343.864       20.274      864.959
04/27/2013  21:35:00     -358.780        8.971      -11.122      199.253      139.674       75.876    39701.622    19508.802     5757.217        9.693        3.248      358.892       86.118        0.058      343.881       20.303      864.978
04/27/2013  21:36:00     -473.992      -53.137      -29.650      202.519      167.736       86.239    41013.843    28135.425     7437.192       15.246        3.829      476.961       94.544        0.039      343.927       20.379      865.046
04/27/2013  21:37:00     -337.294       -1.210      -28.422      168.686      116.146       68.304    28454.853    13489.880     4665.426        8.058        2.331      337.296       78.735        0.054      343.933       20.390      865.075
04/27/2013  21:38:00     -276.525      -63.473      -27.311      107.121      120.591       60.808    11474.886    14542.227     3697.602        5.547        1.486      283.717       49.003        0.030      343.919       20.366      865.055
04/27/2013  21:39:00     -335.959      -38.235      -24.541      106.799       85.234       54.490    11406.074     7264.885     2969.213        6.828        1.082      338.128       55.653        0.027      343.861       20.267      865.043
04/27/2013  21:40:00     -333.837     -124.188       -5.291      182.225      140.871       78.337    33206.018    19844.611     6136.704        9.303        2.959      356.188       95.626        0.072      343.794       20.153      865.058
04/27/2013  21:41:00     -442.282     -112.435      -36.563      159.426      168.633       73.045    25416.586    28436.983     5335.638       13.438        2.959      456.350       71.596        0.025      343.808       20.177      865.055
04/27/2013  21:42:00     -412.590      -53.140      -20.164      178.492      115.786       68.495    31859.374    13406.380     4691.500       11.170        2.498      415.998       84.773        0.042      343.782       20.133      865.060
04/27/2013  21:43:00     -478.929      -48.975      -35.378      167.413      162.104       78.812    28027.079    26277.690     6211.378       14.676        3.026      481.426       75.919        0.025      343.862       20.271      865.062
04/27/2013  21:44:00     -335.016       14.153      -20.198      159.799      138.669       70.979    25535.758    19229.194     5038.053        8.131        2.490      335.315       77.036        0.053      343.877       20.294      865.047
04/27/2013  21:45:00     -296.906      -99.790       -5.835      115.840      136.250       56.669    13419.015    18564.157     3211.420        6.666        1.760      313.227       39.143        0.016      343.798       20.160      865.045
04/27/2013  21:46:00     -277.865      -99.078       -3.662      120.682      106.519       67.259    14564.213    11346.390     4523.733        5.873        1.522      295.001       68.410        0.054      343.783       20.134      865.043
04/27/2013  21:47:00     -448.867      -82.610      -11.465      183.983      133.262       73.982    33849.841    17758.675     5473.314       13.275        2.854      456.405       65.418        0.021      343.761       20.097      865.038
04/27/2013  21:48:00     -453.008     -105.537      -11.007      212.467      168.884       91.879    45142.200    28521.861     8441.721       14.927        4.105      465.139      108.649        0.055      343.739       20.059      865.054
04/27/2013  21:49:00     -529.411        3.394      -44.022      226.613      128.817       74.624    51353.286    16593.847     5568.711       17.786        3.676      529.422       94.450        0.032      343.768       20.108      865.070
04/27/2013  21:50:00     -463.837      -73.587      -22.083      222.363      179.001       81.121    49445.383    32041.508     6580.660       15.454        4.403      469.638       95.036        0.041      343.796       20.156      865.076
04/27/2013  21:51:00     -441.471      -34.762      -39.946      189.310      155.212       92.145    35838.391    24090.831     8490.674       13.305        3.421      442.838       99.176        0.050      343.786       20.140      865.064
04/27/2013  21:52:00     -480.404      -99.164      -22.121      206.915      133.690       67.815    42813.787    17873.132     4598.811       15.319        3.264      490.532       80.689        0.027      343.753       20.083      865.059
04/27/2013  21:53:00     -373.649      -76.108      -16.613      201.525      146.113       83.536    40612.305    21348.907     6978.205       10.730        3.447      381.322       87.578        0.053      343.714       20.018      865.053
04/27/2013  21:54:00     -509.752      -90.361      -29.939      191.213      158.985       84.405    36562.373    25276.076     7124.141       16.892        3.448      517.699       92.751        0.032      343.764       20.101      865.059
04/27/2013  21:55:00     -424.437     -104.077       -8.008      159.400      139.566       77.222    25408.512    19478.779     5963.232       12.094        2.543      437.011       79.235        0.033      343.720       20.027      865.061
04/27/2013  21:56:00     -318.701      -82.990       -0.055      172.728      131.419       73.220    29835.028    17270.874     5361.109        8.045        2.623      329.329       83.025        0.064      343.682       19.961      865.056
04/27/2013  21:57:00     -434.648     -153.674       -5.810      189.350      149.262       90.557    35853.505    22279.066     8200.489       13.944        3.317      461.015       90.501        0.039      343.741       20.063      865.052
04/27/2013  21:58:00     -395.547      -69.250      -15.309      186.816      179.265       79.269    34900.363    32135.940     6283.538       11.739        3.666      401.563       75.752        0.036      343.753       20.083      865.050
04/27/2013  21:59:00     -489.608     -138.041      -22.194      195.362      158.385       80.477    38166.495    25085.814     6476.564       16.448        3.486      508.695       86.058        0.029      343.724       20.032      865.040
04/27/2013  22:00:00     -431.651     -111.368      -14.374      171.883      157.022       80.896    29543.641    24655.877     6544.225       12.983        3.037      445.786       77.767        0.030      343.687       19.972      865.036
04/27/2013  22:01:00     -397.380      -88.617       -6.401      201.370      141.354       75.556    40550.039    19981.021     5708.783       11.601        3.312      407.141       89.366        0.048      343.653       19.912      865.026
04/27/2013  22:02:00     -398.024     -166.099      -16.847      176.500      127.259       77.561    31152.274    16194.849     6015.703       11.982        2.668      431.291       80.955        0.035      343.642       19.896      865.012
04/27/2013  22:03:00     -466.739     -144.076      -29.373      160.884      128.643       80.725    25883.677    16548.954     6516.574       14.420        2.447      488.470       80.239        0.027      343.671       19.944      865.006
04/27/2013  22:04:00     -345.657     -127.609      -10.617      151.459      132.707       74.312    22939.843    17611.073     5522.264        9.097        2.304      368.460       73.592        0.040      343.659       19.924      864.995
04/27/2013  22:05:00     -363.414      -98.857        0.304      155.455      150.948       80.681    24166.309    22785.159     6509.410        9.764        2.673      376.619       77.379        0.042      343.648       19.904      864.993
04/27/2013  22:06:00     -421.113       -1.497      -23.737      173.681      134.514       83.319    30165.205    18094.129     6942.087       11.654        2.760      421.116       83.931        0.040      343.652       19.910      865.006
04/27/2013  22:07:00     -431.565     -155.503      -18.323      216.198      157.073       76.660    46741.766    24671.858     5876.818       14.401        3.865      458.726       84.726        0.034      343.700       19.993      864.979
04/27/2013  22:08:00     -338.601      -37.650      -19.119      141.428      101.907       59.158    20001.872    10384.991     3499.707        7.515        1.694      340.688       57.799        0.029      343.643       19.895      864.995
04/27/2013  22:09:00     -392.577      -22.056      -24.239      199.576      105.701       79.940    39830.738    11172.724     6390.399       10.628        2.870      393.197       92.049        0.055      343.646       19.900      864.995
04/27/2013  22:10:00     -544.051      -33.628      -26.501      199.997      137.199       84.397    39998.975    18823.542     7122.910       18.187        3.297      545.089       88.879        0.027      343.680       19.957      864.999
04/27/2013  22:11:00     -412.119      -35.774      -17.781      147.368      138.965       64.909    21717.354    19311.251     4213.237       10.833        2.262      413.669       68.535        0.027      343.638       19.887      865.002
04/27/2013  22:12:00     -388.007     -105.072      -29.100      192.043      173.627       81.492    36880.587    30146.246     6640.969       11.804        3.683      401.982       75.447        0.035      343.640       19.891      864.994
04/27/2013  22:13:00     -344.447      -69.123      -21.119      190.268      137.354       84.013    36202.077    18866.145     7058.236        9.298        3.106      351.314       86.315        0.060      343.646       19.899      864.995
04/27/2013  22:14:00     -413.186     -109.367      -33.290      142.736      147.275       76.379    20373.429    21690.014     5833.773       11.583        2.395      427.415       80.280        0.035      343.678       19.955      864.981
04/27/2013  22:15:00     -381.622      -23.577      -18.096      135.033      104.753       70.291    18233.917    10973.247     4940.758        9.033        1.707      382.350       69.360        0.033      343.644       19.898      864.983
04/27/2013  22:16:00     -425.137      -40.270      -24.432      141.925       96.338       68.058    20142.688     9280.965     4631.929       10.850        1.703      427.040       72.076        0.028      343.611       19.841      864.972
04/27/2013  22:17:00     -308.139     -120.768       -6.059      174.041      123.262       73.979    30290.256    15193.424     5472.923        8.025        2.548      330.960       79.855        0.058      343.594       19.814      864.972
04/27/2013  22:18:00     -372.061      -86.830       -1.205      185.099      161.943       88.314    34261.716    26225.642     7799.408       10.711        3.414      382.058       94.535        0.061      343.625       19.864      864.958
04/27/2013  22:19:00     -446.186      -73.291      -17.101      183.960      136.475       75.331    33841.293    18625.337     5674.760       13.143        2.907      452.165       80.839        0.032      343.638       19.886      864.970
04/27/2013  22:20:00     -371.564      -49.512        1.874      178.133      144.566       83.692    31731.312    20899.308     7004.283       10.006        2.982      374.848       86.145        0.053      343.616       19.849      864.970
04/27/2013  22:21:00     -376.599      -62.234        1.325      179.002      134.237       76.616    32041.725    18019.517     5870.076       10.081        2.797      381.706       82.162        0.046      343.618       19.855      864.993
04/27/2013  22:22:00     -411.911      -44.288      -26.473      220.963      127.778       75.874    48824.744    16327.093     5756.821       12.161        3.545      414.285       93.402        0.051      343.641       19.892      864.987
04/27/2013  22:23:00     -322.650      -47.822      -17.495      125.247      100.691       68.984    15686.738    10138.766     4758.795        6.863        1.529      326.174       68.322        0.044      343.604       19.828      864.981
04/27/2013  22:24:00     -392.061     -135.051       -6.955      203.241      160.188       76.857    41306.751    25660.179     5907.049       12.242        3.644      414.669       84.630        0.042      343.653       19.913      864.977
04/27/2013  22:25:00     -493.218      -59.824      -37.475      144.372      149.143       76.289    20843.306    22243.762     5820.049       14.857        2.445      496.833       77.590        0.024      343.726       20.037      864.961
04/27/2013  22:26:00     -496.906      -52.082      -18.382      165.997      127.052       79.170    27555.050    16142.133     6267.924       14.996        2.498      499.628       70.017        0.020      343.674       19.949      864.966
04/27/2013  22:27:00     -477.684     -143.852       -9.315      214.915      149.621       91.175    46188.528    22386.571     8312.896       16.291        3.844      498.874      106.991        0.046      343.657       19.920      864.964
04/27/2013  22:28:00     -473.593     -110.000      -21.598      149.646      130.718       85.057    22393.950    17087.267     7234.752       14.178        2.336      486.200       79.841        0.027      343.658       19.921      864.949
04/27/2013  22:29:00     -310.523      -91.866      -14.592      192.576      169.173       68.311    37085.384    28619.673     4666.370        8.771        3.519      323.827       79.198        0.060      343.627       19.868      864.963
04/27/2013  22:30:00     -267.578      -30.966       -7.749      156.725      103.296       70.252    24562.801    10670.127     4935.310        5.638        2.008      269.364       72.296        0.072      343.601       19.826      864.966
04/27/2013  22:31:00     -408.841     -144.254      -17.438      174.561      130.564       72.713    30471.403    17047.060     5287.214       12.052        2.640      433.544       78.724        0.033      343.631       19.875      864.955
04/27/2013  22:32:00     -381.008      -61.042        1.950      145.312      107.559       71.083    21115.666    11568.935     5052.789        9.331        1.887      385.867       72.869        0.036      343.638       19.887      864.970
04/27/2013  22:33:00     -445.438      -36.349      -27.600      139.460      118.270       72.426    19449.198    13987.904     5245.591       11.958        1.934      446.919       67.450        0.023      343.652       19.909      864.966
04/27/2013  22:34:00     -273.449      -48.575      -13.338      137.451      100.707       69.772    18892.771    10141.858     4868.148        5.560        1.695      277.730       68.323        0.061      343.614       19.847      864.967
04/27/2013  22:35:00     -272.584      -48.871        6.130      150.822      108.801       65.868    22747.299    11837.743     4338.532        5.782        1.946      276.931       72.421        0.068      343.587       19.799      864.987
04/27/2013  22:36:00     -479.154      -33.371      -19.727      135.336      157.355       70.134    18315.714    24760.562     4918.806       13.953        2.400      480.315       57.431        0.014      343.613       19.844      864.986
04/27/2013  22:37:00     -355.479      -96.298      -12.872      109.164      100.749       47.129    11916.688    10150.340     2221.135        8.004        1.214      368.291       47.947        0.017      343.602       19.825      864.991
04/27/2013  22:38:00     -286.400      -65.223      -25.174       97.081       89.388       46.882     9424.701     7990.140     2197.924        5.326        0.981      293.733       38.503        0.017      343.583       19.793      865.042
04/27/2013  22:39:00     -206.673      -57.664       -5.633      139.302      103.303       58.410    19405.094    10671.499     3411.760        3.977        1.674      214.567       67.062        0.098      343.566       19.766      865.067
04/27/2013  22:40:00     -156.991       11.779       -5.872      167.436       67.497       47.544    28034.899     4555.788     2260.429        2.983        1.743      157.432       73.846        0.220      343.574       19.780      865.105
04/27/2013  22:41:00     -188.948        1.023       -8.928       56.509       52.391       25.189     3193.248     2744.803      634.475        2.118        0.329      188.951       23.786        0.016      343.558       19.753      865.150
04/27/2013  22:42:00      -57.348       27.498        1.463       69.132       38.726       24.079     4779.247     1499.736      579.795        0.545        0.343       63.599       15.251        0.058      343.456       19.581      865.178
04/27/2013  22:43:00     -126.512      -53.636        6.013       69.616       67.799       33.958     4846.370     4596.704     1153.146        1.476        0.530      137.412       31.593        0.053      343.518       19.686      865.198
04/27/2013  22:44:00        5.673       33.963        5.121       46.984       28.306       29.758     2207.467      801.212      885.548        0.255        0.195       34.434       20.432        0.352      343.377       19.444      865.235
04/27/2013  22:45:00       37.887       14.788       -0.634       44.302       39.024       27.391     1962.670     1522.905      750.240        0.294        0.212       40.671       24.641        0.367      343.407       19.496      865.247
04/27/2013  22:46:00       20.469       36.299      -15.770       46.500       31.428       22.793     2162.247      987.722      519.537        0.283        0.183       41.673       21.996        0.279      343.435       19.545      865.251
04/27/2013  22:47:00      -31.105      -13.624       -0.208       41.149       24.178       19.517     1693.220      584.575      380.932        0.191        0.133       33.958       20.135        0.352      343.413       19.508      865.256
04/27/2013  22:48:00     -130.129        2.388       -5.390       74.658       56.691       34.142     5573.749     3213.831     1165.683        1.346        0.498      130.151       32.427        0.062      343.427       19.528      865.259
04/27/2013  22:49:00      -44.060      -52.853       -5.895       51.056       48.470       21.924     2606.664     2349.355      480.666        0.510        0.272       68.809       20.179        0.086      343.437       19.548      865.263
04/27/2013  22:50:00      -21.711      -24.173        3.919       24.147       21.215       16.780      583.098      450.065      281.570        0.119        0.066       32.492       16.394        0.255      343.485       19.629      865.274
04/27/2013  22:51:00       12.449       16.803       15.878       16.411       14.687       14.066      269.327      215.699      197.845        0.069        0.034       20.912       12.190        0.340      343.335       19.373      865.283
04/27/2013  22:52:00       72.268       60.508       10.258       30.593       21.356       22.420      935.941      456.070      502.665        0.544        0.095       94.254       12.616        0.018      343.284       19.288      865.297
04/27/2013  22:53:00       80.806       72.643       40.200       38.064       30.776       38.527     1448.886      947.177     1484.338        0.865        0.194      108.658       23.689        0.048      343.202       19.147      865.291
04/27/2013  22:54:00       33.365       89.284       85.012       31.596       31.876       20.896      998.307     1016.061      436.641        0.938        0.123       95.315       15.551        0.027      343.242       19.218      865.292
04/27/2013  22:55:00       28.233       57.549       73.667       36.546       51.079       27.327     1335.574     2609.038      746.770        0.711        0.235       64.101       34.197        0.285      343.243       19.217      865.303
04/27/2013  22:56:00       95.167       50.254       18.940       34.694       32.860       29.813     1203.686     1079.796      888.796        0.756        0.159      107.621       15.915        0.022      343.396       19.478      865.323
04/27/2013  22:57:00       68.560       61.438       30.618       33.396       23.225       28.793     1115.265      539.398      829.065        0.595        0.124       92.060       15.781        0.029      343.371       19.435      865.320
04/27/2013  22:58:00       10.599        4.005       -1.061       22.853       45.678       22.622      522.259     2086.441      511.739        0.162        0.156       11.331       13.212        1.360      343.304       19.321      865.335
04/27/2013  22:59:00       25.566      -30.390        8.242       17.370       20.684       12.874      301.723      427.844      165.752        0.127        0.045       39.714       11.472        0.083      343.377       19.447      865.355
04/27/2013  23:00:00       50.272      -73.294       -9.479       30.270       21.231       17.379      916.274      450.748      302.032        0.483        0.083       88.878       16.045        0.033      343.584       19.799      865.364
04/27/2013  23:01:00       -8.267      -43.661       10.347       38.205       38.931       18.653     1459.647     1515.615      347.937        0.270        0.166       44.437       16.798        0.143      343.397       19.479      865.363
04/27/2013  23:02:00      -52.492      -20.692       -6.352       13.651       14.585       12.554      186.342      212.733      157.605        0.189        0.028       56.423        7.300        0.017      343.346       19.393      865.359
04/27/2013  23:03:00       -6.142      -15.876       12.971       27.355       30.321       18.174      748.272      919.370      330.294        0.123        0.100       17.023        7.272        0.183      343.272       19.267      865.356
04/27/2013  23:04:00      -21.843      -45.169       23.807       32.656       40.819       25.254     1066.431     1666.160      637.771        0.323        0.169       50.174       17.887        0.127      343.417       19.514      865.355
04/27/2013  23:05:00       -1.210      -72.677       20.398       35.827       54.693       39.028     1283.606     2991.285     1523.183        0.575        0.290       72.687       28.873        0.158      343.497       19.651      865.343
04/27/2013  23:06:00        5.298     -102.133       -5.448       41.636       45.111       24.259     1733.518     2035.034      588.480        0.742        0.218      102.270       26.374        0.067      343.580       19.791      865.364
04/27/2013  23:07:00      -45.386       -4.330        5.922       30.879       22.517       17.747      953.522      507.034      314.973        0.194        0.089       45.592       14.486        0.101      343.279       19.278      865.369
04/27/2013  23:08:00      -18.036      -52.774        9.673       38.548       24.733       21.901     1485.917      611.699      479.667        0.289        0.129       55.771       12.744        0.052      343.392       19.471      865.369
04/27/2013  23:09:00      -41.675      -37.741       -8.265       31.315       20.230       10.917      980.643      409.259      119.181        0.237        0.075       56.224       13.050        0.054      343.367       19.429      865.361
04/27/2013  23:10:00     -128.013       15.857      -12.565       58.023       43.635       19.743     3366.703     1904.050      389.796        1.123        0.283      128.991       20.565        0.025      343.010       18.821      865.373
04/27/2013  23:11:00     -128.062       20.779      -14.350       56.341       32.965       26.161     3174.260     1086.690      684.375        1.099        0.247      129.736       20.726        0.026      342.924       18.672      865.377
04/27/2013  23:12:00      -43.438       39.475       -1.502       24.157       19.920       13.334      583.572      396.808      177.783        0.230        0.058       58.695        8.178        0.019      342.962       18.740      865.386
04/27/2013  23:13:00      -33.550       27.346      -12.399       18.291       14.475        9.077      334.551      209.519       82.384        0.133        0.031       43.283        8.868        0.042      342.986       18.778      865.375
04/27/2013  23:14:00      -24.372       27.187       -9.907       15.036       17.441        8.690      226.095      304.172       75.517        0.102        0.030       36.512        9.236        0.064      343.183       19.115      865.378
04/27/2013  23:15:00      -65.188        4.162       -9.259       23.085       10.835        8.868      532.917      117.399       78.642        0.254        0.036       65.321        9.668        0.022      342.814       18.488      865.383
04/27/2013  23:16:00      -97.399      -12.988      -12.980       28.967       27.481       15.352      839.106      755.181      235.677        0.583        0.091       98.261       13.270        0.018      342.587       18.102      865.403
04/27/2013  23:17:00     -170.483       15.393      -21.464       44.422       31.139       21.786     1973.356      969.650      474.634        1.659        0.171      171.177       19.846        0.013      342.534       18.012      865.417
04/27/2013  23:18:00     -171.039       -1.357      -20.463       44.738       37.814       24.109     2001.452     1429.905      581.224        1.684        0.201      171.045       21.382        0.016      342.485       17.926      865.423
04/27/2013  23:19:00     -155.107       10.988      -20.825       34.790       32.262       15.014     1210.319     1040.860      225.407        1.354        0.124      155.495       12.857        0.007      342.563       18.059      865.425
04/27/2013  23:20:00      -62.905       -1.164       -6.127       28.605       17.511       10.690      818.254      306.648      114.278        0.262        0.062       62.915        8.699        0.019      342.555       18.048      865.407
04/27/2013  23:21:00       -8.703       16.078       -1.099       18.233       14.473       10.066      332.457      209.456      101.327        0.049        0.032       18.282        7.239        0.157      342.762       18.398      865.383
04/27/2013  23:22:00      -60.400       39.857      -11.906       67.208       21.100       12.244     4516.967      445.203      149.904        0.524        0.256       72.366        7.069        0.010      342.895       18.626      865.378
04/27/2013  23:23:00     -216.933        7.825      -21.285       52.756       30.439       24.157     2783.240      926.510      583.565        2.593        0.215      217.074       20.763        0.009      342.552       18.040      865.408
04/27/2013  23:24:00     -137.381      -23.620       -6.145       51.388       40.006       27.750     2640.740     1600.504      770.062        1.224        0.251      139.397       23.113        0.027      342.487       17.930      865.424
04/27/2013  23:25:00     -107.388        5.346      -22.208       31.283       54.920       22.823      978.638     3016.232      520.897        0.828        0.226      107.521       22.637        0.044      342.666       18.236      865.399
04/27/2013  23:26:00      -75.352      -30.241      -10.790       33.339       30.193       18.023     1111.482      911.632      324.839        0.453        0.117       81.194        7.145        0.008      342.595       18.115      865.383
04/27/2013  23:27:00      -62.449      -42.208      -10.907       35.192       23.581       13.922     1238.511      556.061      193.818        0.389        0.099       75.375       11.953        0.025      342.582       18.093      865.380
04/27/2013  23:28:00     -123.889      -26.618       -9.783       37.282       28.043       15.730     1389.910      786.417      247.438        0.929        0.121      126.716       15.867        0.016      342.576       18.084      865.385
04/27/2013  23:29:00     -116.318      -14.195       -7.861       52.519       20.922       23.312     2758.216      437.726      543.427        0.877        0.187      117.181       26.388        0.051      342.504       17.961      865.390
04/27/2013  23:30:00      -49.644      -25.685       -1.389       31.080       23.280       12.923      965.953      541.979      166.992        0.240        0.084       55.895       14.367        0.066      342.423       17.821      865.380
04/27/2013  23:31:00      -48.822      -30.793        2.392       26.960       20.720       11.725      726.850      429.319      137.483        0.232        0.065       57.722       10.813        0.035      342.634       18.180      865.375
04/27/2013  23:32:00      -87.252      -10.117       -2.516       34.641       42.106       15.268     1199.992     1772.956      233.114        0.546        0.160       87.836       17.340        0.039      342.523       17.991      865.387
04/27/2013  23:33:00     -114.251       -5.479      -14.088       18.716       36.635       12.128      350.293     1342.104      147.099        0.756        0.092      114.383        9.973        0.008      342.572       18.076      865.382
04/27/2013  23:34:00     -119.091      -34.949      -10.029       35.379       33.989       16.808     1251.658     1155.260      282.518        0.910        0.134      124.113       11.562        0.009      342.476       17.911      865.380
04/27/2013  23:35:00     -182.348      -80.309       -9.074       52.690       32.011       23.514     2776.229     1024.730      552.926        2.207        0.218      199.250       25.491        0.016      342.645       18.198      865.386
04/27/2013  23:36:00     -181.267      -58.726       -6.251       49.939       52.303       28.306     2493.940     2735.567      801.247        2.119        0.302      190.543       25.232        0.018      342.494       17.942      865.394
04/27/2013  23:37:00     -194.610      -48.702      -21.393       50.154       51.218       34.112     2515.430     2623.269     1163.615        2.350        0.315      200.611       28.935        0.021      342.466       17.894      865.398
04/27/2013  23:38:00     -161.631      -33.013      -14.351       63.353       40.582       31.469     4013.574     1646.884      990.303        1.703        0.333      164.968       33.610        0.042      342.670       18.241      865.384
04/27/2013  23:39:00     -213.786      -42.124      -10.588       77.795       55.798       44.067     6052.078     3113.375     1941.885        2.935        0.555      217.897       44.580        0.042      342.643       18.192      865.379
04/27/2013  23:40:00     -163.462       13.489      -12.092       42.052       44.135       23.557     1768.390     1947.927      554.910        1.566        0.214      164.017       19.155        0.014      342.585       18.096      865.393
04/27/2013  23:41:00     -112.897      -21.597       -6.798       36.304       44.723       24.719     1317.972     2000.149      611.030        0.859        0.196      114.945       17.928        0.024      342.483       17.925      865.388
04/27/2013  23:42:00     -129.956      -55.206       -4.086       51.087       42.394       26.439     2609.862     1797.225      699.005        1.253        0.255      141.196       20.173        0.020      342.540       18.021      865.393
04/27/2013  23:43:00     -175.685      -51.795      -10.549       41.420       41.835       26.628     1715.617     1750.174      709.073        1.892        0.209      183.161       25.269        0.019      342.589       18.104      865.391
04/27/2013  23:44:00     -218.858        2.838      -20.223       54.880       45.918       25.936     3011.842     2108.434      672.668        2.705        0.290      218.876       28.222        0.017      342.631       18.173      865.398
04/27/2013  23:45:00     -252.125       24.450      -15.013      113.417       98.451       47.432    12863.357     9692.522     2249.842        4.459        1.240      253.308       46.316        0.033      342.970       18.748      865.399
04/27/2013  23:46:00     -114.057      -51.705       -4.163       39.626       33.983       26.016     1570.240     1154.818      676.808        0.955        0.170      125.229       20.922        0.028      342.862       18.569      865.377
04/27/2013  23:47:00     -135.154      -30.535      -24.055       23.439       17.379       16.241      549.381      302.021      263.764        1.045        0.056      138.560       12.475        0.008      342.714       18.317      865.390
04/27/2013  23:48:00     -133.403      -30.639       -7.158       24.708       30.251       17.563      610.486      915.113      308.454        1.031        0.092      136.876       15.286        0.012      342.609       18.139      865.387
04/27/2013  23:49:00     -116.086        8.865       -5.186       53.357       42.734       24.000     2846.976     1826.187      576.020        0.941        0.262      116.424       25.276        0.047      342.701       18.294      865.394
04/27/2013  23:50:00     -102.790      -11.297       -0.145       73.618       57.645       39.288     5419.622     3322.999     1543.551        1.049        0.514      103.409       47.007        0.207      342.790       18.445      865.408
04/27/2013  23:51:00      -98.635      137.888      -27.212       63.817       68.405       35.046     4072.576     4679.237     1228.221        1.973        0.499      169.535       31.696        0.035      342.605       18.129      865.413
04/27/2013  23:52:00     -154.166      -10.226       -7.480       94.361       83.814       38.623     8903.937     7024.834     1491.768        2.067        0.871      154.505       47.261        0.094      342.521       17.987      865.402
04/27/2013  23:53:00     -219.372      -79.722      -16.595       77.171       65.239       44.567     5955.295     4256.065     1986.247        3.347        0.610      233.409       44.171        0.036      342.647       18.199      865.396
04/27/2013  23:54:00      -82.266      -12.247        9.800       74.336       73.135       41.159     5525.869     5348.665     1694.068        0.979        0.628       83.173       35.284        0.180      342.461       17.886      865.387
04/27/2013  23:55:00      -79.861      122.177       -9.122       86.609      123.070       51.892     7501.115    15146.110     2692.742        2.336        1.267      145.963       57.158        0.153      342.520       17.987      865.394
04/27/2013  23:56:00     -147.898       83.313      -14.608       65.437       59.604       44.058     4281.967     3552.688     1941.104        1.940        0.489      169.749       36.803        0.047      342.512       17.972      865.380
04/27/2013  23:57:00     -166.293       85.794      -31.160       71.210       73.563       42.845     5070.865     5411.485     1835.673        2.415        0.616      187.120       36.448        0.038      342.607       18.132      865.371
04/27/2013  23:58:00     -177.399      -77.442        7.260       80.196       82.725       44.109     6431.460     6843.440     1945.567        2.637        0.761      193.565       39.761        0.042      342.413       17.802      865.371
04/27/2013  23:59:00     -252.052      -81.589       -6.222      110.332       66.977       39.184    12173.224     4485.881     1535.380        4.421        0.910      264.928       47.181        0.032      342.202       17.445      865.388
